<?xml version="1.0" encoding="UTF-8" standalone="no" ?>
<gpx xmlns="http://www.topografix.com/GPX/1/1" xmlns:xsi="http://www.w3.org/2001/XMLSchema-instance" xsi:schemaLocation="http://www.topografix.com/GPX/1/1 http://www.topografix.com/GPX/1/1/gpx.xsd" version="1.1" creator="VisuGPX - https://www.visugpx.com">
  <metadata>
    <name>VTT-Saint-Etienne2-36-420</name>
    <desc><![CDATA[Parcours VTT du samedi 23 mars 2019 - Saint-Etienne - 36 km - D+ : 420 m]]></desc>
  </metadata>
  <trk>
    <name><![CDATA[St-Etienne2]]></name>
    <trkseg>
      <trkpt lat="46.08905" lon="6.50763">
        <ele>476.755005</ele>
        <time>2016-03-26T13:02:26Z</time>
      </trkpt>
      <trkpt lat="46.0891" lon="6.50737">
        <ele>476.845001</ele>
        <time>2016-03-26T13:02:33Z</time>
      </trkpt>
      <trkpt lat="46.08914" lon="6.50712">
        <ele>476.929993</ele>
        <time>2016-03-26T13:02:38Z</time>
      </trkpt>
      <trkpt lat="46.08919" lon="6.50683">
        <ele>477</ele>
        <time>2016-03-26T13:02:44Z</time>
      </trkpt>
      <trkpt lat="46.08921" lon="6.50653">
        <ele>476.757477</ele>
        <time>2016-03-26T13:02:50Z</time>
      </trkpt>
      <trkpt lat="46.08907" lon="6.50637">
        <ele>476.362274</ele>
        <time>2016-03-26T13:02:57Z</time>
      </trkpt>
      <trkpt lat="46.08907" lon="6.50637">
        <ele>476.362274</ele>
        <time>2016-03-26T13:02:57Z</time>
      </trkpt>
      <trkpt lat="46.08888" lon="6.50639">
        <ele>476.162048</ele>
        <time>2016-03-26T13:03:04Z</time>
      </trkpt>
      <trkpt lat="46.08882" lon="6.50666">
        <ele>476.17392</ele>
        <time>2016-03-26T13:03:10Z</time>
      </trkpt>
      <trkpt lat="46.08874" lon="6.50695">
        <ele>476.029999</ele>
        <time>2016-03-26T13:03:16Z</time>
      </trkpt>
      <trkpt lat="46.08868" lon="6.50721">
        <ele>476</ele>
        <time>2016-03-26T13:03:21Z</time>
      </trkpt>
      <trkpt lat="46.08862" lon="6.50749">
        <ele>475.935699</ele>
        <time>2016-03-26T13:03:26Z</time>
      </trkpt>
      <trkpt lat="46.08854" lon="6.5078">
        <ele>475.729187</ele>
        <time>2016-03-26T13:03:31Z</time>
      </trkpt>
      <trkpt lat="46.08849" lon="6.50805">
        <ele>475.549988</ele>
        <time>2016-03-26T13:03:35Z</time>
      </trkpt>
      <trkpt lat="46.08843" lon="6.5083">
        <ele>475.440002</ele>
        <time>2016-03-26T13:03:39Z</time>
      </trkpt>
      <trkpt lat="46.08836" lon="6.5086">
        <ele>475.315002</ele>
        <time>2016-03-26T13:03:44Z</time>
      </trkpt>
      <trkpt lat="46.08829" lon="6.5089">
        <ele>475.179993</ele>
        <time>2016-03-26T13:03:49Z</time>
      </trkpt>
      <trkpt lat="46.08823" lon="6.5092">
        <ele>475.059998</ele>
        <time>2016-03-26T13:03:54Z</time>
      </trkpt>
      <trkpt lat="46.08816" lon="6.5095">
        <ele>474.945007</ele>
        <time>2016-03-26T13:03:59Z</time>
      </trkpt>
      <trkpt lat="46.0881" lon="6.50981">
        <ele>474.829987</ele>
        <time>2016-03-26T13:04:04Z</time>
      </trkpt>
      <trkpt lat="46.08805" lon="6.51005">
        <ele>474.734985</ele>
        <time>2016-03-26T13:04:08Z</time>
      </trkpt>
      <trkpt lat="46.08798" lon="6.51036">
        <ele>474.61499</ele>
        <time>2016-03-26T13:04:13Z</time>
      </trkpt>
      <trkpt lat="46.08792" lon="6.51061">
        <ele>474.617737</ele>
        <time>2016-03-26T13:04:17Z</time>
      </trkpt>
      <trkpt lat="46.08787" lon="6.51087">
        <ele>474.652039</ele>
        <time>2016-03-26T13:04:21Z</time>
      </trkpt>
      <trkpt lat="46.08781" lon="6.51113">
        <ele>474.608765</ele>
        <time>2016-03-26T13:04:25Z</time>
      </trkpt>
      <trkpt lat="46.08775" lon="6.5114">
        <ele>474.751251</ele>
        <time>2016-03-26T13:04:29Z</time>
      </trkpt>
      <trkpt lat="46.08768" lon="6.51165">
        <ele>474.8992</ele>
        <time>2016-03-26T13:04:33Z</time>
      </trkpt>
      <trkpt lat="46.08762" lon="6.51191">
        <ele>475.188751</ele>
        <time>2016-03-26T13:04:37Z</time>
      </trkpt>
      <trkpt lat="46.08756" lon="6.51217">
        <ele>475.47876</ele>
        <time>2016-03-26T13:04:41Z</time>
      </trkpt>
      <trkpt lat="46.0875" lon="6.51242">
        <ele>475.77124</ele>
        <time>2016-03-26T13:04:45Z</time>
      </trkpt>
      <trkpt lat="46.08744" lon="6.51269">
        <ele>476.089996</ele>
        <time>2016-03-26T13:04:49Z</time>
      </trkpt>
      <trkpt lat="46.08737" lon="6.51296">
        <ele>476.371246</ele>
        <time>2016-03-26T13:04:53Z</time>
      </trkpt>
      <trkpt lat="46.08731" lon="6.51322">
        <ele>476.556549</ele>
        <time>2016-03-26T13:04:57Z</time>
      </trkpt>
      <trkpt lat="46.08725" lon="6.51349">
        <ele>476.798035</ele>
        <time>2016-03-26T13:05:01Z</time>
      </trkpt>
      <trkpt lat="46.08719" lon="6.51376">
        <ele>476.862671</ele>
        <time>2016-03-26T13:05:05Z</time>
      </trkpt>
      <trkpt lat="46.08714" lon="6.51405">
        <ele>476.427612</ele>
        <time>2016-03-26T13:05:09Z</time>
      </trkpt>
      <trkpt lat="46.08707" lon="6.51433">
        <ele>475.869995</ele>
        <time>2016-03-26T13:05:13Z</time>
      </trkpt>
      <trkpt lat="46.087" lon="6.51461">
        <ele>475.297516</ele>
        <time>2016-03-26T13:05:17Z</time>
      </trkpt>
      <trkpt lat="46.08694" lon="6.51489">
        <ele>474.75</ele>
        <time>2016-03-26T13:05:21Z</time>
      </trkpt>
      <trkpt lat="46.08688" lon="6.51517">
        <ele>474.029388</ele>
        <time>2016-03-26T13:05:25Z</time>
      </trkpt>
      <trkpt lat="46.08681" lon="6.51544">
        <ele>473.197845</ele>
        <time>2016-03-26T13:05:29Z</time>
      </trkpt>
      <trkpt lat="46.08675" lon="6.51573">
        <ele>472.630005</ele>
        <time>2016-03-26T13:05:33Z</time>
      </trkpt>
      <trkpt lat="46.08668" lon="6.51602">
        <ele>472.380005</ele>
        <time>2016-03-26T13:05:37Z</time>
      </trkpt>
      <trkpt lat="46.08662" lon="6.51631">
        <ele>472.289978</ele>
        <time>2016-03-26T13:05:41Z</time>
      </trkpt>
      <trkpt lat="46.08653" lon="6.51657">
        <ele>472.332642</ele>
        <time>2016-03-26T13:05:45Z</time>
      </trkpt>
      <trkpt lat="46.08647" lon="6.51684">
        <ele>472.369019</ele>
        <time>2016-03-26T13:05:49Z</time>
      </trkpt>
      <trkpt lat="46.08641" lon="6.51712">
        <ele>472.180389</ele>
        <time>2016-03-26T13:05:53Z</time>
      </trkpt>
      <trkpt lat="46.08635" lon="6.51737">
        <ele>472.066345</ele>
        <time>2016-03-26T13:05:57Z</time>
      </trkpt>
      <trkpt lat="46.08628" lon="6.51767">
        <ele>472.16626</ele>
        <time>2016-03-26T13:06:02Z</time>
      </trkpt>
      <trkpt lat="46.08622" lon="6.51793">
        <ele>472.373749</ele>
        <time>2016-03-26T13:06:06Z</time>
      </trkpt>
      <trkpt lat="46.08615" lon="6.51821">
        <ele>472.399994</ele>
        <time>2016-03-26T13:06:10Z</time>
      </trkpt>
      <trkpt lat="46.08609" lon="6.51848">
        <ele>472.140015</ele>
        <time>2016-03-26T13:06:14Z</time>
      </trkpt>
      <trkpt lat="46.08602" lon="6.51876">
        <ele>471.920197</ele>
        <time>2016-03-26T13:06:18Z</time>
      </trkpt>
      <trkpt lat="46.08595" lon="6.51904">
        <ele>472.030518</ele>
        <time>2016-03-26T13:06:22Z</time>
      </trkpt>
      <trkpt lat="46.08589" lon="6.51928">
        <ele>471.986237</ele>
        <time>2016-03-26T13:06:26Z</time>
      </trkpt>
      <trkpt lat="46.08575" lon="6.51946">
        <ele>471.310394</ele>
        <time>2016-03-26T13:06:31Z</time>
      </trkpt>
      <trkpt lat="46.08556" lon="6.51952">
        <ele>470.237488</ele>
        <time>2016-03-26T13:06:36Z</time>
      </trkpt>
      <trkpt lat="46.08535" lon="6.51957">
        <ele>469.707428</ele>
        <time>2016-03-26T13:06:41Z</time>
      </trkpt>
      <trkpt lat="46.08514" lon="6.51963">
        <ele>469.095398</ele>
        <time>2016-03-26T13:06:46Z</time>
      </trkpt>
      <trkpt lat="46.08493" lon="6.51971">
        <ele>468.61499</ele>
        <time>2016-03-26T13:06:51Z</time>
      </trkpt>
      <trkpt lat="46.08473" lon="6.51978">
        <ele>468.160004</ele>
        <time>2016-03-26T13:06:56Z</time>
      </trkpt>
      <trkpt lat="46.08451" lon="6.5198">
        <ele>468.320007</ele>
        <time>2016-03-26T13:07:01Z</time>
      </trkpt>
      <trkpt lat="46.0843" lon="6.51978">
        <ele>468.790009</ele>
        <time>2016-03-26T13:07:06Z</time>
      </trkpt>
      <trkpt lat="46.08409" lon="6.51976">
        <ele>469</ele>
        <time>2016-03-26T13:07:11Z</time>
      </trkpt>
      <trkpt lat="46.08388" lon="6.51973">
        <ele>469</ele>
        <time>2016-03-26T13:07:16Z</time>
      </trkpt>
      <trkpt lat="46.08367" lon="6.51972">
        <ele>469</ele>
        <time>2016-03-26T13:07:21Z</time>
      </trkpt>
      <trkpt lat="46.08345" lon="6.5197">
        <ele>469</ele>
        <time>2016-03-26T13:07:26Z</time>
      </trkpt>
      <trkpt lat="46.08323" lon="6.51969">
        <ele>468.96106</ele>
        <time>2016-03-26T13:07:31Z</time>
      </trkpt>
      <trkpt lat="46.08304" lon="6.51968">
        <ele>468.875702</ele>
        <time>2016-03-26T13:07:35Z</time>
      </trkpt>
      <trkpt lat="46.08286" lon="6.51968">
        <ele>468.818695</ele>
        <time>2016-03-26T13:07:39Z</time>
      </trkpt>
      <trkpt lat="46.08265" lon="6.5197">
        <ele>468.462769</ele>
        <time>2016-03-26T13:07:44Z</time>
      </trkpt>
      <trkpt lat="46.08246" lon="6.51971">
        <ele>468.113129</ele>
        <time>2016-03-26T13:07:48Z</time>
      </trkpt>
      <trkpt lat="46.08227" lon="6.51971">
        <ele>468</ele>
        <time>2016-03-26T13:07:52Z</time>
      </trkpt>
      <trkpt lat="46.08209" lon="6.51967">
        <ele>468</ele>
        <time>2016-03-26T13:07:56Z</time>
      </trkpt>
      <trkpt lat="46.08191" lon="6.51958">
        <ele>468</ele>
        <time>2016-03-26T13:08:00Z</time>
      </trkpt>
      <trkpt lat="46.08176" lon="6.51943">
        <ele>468</ele>
        <time>2016-03-26T13:08:05Z</time>
      </trkpt>
      <trkpt lat="46.0816" lon="6.51928">
        <ele>468</ele>
        <time>2016-03-26T13:08:21Z</time>
      </trkpt>
      <trkpt lat="46.08143" lon="6.51911">
        <ele>467.818756</ele>
        <time>2016-03-26T13:08:27Z</time>
      </trkpt>
      <trkpt lat="46.08126" lon="6.51896">
        <ele>467.410004</ele>
        <time>2016-03-26T13:08:33Z</time>
      </trkpt>
      <trkpt lat="46.08109" lon="6.51893">
        <ele>467.015015</ele>
        <time>2016-03-26T13:08:41Z</time>
      </trkpt>
      <trkpt lat="46.08093" lon="6.51913">
        <ele>467.190002</ele>
        <time>2016-03-26T13:08:46Z</time>
      </trkpt>
      <trkpt lat="46.08079" lon="6.51932">
        <ele>467.494995</ele>
        <time>2016-03-26T13:08:50Z</time>
      </trkpt>
      <trkpt lat="46.08061" lon="6.51952">
        <ele>467.826263</ele>
        <time>2016-03-26T13:08:55Z</time>
      </trkpt>
      <trkpt lat="46.08044" lon="6.51971">
        <ele>467.689514</ele>
        <time>2016-03-26T13:09:00Z</time>
      </trkpt>
      <trkpt lat="46.08029" lon="6.51988">
        <ele>467.613251</ele>
        <time>2016-03-26T13:09:04Z</time>
      </trkpt>
      <trkpt lat="46.08013" lon="6.52003">
        <ele>467.673187</ele>
        <time>2016-03-26T13:09:08Z</time>
      </trkpt>
      <trkpt lat="46.07995" lon="6.52015">
        <ele>467.52951</ele>
        <time>2016-03-26T13:09:13Z</time>
      </trkpt>
      <trkpt lat="46.07977" lon="6.52024">
        <ele>467.227997</ele>
        <time>2016-03-26T13:09:20Z</time>
      </trkpt>
      <trkpt lat="46.07958" lon="6.52033">
        <ele>467.156982</ele>
        <time>2016-03-26T13:09:24Z</time>
      </trkpt>
      <trkpt lat="46.07939" lon="6.52044">
        <ele>467.149048</ele>
        <time>2016-03-26T13:09:28Z</time>
      </trkpt>
      <trkpt lat="46.07921" lon="6.52056">
        <ele>467</ele>
        <time>2016-03-26T13:09:32Z</time>
      </trkpt>
      <trkpt lat="46.07903" lon="6.52069">
        <ele>467</ele>
        <time>2016-03-26T13:09:36Z</time>
      </trkpt>
      <trkpt lat="46.07885" lon="6.52082">
        <ele>467.051239</ele>
        <time>2016-03-26T13:09:40Z</time>
      </trkpt>
      <trkpt lat="46.07866" lon="6.52096">
        <ele>467.228424</ele>
        <time>2016-03-26T13:09:44Z</time>
      </trkpt>
      <trkpt lat="46.0785" lon="6.52114">
        <ele>467.259216</ele>
        <time>2016-03-26T13:09:48Z</time>
      </trkpt>
      <trkpt lat="46.07837" lon="6.52136">
        <ele>467.167847</ele>
        <time>2016-03-26T13:09:52Z</time>
      </trkpt>
      <trkpt lat="46.07827" lon="6.5216">
        <ele>467</ele>
        <time>2016-03-26T13:09:56Z</time>
      </trkpt>
      <trkpt lat="46.0782" lon="6.52187">
        <ele>467</ele>
        <time>2016-03-26T13:10:00Z</time>
      </trkpt>
      <trkpt lat="46.07813" lon="6.52214">
        <ele>467.119812</ele>
        <time>2016-03-26T13:10:04Z</time>
      </trkpt>
      <trkpt lat="46.07806" lon="6.5224">
        <ele>467.339264</ele>
        <time>2016-03-26T13:10:08Z</time>
      </trkpt>
      <trkpt lat="46.07803" lon="6.52269">
        <ele>467.529999</ele>
        <time>2016-03-26T13:10:12Z</time>
      </trkpt>
      <trkpt lat="46.078" lon="6.52301">
        <ele>467.48999</ele>
        <time>2016-03-26T13:10:16Z</time>
      </trkpt>
      <trkpt lat="46.07797" lon="6.52331">
        <ele>467.464996</ele>
        <time>2016-03-26T13:10:20Z</time>
      </trkpt>
      <trkpt lat="46.07795" lon="6.52361">
        <ele>467.429993</ele>
        <time>2016-03-26T13:10:24Z</time>
      </trkpt>
      <trkpt lat="46.07792" lon="6.52391">
        <ele>467.394989</ele>
        <time>2016-03-26T13:10:28Z</time>
      </trkpt>
      <trkpt lat="46.07789" lon="6.52421">
        <ele>467.613586</ele>
        <time>2016-03-26T13:10:32Z</time>
      </trkpt>
      <trkpt lat="46.07787" lon="6.52448">
        <ele>467.873779</ele>
        <time>2016-03-26T13:10:36Z</time>
      </trkpt>
      <trkpt lat="46.07786" lon="6.52477">
        <ele>468</ele>
        <time>2016-03-26T13:10:41Z</time>
      </trkpt>
      <trkpt lat="46.07775" lon="6.52498">
        <ele>468</ele>
        <time>2016-03-26T13:10:47Z</time>
      </trkpt>
      <trkpt lat="46.07754" lon="6.52499">
        <ele>467.872192</ele>
        <time>2016-03-26T13:10:52Z</time>
      </trkpt>
      <trkpt lat="46.07735" lon="6.52502">
        <ele>467.774323</ele>
        <time>2016-03-26T13:10:56Z</time>
      </trkpt>
      <trkpt lat="46.07715" lon="6.52505">
        <ele>467.783752</ele>
        <time>2016-03-26T13:11:00Z</time>
      </trkpt>
      <trkpt lat="46.07695" lon="6.52509">
        <ele>467.867493</ele>
        <time>2016-03-26T13:11:04Z</time>
      </trkpt>
      <trkpt lat="46.07676" lon="6.52512">
        <ele>467.856537</ele>
        <time>2016-03-26T13:11:08Z</time>
      </trkpt>
      <trkpt lat="46.07656" lon="6.52514">
        <ele>467.467072</ele>
        <time>2016-03-26T13:11:12Z</time>
      </trkpt>
      <trkpt lat="46.07635" lon="6.52515">
        <ele>467.055542</ele>
        <time>2016-03-26T13:11:16Z</time>
      </trkpt>
      <trkpt lat="46.07615" lon="6.52516">
        <ele>467.042389</ele>
        <time>2016-03-26T13:11:20Z</time>
      </trkpt>
      <trkpt lat="46.07598" lon="6.525">
        <ele>467</ele>
        <time>2016-03-26T13:11:25Z</time>
      </trkpt>
      <trkpt lat="46.07595" lon="6.5247">
        <ele>467</ele>
        <time>2016-03-26T13:11:30Z</time>
      </trkpt>
      <trkpt lat="46.07594" lon="6.52442">
        <ele>467</ele>
        <time>2016-03-26T13:11:35Z</time>
      </trkpt>
      <trkpt lat="46.07593" lon="6.52411">
        <ele>467</ele>
        <time>2016-03-26T13:11:40Z</time>
      </trkpt>
      <trkpt lat="46.07592" lon="6.52382">
        <ele>467</ele>
        <time>2016-03-26T13:11:44Z</time>
      </trkpt>
      <trkpt lat="46.07587" lon="6.52356">
        <ele>466.92923</ele>
        <time>2016-03-26T13:11:48Z</time>
      </trkpt>
      <trkpt lat="46.07586" lon="6.52326">
        <ele>466.795746</ele>
        <time>2016-03-26T13:11:53Z</time>
      </trkpt>
      <trkpt lat="46.07581" lon="6.52295">
        <ele>466.63501</ele>
        <time>2016-03-26T13:11:58Z</time>
      </trkpt>
      <trkpt lat="46.07568" lon="6.5227">
        <ele>466.329987</ele>
        <time>2016-03-26T13:12:03Z</time>
      </trkpt>
      <trkpt lat="46.07559" lon="6.52244">
        <ele>466.088837</ele>
        <time>2016-03-26T13:12:08Z</time>
      </trkpt>
      <trkpt lat="46.07546" lon="6.52219">
        <ele>466</ele>
        <time>2016-03-26T13:12:13Z</time>
      </trkpt>
      <trkpt lat="46.0753" lon="6.52196">
        <ele>466</ele>
        <time>2016-03-26T13:12:18Z</time>
      </trkpt>
      <trkpt lat="46.07516" lon="6.52173">
        <ele>466</ele>
        <time>2016-03-26T13:12:23Z</time>
      </trkpt>
      <trkpt lat="46.07503" lon="6.52146">
        <ele>465.785004</ele>
        <time>2016-03-26T13:12:28Z</time>
      </trkpt>
      <trkpt lat="46.07495" lon="6.52121">
        <ele>465.570007</ele>
        <time>2016-03-26T13:12:32Z</time>
      </trkpt>
      <trkpt lat="46.07488" lon="6.52093">
        <ele>465.278442</ele>
        <time>2016-03-26T13:12:36Z</time>
      </trkpt>
      <trkpt lat="46.07482" lon="6.52068">
        <ele>465.071381</ele>
        <time>2016-03-26T13:12:40Z</time>
      </trkpt>
      <trkpt lat="46.0747" lon="6.52047">
        <ele>465</ele>
        <time>2016-03-26T13:12:44Z</time>
      </trkpt>
      <trkpt lat="46.07454" lon="6.52033">
        <ele>465</ele>
        <time>2016-03-26T13:12:48Z</time>
      </trkpt>
      <trkpt lat="46.07435" lon="6.52034">
        <ele>465</ele>
        <time>2016-03-26T13:12:52Z</time>
      </trkpt>
      <trkpt lat="46.07416" lon="6.52036">
        <ele>464.755005</ele>
        <time>2016-03-26T13:12:56Z</time>
      </trkpt>
      <trkpt lat="46.07397" lon="6.52033">
        <ele>464.329987</ele>
        <time>2016-03-26T13:13:00Z</time>
      </trkpt>
      <trkpt lat="46.07377" lon="6.52024">
        <ele>464</ele>
        <time>2016-03-26T13:13:05Z</time>
      </trkpt>
      <trkpt lat="46.07358" lon="6.52019">
        <ele>464</ele>
        <time>2016-03-26T13:13:10Z</time>
      </trkpt>
      <trkpt lat="46.07341" lon="6.52007">
        <ele>464</ele>
        <time>2016-03-26T13:13:16Z</time>
      </trkpt>
      <trkpt lat="46.07326" lon="6.51985">
        <ele>464.274994</ele>
        <time>2016-03-26T13:13:22Z</time>
      </trkpt>
      <trkpt lat="46.07317" lon="6.51959">
        <ele>464.410614</ele>
        <time>2016-03-26T13:13:27Z</time>
      </trkpt>
      <trkpt lat="46.07308" lon="6.51932">
        <ele>464.299072</ele>
        <time>2016-03-26T13:13:32Z</time>
      </trkpt>
      <trkpt lat="46.07304" lon="6.51905">
        <ele>464.002106</ele>
        <time>2016-03-26T13:13:37Z</time>
      </trkpt>
      <trkpt lat="46.07307" lon="6.51876">
        <ele>464</ele>
        <time>2016-03-26T13:13:43Z</time>
      </trkpt>
      <trkpt lat="46.07297" lon="6.51852">
        <ele>464.041779</ele>
        <time>2016-03-26T13:13:49Z</time>
      </trkpt>
      <trkpt lat="46.07298" lon="6.51823">
        <ele>464.035004</ele>
        <time>2016-03-26T13:13:55Z</time>
      </trkpt>
      <trkpt lat="46.07297" lon="6.51791">
        <ele>464.079987</ele>
        <time>2016-03-26T13:14:02Z</time>
      </trkpt>
      <trkpt lat="46.07301" lon="6.51763">
        <ele>464.016266</ele>
        <time>2016-03-26T13:14:08Z</time>
      </trkpt>
      <trkpt lat="46.07307" lon="6.51738">
        <ele>463.904999</ele>
        <time>2016-03-26T13:14:16Z</time>
      </trkpt>
      <trkpt lat="46.0732" lon="6.51713">
        <ele>463.63501</ele>
        <time>2016-03-26T13:14:23Z</time>
      </trkpt>
      <trkpt lat="46.07329" lon="6.5169">
        <ele>463.291779</ele>
        <time>2016-03-26T13:14:29Z</time>
      </trkpt>
      <trkpt lat="46.07344" lon="6.51669">
        <ele>463.0448</ele>
        <time>2016-03-26T13:14:36Z</time>
      </trkpt>
      <trkpt lat="46.07364" lon="6.51653">
        <ele>463.010651</ele>
        <time>2016-03-26T13:15:02Z</time>
      </trkpt>
      <trkpt lat="46.07377" lon="6.51624">
        <ele>463</ele>
        <time>2016-03-26T13:15:16Z</time>
      </trkpt>
      <trkpt lat="46.0738" lon="6.51593">
        <ele>463</ele>
        <time>2016-03-26T13:15:24Z</time>
      </trkpt>
      <trkpt lat="46.07384" lon="6.51562">
        <ele>463</ele>
        <time>2016-03-26T13:15:33Z</time>
      </trkpt>
      <trkpt lat="46.07393" lon="6.51531">
        <ele>463</ele>
        <time>2016-03-26T13:15:42Z</time>
      </trkpt>
      <trkpt lat="46.07396" lon="6.515">
        <ele>462.628754</ele>
        <time>2016-03-26T13:15:48Z</time>
      </trkpt>
      <trkpt lat="46.07403" lon="6.5147">
        <ele>462.158752</ele>
        <time>2016-03-26T13:15:53Z</time>
      </trkpt>
      <trkpt lat="46.07404" lon="6.51446">
        <ele>462</ele>
        <time>2016-03-26T13:16:01Z</time>
      </trkpt>
      <trkpt lat="46.07384" lon="6.51439">
        <ele>462</ele>
        <time>2016-03-26T13:16:07Z</time>
      </trkpt>
      <trkpt lat="46.07367" lon="6.51429">
        <ele>462</ele>
        <time>2016-03-26T13:16:14Z</time>
      </trkpt>
      <trkpt lat="46.07364" lon="6.514">
        <ele>462</ele>
        <time>2016-03-26T13:16:22Z</time>
      </trkpt>
      <trkpt lat="46.07362" lon="6.51369">
        <ele>461.647491</ele>
        <time>2016-03-26T13:16:29Z</time>
      </trkpt>
      <trkpt lat="46.0736" lon="6.51342">
        <ele>461.231262</ele>
        <time>2016-03-26T13:16:38Z</time>
      </trkpt>
      <trkpt lat="46.07352" lon="6.51315">
        <ele>461</ele>
        <time>2016-03-26T13:16:47Z</time>
      </trkpt>
      <trkpt lat="46.07352" lon="6.51284">
        <ele>461</ele>
        <time>2016-03-26T13:16:56Z</time>
      </trkpt>
      <trkpt lat="46.07346" lon="6.51257">
        <ele>461</ele>
        <time>2016-03-26T13:17:03Z</time>
      </trkpt>
      <trkpt lat="46.07338" lon="6.51229">
        <ele>461</ele>
        <time>2016-03-26T13:17:08Z</time>
      </trkpt>
      <trkpt lat="46.07334" lon="6.51201">
        <ele>461</ele>
        <time>2016-03-26T13:17:14Z</time>
      </trkpt>
      <trkpt lat="46.0732" lon="6.51174">
        <ele>460.924988</ele>
        <time>2016-03-26T13:17:20Z</time>
      </trkpt>
      <trkpt lat="46.07309" lon="6.5115">
        <ele>460.660004</ele>
        <time>2016-03-26T13:17:25Z</time>
      </trkpt>
      <trkpt lat="46.07298" lon="6.51124">
        <ele>460.420349</ele>
        <time>2016-03-26T13:17:31Z</time>
      </trkpt>
      <trkpt lat="46.07284" lon="6.51098">
        <ele>460.475952</ele>
        <time>2016-03-26T13:17:37Z</time>
      </trkpt>
      <trkpt lat="46.07274" lon="6.51072">
        <ele>460.673187</ele>
        <time>2016-03-26T13:17:42Z</time>
      </trkpt>
      <trkpt lat="46.07273" lon="6.51042">
        <ele>460.76001</ele>
        <time>2016-03-26T13:17:47Z</time>
      </trkpt>
      <trkpt lat="46.07277" lon="6.51015">
        <ele>460.834991</ele>
        <time>2016-03-26T13:17:52Z</time>
      </trkpt>
      <trkpt lat="46.07281" lon="6.50985">
        <ele>460.894989</ele>
        <time>2016-03-26T13:17:57Z</time>
      </trkpt>
      <trkpt lat="46.07273" lon="6.5096">
        <ele>460.690002</ele>
        <time>2016-03-26T13:18:02Z</time>
      </trkpt>
      <trkpt lat="46.07266" lon="6.5093">
        <ele>460.505005</ele>
        <time>2016-03-26T13:18:08Z</time>
      </trkpt>
      <trkpt lat="46.07263" lon="6.50902">
        <ele>460.420013</ele>
        <time>2016-03-26T13:18:13Z</time>
      </trkpt>
      <trkpt lat="46.07266" lon="6.50872">
        <ele>460.459991</ele>
        <time>2016-03-26T13:18:18Z</time>
      </trkpt>
      <trkpt lat="46.07268" lon="6.50842">
        <ele>460.48999</ele>
        <time>2016-03-26T13:18:24Z</time>
      </trkpt>
      <trkpt lat="46.07272" lon="6.50814">
        <ele>460.559998</ele>
        <time>2016-03-26T13:18:29Z</time>
      </trkpt>
      <trkpt lat="46.07272" lon="6.50786">
        <ele>460.535004</ele>
        <time>2016-03-26T13:18:34Z</time>
      </trkpt>
      <trkpt lat="46.07262" lon="6.50754">
        <ele>460.290009</ele>
        <time>2016-03-26T13:18:40Z</time>
      </trkpt>
      <trkpt lat="46.07264" lon="6.50725">
        <ele>460.304993</ele>
        <time>2016-03-26T13:18:45Z</time>
      </trkpt>
      <trkpt lat="46.07265" lon="6.50694">
        <ele>460.309998</ele>
        <time>2016-03-26T13:18:50Z</time>
      </trkpt>
      <trkpt lat="46.07269" lon="6.50665">
        <ele>460.315063</ele>
        <time>2016-03-26T13:18:55Z</time>
      </trkpt>
      <trkpt lat="46.07274" lon="6.50637">
        <ele>460.194702</ele>
        <time>2016-03-26T13:19:00Z</time>
      </trkpt>
      <trkpt lat="46.07285" lon="6.5061">
        <ele>460.005951</ele>
        <time>2016-03-26T13:19:06Z</time>
      </trkpt>
      <trkpt lat="46.07302" lon="6.5059">
        <ele>460.024994</ele>
        <time>2016-03-26T13:19:14Z</time>
      </trkpt>
      <trkpt lat="46.07305" lon="6.50551">
        <ele>460.059998</ele>
        <time>2016-03-26T13:19:21Z</time>
      </trkpt>
      <trkpt lat="46.07317" lon="6.50527">
        <ele>460.315002</ele>
        <time>2016-03-26T13:19:27Z</time>
      </trkpt>
      <trkpt lat="46.07321" lon="6.50495">
        <ele>460.380005</ele>
        <time>2016-03-26T13:19:34Z</time>
      </trkpt>
      <trkpt lat="46.07311" lon="6.50464">
        <ele>460.373596</ele>
        <time>2016-03-26T13:19:40Z</time>
      </trkpt>
      <trkpt lat="46.07308" lon="6.50431">
        <ele>460.792542</ele>
        <time>2016-03-26T13:19:47Z</time>
      </trkpt>
      <trkpt lat="46.07302" lon="6.504">
        <ele>461.116943</ele>
        <time>2016-03-26T13:19:53Z</time>
      </trkpt>
      <trkpt lat="46.07303" lon="6.50374">
        <ele>461.477386</ele>
        <time>2016-03-26T13:19:58Z</time>
      </trkpt>
      <trkpt lat="46.07304" lon="6.50344">
        <ele>461.75</ele>
        <time>2016-03-26T13:20:04Z</time>
      </trkpt>
      <trkpt lat="46.07309" lon="6.50317">
        <ele>461.950012</ele>
        <time>2016-03-26T13:20:10Z</time>
      </trkpt>
      <trkpt lat="46.07322" lon="6.50293">
        <ele>462</ele>
        <time>2016-03-26T13:20:16Z</time>
      </trkpt>
      <trkpt lat="46.07325" lon="6.5026">
        <ele>462</ele>
        <time>2016-03-26T13:20:22Z</time>
      </trkpt>
      <trkpt lat="46.0733" lon="6.50232">
        <ele>462</ele>
        <time>2016-03-26T13:20:27Z</time>
      </trkpt>
      <trkpt lat="46.07338" lon="6.50204">
        <ele>462</ele>
        <time>2016-03-26T13:20:32Z</time>
      </trkpt>
      <trkpt lat="46.07344" lon="6.50174">
        <ele>462</ele>
        <time>2016-03-26T13:20:37Z</time>
      </trkpt>
      <trkpt lat="46.07358" lon="6.50157">
        <ele>461.994904</ele>
        <time>2016-03-26T13:20:43Z</time>
      </trkpt>
      <trkpt lat="46.0736" lon="6.50128">
        <ele>461.971344</ele>
        <time>2016-03-26T13:20:49Z</time>
      </trkpt>
      <trkpt lat="46.07362" lon="6.50096">
        <ele>461.950012</ele>
        <time>2016-03-26T13:20:55Z</time>
      </trkpt>
      <trkpt lat="46.07372" lon="6.50073">
        <ele>461.891937</ele>
        <time>2016-03-26T13:21:00Z</time>
      </trkpt>
      <trkpt lat="46.07381" lon="6.50046">
        <ele>461.93219</ele>
        <time>2016-03-26T13:21:05Z</time>
      </trkpt>
      <trkpt lat="46.07372" lon="6.50017">
        <ele>462</ele>
        <time>2016-03-26T13:21:10Z</time>
      </trkpt>
      <trkpt lat="46.07365" lon="6.49988">
        <ele>461.950012</ele>
        <time>2016-03-26T13:21:15Z</time>
      </trkpt>
      <trkpt lat="46.07357" lon="6.49964">
        <ele>461.753662</ele>
        <time>2016-03-26T13:21:19Z</time>
      </trkpt>
      <trkpt lat="46.07347" lon="6.49941">
        <ele>461.695618</ele>
        <time>2016-03-26T13:21:23Z</time>
      </trkpt>
      <trkpt lat="46.07329" lon="6.49923">
        <ele>461.688904</ele>
        <time>2016-03-26T13:21:28Z</time>
      </trkpt>
      <trkpt lat="46.07312" lon="6.49911">
        <ele>461.569611</ele>
        <time>2016-03-26T13:21:32Z</time>
      </trkpt>
      <trkpt lat="46.07291" lon="6.49904">
        <ele>461.209015</ele>
        <time>2016-03-26T13:21:37Z</time>
      </trkpt>
      <trkpt lat="46.07271" lon="6.49907">
        <ele>460.818787</ele>
        <time>2016-03-26T13:21:42Z</time>
      </trkpt>
      <trkpt lat="46.07255" lon="6.49897">
        <ele>460.447296</ele>
        <time>2016-03-26T13:21:48Z</time>
      </trkpt>
      <trkpt lat="46.07249" lon="6.49871">
        <ele>460.526398</ele>
        <time>2016-03-26T13:21:53Z</time>
      </trkpt>
      <trkpt lat="46.07241" lon="6.49845">
        <ele>460.776855</ele>
        <time>2016-03-26T13:21:58Z</time>
      </trkpt>
      <trkpt lat="46.07233" lon="6.49816">
        <ele>461</ele>
        <time>2016-03-26T13:22:04Z</time>
      </trkpt>
      <trkpt lat="46.07224" lon="6.4979">
        <ele>461</ele>
        <time>2016-03-26T13:22:09Z</time>
      </trkpt>
      <trkpt lat="46.07229" lon="6.49764">
        <ele>461</ele>
        <time>2016-03-26T13:22:14Z</time>
      </trkpt>
      <trkpt lat="46.07239" lon="6.49739">
        <ele>461</ele>
        <time>2016-03-26T13:22:19Z</time>
      </trkpt>
      <trkpt lat="46.0725" lon="6.49711">
        <ele>461</ele>
        <time>2016-03-26T13:22:24Z</time>
      </trkpt>
      <trkpt lat="46.07262" lon="6.49685">
        <ele>461.101501</ele>
        <time>2016-03-26T13:22:29Z</time>
      </trkpt>
      <trkpt lat="46.07272" lon="6.49659">
        <ele>461.404114</ele>
        <time>2016-03-26T13:22:34Z</time>
      </trkpt>
      <trkpt lat="46.07281" lon="6.49635">
        <ele>461.790009</ele>
        <time>2016-03-26T13:22:39Z</time>
      </trkpt>
      <trkpt lat="46.07287" lon="6.4961">
        <ele>461.899994</ele>
        <time>2016-03-26T13:22:44Z</time>
      </trkpt>
      <trkpt lat="46.07269" lon="6.49613">
        <ele>461.505005</ele>
        <time>2016-03-26T13:22:51Z</time>
      </trkpt>
      <trkpt lat="46.07249" lon="6.49613">
        <ele>461.054993</ele>
        <time>2016-03-26T13:22:56Z</time>
      </trkpt>
      <trkpt lat="46.07226" lon="6.49615">
        <ele>461</ele>
        <time>2016-03-26T13:23:01Z</time>
      </trkpt>
      <trkpt lat="46.07207" lon="6.49613">
        <ele>461</ele>
        <time>2016-03-26T13:23:05Z</time>
      </trkpt>
      <trkpt lat="46.07189" lon="6.49613">
        <ele>461</ele>
        <time>2016-03-26T13:23:09Z</time>
      </trkpt>
      <trkpt lat="46.0717" lon="6.49613">
        <ele>461</ele>
        <time>2016-03-26T13:23:13Z</time>
      </trkpt>
      <trkpt lat="46.07151" lon="6.49614">
        <ele>461</ele>
        <time>2016-03-26T13:23:17Z</time>
      </trkpt>
      <trkpt lat="46.0713" lon="6.49615">
        <ele>461</ele>
        <time>2016-03-26T13:23:21Z</time>
      </trkpt>
      <trkpt lat="46.0711" lon="6.49622">
        <ele>461</ele>
        <time>2016-03-26T13:23:25Z</time>
      </trkpt>
      <trkpt lat="46.07094" lon="6.49641">
        <ele>460.898712</ele>
        <time>2016-03-26T13:23:29Z</time>
      </trkpt>
      <trkpt lat="46.07083" lon="6.49663">
        <ele>460.639893</ele>
        <time>2016-03-26T13:23:33Z</time>
      </trkpt>
      <trkpt lat="46.07069" lon="6.49684">
        <ele>460.169159</ele>
        <time>2016-03-26T13:23:38Z</time>
      </trkpt>
      <trkpt lat="46.07048" lon="6.49693">
        <ele>460.04126</ele>
        <time>2016-03-26T13:23:43Z</time>
      </trkpt>
      <trkpt lat="46.0703" lon="6.49701">
        <ele>460.195679</ele>
        <time>2016-03-26T13:23:47Z</time>
      </trkpt>
      <trkpt lat="46.07009" lon="6.49709">
        <ele>460.598755</ele>
        <time>2016-03-26T13:23:51Z</time>
      </trkpt>
      <trkpt lat="46.06989" lon="6.49715">
        <ele>461.158752</ele>
        <time>2016-03-26T13:23:55Z</time>
      </trkpt>
      <trkpt lat="46.0697" lon="6.49713">
        <ele>461.523743</ele>
        <time>2016-03-26T13:23:59Z</time>
      </trkpt>
      <trkpt lat="46.06953" lon="6.49707">
        <ele>461.44751</ele>
        <time>2016-03-26T13:24:03Z</time>
      </trkpt>
      <trkpt lat="46.06933" lon="6.49696">
        <ele>461.3125</ele>
        <time>2016-03-26T13:24:08Z</time>
      </trkpt>
      <trkpt lat="46.06915" lon="6.49687">
        <ele>460.938873</ele>
        <time>2016-03-26T13:24:13Z</time>
      </trkpt>
      <trkpt lat="46.06895" lon="6.49676">
        <ele>460.33313</ele>
        <time>2016-03-26T13:24:18Z</time>
      </trkpt>
      <trkpt lat="46.06877" lon="6.49667">
        <ele>460.307007</ele>
        <time>2016-03-26T13:24:22Z</time>
      </trkpt>
      <trkpt lat="46.06858" lon="6.49656">
        <ele>461.04129</ele>
        <time>2016-03-26T13:24:26Z</time>
      </trkpt>
      <trkpt lat="46.06839" lon="6.49647">
        <ele>461.717102</ele>
        <time>2016-03-26T13:24:30Z</time>
      </trkpt>
      <trkpt lat="46.0682" lon="6.49638">
        <ele>466.330811</ele>
        <time>2016-03-26T13:24:34Z</time>
      </trkpt>
      <trkpt lat="46.06803" lon="6.49636">
        <ele>470.532623</ele>
        <time>2016-03-26T13:24:38Z</time>
      </trkpt>
      <trkpt lat="46.06792" lon="6.4966">
        <ele>477.114288</ele>
        <time>2016-03-26T13:24:43Z</time>
      </trkpt>
      <trkpt lat="46.06783" lon="6.49635">
        <ele>478.206543</ele>
        <time>2016-03-26T13:24:51Z</time>
      </trkpt>
      <trkpt lat="46.06776" lon="6.49607">
        <ele>477.864197</ele>
        <time>2016-03-26T13:24:58Z</time>
      </trkpt>
      <trkpt lat="46.06769" lon="6.49579">
        <ele>477.163452</ele>
        <time>2016-03-26T13:25:04Z</time>
      </trkpt>
      <trkpt lat="46.06762" lon="6.49551">
        <ele>474.878754</ele>
        <time>2016-03-26T13:25:10Z</time>
      </trkpt>
      <trkpt lat="46.06756" lon="6.49521">
        <ele>472.226685</ele>
        <time>2016-03-26T13:25:16Z</time>
      </trkpt>
      <trkpt lat="46.06751" lon="6.49489">
        <ele>471.55249</ele>
        <time>2016-03-26T13:25:22Z</time>
      </trkpt>
      <trkpt lat="46.06748" lon="6.49462">
        <ele>471.189453</ele>
        <time>2016-03-26T13:25:27Z</time>
      </trkpt>
      <trkpt lat="46.06741" lon="6.49435">
        <ele>472.563293</ele>
        <time>2016-03-26T13:25:32Z</time>
      </trkpt>
      <trkpt lat="46.06724" lon="6.49422">
        <ele>474.723206</ele>
        <time>2016-03-26T13:25:38Z</time>
      </trkpt>
      <trkpt lat="46.06704" lon="6.49426">
        <ele>477.280243</ele>
        <time>2016-03-26T13:25:47Z</time>
      </trkpt>
      <trkpt lat="46.0669" lon="6.49413">
        <ele>479.202667</ele>
        <time>2016-03-26T13:25:57Z</time>
      </trkpt>
      <trkpt lat="46.06672" lon="6.49407">
        <ele>481.652252</ele>
        <time>2016-03-26T13:26:04Z</time>
      </trkpt>
      <trkpt lat="46.06664" lon="6.49381">
        <ele>482.69104</ele>
        <time>2016-03-26T13:26:11Z</time>
      </trkpt>
      <trkpt lat="46.0667" lon="6.49353">
        <ele>481.97345</ele>
        <time>2016-03-26T13:26:16Z</time>
      </trkpt>
      <trkpt lat="46.06674" lon="6.49323">
        <ele>481.472107</ele>
        <time>2016-03-26T13:26:20Z</time>
      </trkpt>
      <trkpt lat="46.06666" lon="6.49291">
        <ele>481.324615</ele>
        <time>2016-03-26T13:26:24Z</time>
      </trkpt>
      <trkpt lat="46.06655" lon="6.49268">
        <ele>481.706268</ele>
        <time>2016-03-26T13:26:27Z</time>
      </trkpt>
      <trkpt lat="46.06643" lon="6.49246">
        <ele>481.90094</ele>
        <time>2016-03-26T13:26:30Z</time>
      </trkpt>
      <trkpt lat="46.06632" lon="6.49224">
        <ele>481.90625</ele>
        <time>2016-03-26T13:26:33Z</time>
      </trkpt>
      <trkpt lat="46.0662" lon="6.49197">
        <ele>481.627808</ele>
        <time>2016-03-26T13:26:37Z</time>
      </trkpt>
      <trkpt lat="46.06608" lon="6.4917">
        <ele>480.586914</ele>
        <time>2016-03-26T13:26:42Z</time>
      </trkpt>
      <trkpt lat="46.06599" lon="6.49147">
        <ele>479.573944</ele>
        <time>2016-03-26T13:26:46Z</time>
      </trkpt>
      <trkpt lat="46.06588" lon="6.49125">
        <ele>478.592743</ele>
        <time>2016-03-26T13:26:51Z</time>
      </trkpt>
      <trkpt lat="46.06574" lon="6.49105">
        <ele>480.003662</ele>
        <time>2016-03-26T13:26:56Z</time>
      </trkpt>
      <trkpt lat="46.06564" lon="6.49076">
        <ele>480.186218</ele>
        <time>2016-03-26T13:27:01Z</time>
      </trkpt>
      <trkpt lat="46.06559" lon="6.49049">
        <ele>479.539612</ele>
        <time>2016-03-26T13:27:05Z</time>
      </trkpt>
      <trkpt lat="46.06553" lon="6.49024">
        <ele>478.919434</ele>
        <time>2016-03-26T13:27:09Z</time>
      </trkpt>
      <trkpt lat="46.06548" lon="6.48995">
        <ele>478.256989</ele>
        <time>2016-03-26T13:27:14Z</time>
      </trkpt>
      <trkpt lat="46.06546" lon="6.48964">
        <ele>479.012787</ele>
        <time>2016-03-26T13:27:19Z</time>
      </trkpt>
      <trkpt lat="46.06546" lon="6.48935">
        <ele>479.045227</ele>
        <time>2016-03-26T13:27:24Z</time>
      </trkpt>
      <trkpt lat="46.06549" lon="6.48905">
        <ele>478.163818</ele>
        <time>2016-03-26T13:27:30Z</time>
      </trkpt>
      <trkpt lat="46.06551" lon="6.48876">
        <ele>477.496307</ele>
        <time>2016-03-26T13:27:37Z</time>
      </trkpt>
      <trkpt lat="46.06549" lon="6.48847">
        <ele>477.802856</ele>
        <time>2016-03-26T13:27:44Z</time>
      </trkpt>
      <trkpt lat="46.06549" lon="6.48819">
        <ele>477.972504</ele>
        <time>2016-03-26T13:27:51Z</time>
      </trkpt>
      <trkpt lat="46.06543" lon="6.48791">
        <ele>479.029999</ele>
        <time>2016-03-26T13:27:58Z</time>
      </trkpt>
      <trkpt lat="46.06539" lon="6.48765">
        <ele>479.799988</ele>
        <time>2016-03-26T13:28:04Z</time>
      </trkpt>
      <trkpt lat="46.06541" lon="6.48735">
        <ele>479.929993</ele>
        <time>2016-03-26T13:28:10Z</time>
      </trkpt>
      <trkpt lat="46.06546" lon="6.4871">
        <ele>480.431244</ele>
        <time>2016-03-26T13:28:16Z</time>
      </trkpt>
      <trkpt lat="46.06552" lon="6.48682">
        <ele>480.931244</ele>
        <time>2016-03-26T13:28:23Z</time>
      </trkpt>
      <trkpt lat="46.06559" lon="6.48653">
        <ele>481.774994</ele>
        <time>2016-03-26T13:28:30Z</time>
      </trkpt>
      <trkpt lat="46.06565" lon="6.48627">
        <ele>482.61499</ele>
        <time>2016-03-26T13:28:36Z</time>
      </trkpt>
      <trkpt lat="46.0657" lon="6.48601">
        <ele>483.563721</ele>
        <time>2016-03-26T13:28:42Z</time>
      </trkpt>
      <trkpt lat="46.06576" lon="6.48574">
        <ele>484.615601</ele>
        <time>2016-03-26T13:28:47Z</time>
      </trkpt>
      <trkpt lat="46.06582" lon="6.48543">
        <ele>485.63797</ele>
        <time>2016-03-26T13:28:52Z</time>
      </trkpt>
      <trkpt lat="46.06587" lon="6.48516">
        <ele>485.055695</ele>
        <time>2016-03-26T13:28:56Z</time>
      </trkpt>
      <trkpt lat="46.06591" lon="6.48484">
        <ele>484.867493</ele>
        <time>2016-03-26T13:29:01Z</time>
      </trkpt>
      <trkpt lat="46.066" lon="6.48457">
        <ele>484.248749</ele>
        <time>2016-03-26T13:29:06Z</time>
      </trkpt>
      <trkpt lat="46.06607" lon="6.48433">
        <ele>483.783752</ele>
        <time>2016-03-26T13:29:10Z</time>
      </trkpt>
      <trkpt lat="46.06615" lon="6.48407">
        <ele>483.028839</ele>
        <time>2016-03-26T13:29:14Z</time>
      </trkpt>
      <trkpt lat="46.06622" lon="6.4838">
        <ele>482.299988</ele>
        <time>2016-03-26T13:29:18Z</time>
      </trkpt>
      <trkpt lat="46.06628" lon="6.48348">
        <ele>481.655151</ele>
        <time>2016-03-26T13:29:22Z</time>
      </trkpt>
      <trkpt lat="46.06632" lon="6.48322">
        <ele>481.031982</ele>
        <time>2016-03-26T13:29:25Z</time>
      </trkpt>
      <trkpt lat="46.06637" lon="6.48296">
        <ele>480.413483</ele>
        <time>2016-03-26T13:29:28Z</time>
      </trkpt>
      <trkpt lat="46.06641" lon="6.48262">
        <ele>479.172485</ele>
        <time>2016-03-26T13:29:32Z</time>
      </trkpt>
      <trkpt lat="46.06643" lon="6.48235">
        <ele>478.242493</ele>
        <time>2016-03-26T13:29:35Z</time>
      </trkpt>
      <trkpt lat="46.06645" lon="6.48205">
        <ele>477.255219</ele>
        <time>2016-03-26T13:29:38Z</time>
      </trkpt>
      <trkpt lat="46.06647" lon="6.48174">
        <ele>476.167358</ele>
        <time>2016-03-26T13:29:41Z</time>
      </trkpt>
      <trkpt lat="46.06649" lon="6.48139">
        <ele>473.938232</ele>
        <time>2016-03-26T13:29:44Z</time>
      </trkpt>
      <trkpt lat="46.06651" lon="6.48102">
        <ele>471.475861</ele>
        <time>2016-03-26T13:29:47Z</time>
      </trkpt>
      <trkpt lat="46.06653" lon="6.48067">
        <ele>470.034515</ele>
        <time>2016-03-26T13:29:50Z</time>
      </trkpt>
      <trkpt lat="46.06655" lon="6.48039">
        <ele>468.90741</ele>
        <time>2016-03-26T13:29:53Z</time>
      </trkpt>
      <trkpt lat="46.06646" lon="6.48021">
        <ele>468.315002</ele>
        <time>2016-03-26T13:29:57Z</time>
      </trkpt>
      <trkpt lat="46.06626" lon="6.48025">
        <ele>469.734406</ele>
        <time>2016-03-26T13:30:04Z</time>
      </trkpt>
      <trkpt lat="46.06606" lon="6.48026">
        <ele>471.978973</ele>
        <time>2016-03-26T13:30:10Z</time>
      </trkpt>
      <trkpt lat="46.06584" lon="6.4802">
        <ele>474.077057</ele>
        <time>2016-03-26T13:30:16Z</time>
      </trkpt>
      <trkpt lat="46.06567" lon="6.48005">
        <ele>479.362549</ele>
        <time>2016-03-26T13:30:21Z</time>
      </trkpt>
      <trkpt lat="46.06562" lon="6.47978">
        <ele>477.759186</ele>
        <time>2016-03-26T13:30:25Z</time>
      </trkpt>
      <trkpt lat="46.06559" lon="6.47944">
        <ele>474.583496</ele>
        <time>2016-03-26T13:30:29Z</time>
      </trkpt>
      <trkpt lat="46.0656" lon="6.47914">
        <ele>471.139374</ele>
        <time>2016-03-26T13:30:32Z</time>
      </trkpt>
      <trkpt lat="46.06557" lon="6.47881">
        <ele>470.642334</ele>
        <time>2016-03-26T13:30:35Z</time>
      </trkpt>
      <trkpt lat="46.06553" lon="6.47849">
        <ele>472.611237</ele>
        <time>2016-03-26T13:30:38Z</time>
      </trkpt>
      <trkpt lat="46.06548" lon="6.4782">
        <ele>473.234497</ele>
        <time>2016-03-26T13:30:41Z</time>
      </trkpt>
      <trkpt lat="46.06544" lon="6.47792">
        <ele>474.141907</ele>
        <time>2016-03-26T13:30:44Z</time>
      </trkpt>
      <trkpt lat="46.06542" lon="6.47765">
        <ele>473.296509</ele>
        <time>2016-03-26T13:30:47Z</time>
      </trkpt>
      <trkpt lat="46.06544" lon="6.47737">
        <ele>469.371796</ele>
        <time>2016-03-26T13:30:50Z</time>
      </trkpt>
      <trkpt lat="46.06543" lon="6.47708">
        <ele>466.823792</ele>
        <time>2016-03-26T13:30:53Z</time>
      </trkpt>
      <trkpt lat="46.06537" lon="6.4768">
        <ele>469.248047</ele>
        <time>2016-03-26T13:30:57Z</time>
      </trkpt>
      <trkpt lat="46.06535" lon="6.47654">
        <ele>468.606079</ele>
        <time>2016-03-26T13:31:02Z</time>
      </trkpt>
      <trkpt lat="46.0653" lon="6.47627">
        <ele>469.318634</ele>
        <time>2016-03-26T13:31:08Z</time>
      </trkpt>
      <trkpt lat="46.06525" lon="6.47598">
        <ele>469.776337</ele>
        <time>2016-03-26T13:31:13Z</time>
      </trkpt>
      <trkpt lat="46.06522" lon="6.4757">
        <ele>469.030029</ele>
        <time>2016-03-26T13:31:18Z</time>
      </trkpt>
      <trkpt lat="46.06521" lon="6.47542">
        <ele>468.485626</ele>
        <time>2016-03-26T13:31:22Z</time>
      </trkpt>
      <trkpt lat="46.0652" lon="6.47512">
        <ele>467.611786</ele>
        <time>2016-03-26T13:31:26Z</time>
      </trkpt>
      <trkpt lat="46.06518" lon="6.4748">
        <ele>466.566406</ele>
        <time>2016-03-26T13:31:30Z</time>
      </trkpt>
      <trkpt lat="46.06515" lon="6.47447">
        <ele>465.587555</ele>
        <time>2016-03-26T13:31:34Z</time>
      </trkpt>
      <trkpt lat="46.06514" lon="6.47415">
        <ele>464.605499</ele>
        <time>2016-03-26T13:31:38Z</time>
      </trkpt>
      <trkpt lat="46.06514" lon="6.47385">
        <ele>463.363922</ele>
        <time>2016-03-26T13:31:42Z</time>
      </trkpt>
      <trkpt lat="46.06518" lon="6.47356">
        <ele>459.638763</ele>
        <time>2016-03-26T13:31:45Z</time>
      </trkpt>
      <trkpt lat="46.0652" lon="6.47327">
        <ele>459.162292</ele>
        <time>2016-03-26T13:31:48Z</time>
      </trkpt>
      <trkpt lat="46.0652" lon="6.47297">
        <ele>459.818665</ele>
        <time>2016-03-26T13:31:52Z</time>
      </trkpt>
      <trkpt lat="46.06518" lon="6.47269">
        <ele>461.868988</ele>
        <time>2016-03-26T13:31:56Z</time>
      </trkpt>
      <trkpt lat="46.06509" lon="6.47244">
        <ele>466.315247</ele>
        <time>2016-03-26T13:32:00Z</time>
      </trkpt>
      <trkpt lat="46.06519" lon="6.47231">
        <ele>461.479065</ele>
        <time>2016-03-26T13:32:07Z</time>
      </trkpt>
      <trkpt lat="46.0654" lon="6.47224">
        <ele>458.976501</ele>
        <time>2016-03-26T13:32:12Z</time>
      </trkpt>
      <trkpt lat="46.06559" lon="6.47221">
        <ele>458.307251</ele>
        <time>2016-03-26T13:32:16Z</time>
      </trkpt>
      <trkpt lat="46.06579" lon="6.47218">
        <ele>458</ele>
        <time>2016-03-26T13:32:20Z</time>
      </trkpt>
      <trkpt lat="46.06603" lon="6.47216">
        <ele>458</ele>
        <time>2016-03-26T13:32:25Z</time>
      </trkpt>
      <trkpt lat="46.06625" lon="6.47209">
        <ele>457.817902</ele>
        <time>2016-03-26T13:32:31Z</time>
      </trkpt>
      <trkpt lat="46.06636" lon="6.47182">
        <ele>457.427979</ele>
        <time>2016-03-26T13:32:37Z</time>
      </trkpt>
      <trkpt lat="46.06654" lon="6.47173">
        <ele>457.087402</ele>
        <time>2016-03-26T13:32:42Z</time>
      </trkpt>
      <trkpt lat="46.06675" lon="6.47176">
        <ele>457</ele>
        <time>2016-03-26T13:32:47Z</time>
      </trkpt>
      <trkpt lat="46.06691" lon="6.4719">
        <ele>457</ele>
        <time>2016-03-26T13:32:53Z</time>
      </trkpt>
      <trkpt lat="46.06701" lon="6.47212">
        <ele>457.014252</ele>
        <time>2016-03-26T13:33:03Z</time>
      </trkpt>
      <trkpt lat="46.0672" lon="6.4722">
        <ele>457</ele>
        <time>2016-03-26T13:33:08Z</time>
      </trkpt>
      <trkpt lat="46.0674" lon="6.47207">
        <ele>457</ele>
        <time>2016-03-26T13:33:12Z</time>
      </trkpt>
      <trkpt lat="46.06762" lon="6.4721">
        <ele>456.74765</ele>
        <time>2016-03-26T13:33:16Z</time>
      </trkpt>
      <trkpt lat="46.06783" lon="6.47218">
        <ele>456.388214</ele>
        <time>2016-03-26T13:33:20Z</time>
      </trkpt>
      <trkpt lat="46.06819" lon="6.47229">
        <ele>456.326263</ele>
        <time>2016-03-26T13:33:24Z</time>
      </trkpt>
      <trkpt lat="46.06818" lon="6.47241">
        <ele>456.501251</ele>
        <time>2016-03-26T13:35:01Z</time>
      </trkpt>
      <trkpt lat="46.06831" lon="6.47263">
        <ele>456.838745</ele>
        <time>2016-03-26T13:35:05Z</time>
      </trkpt>
      <trkpt lat="46.06829" lon="6.47293">
        <ele>457</ele>
        <time>2016-03-26T13:35:09Z</time>
      </trkpt>
      <trkpt lat="46.06831" lon="6.47323">
        <ele>457</ele>
        <time>2016-03-26T13:35:13Z</time>
      </trkpt>
      <trkpt lat="46.06841" lon="6.47351">
        <ele>457.157501</ele>
        <time>2016-03-26T13:35:17Z</time>
      </trkpt>
      <trkpt lat="46.06841" lon="6.47385">
        <ele>457.580597</ele>
        <time>2016-03-26T13:35:21Z</time>
      </trkpt>
      <trkpt lat="46.06839" lon="6.47419">
        <ele>457.845001</ele>
        <time>2016-03-26T13:35:25Z</time>
      </trkpt>
      <trkpt lat="46.06834" lon="6.4745">
        <ele>457.920013</ele>
        <time>2016-03-26T13:35:29Z</time>
      </trkpt>
      <trkpt lat="46.06819" lon="6.47473">
        <ele>458</ele>
        <time>2016-03-26T13:35:33Z</time>
      </trkpt>
      <trkpt lat="46.06806" lon="6.47499">
        <ele>458</ele>
        <time>2016-03-26T13:35:37Z</time>
      </trkpt>
      <trkpt lat="46.06803" lon="6.47532">
        <ele>458</ele>
        <time>2016-03-26T13:35:41Z</time>
      </trkpt>
      <trkpt lat="46.06803" lon="6.47558">
        <ele>458</ele>
        <time>2016-03-26T13:35:44Z</time>
      </trkpt>
      <trkpt lat="46.06803" lon="6.4759">
        <ele>458</ele>
        <time>2016-03-26T13:35:48Z</time>
      </trkpt>
      <trkpt lat="46.06806" lon="6.47616">
        <ele>458</ele>
        <time>2016-03-26T13:35:52Z</time>
      </trkpt>
      <trkpt lat="46.06825" lon="6.47622">
        <ele>457.984985</ele>
        <time>2016-03-26T13:35:56Z</time>
      </trkpt>
      <trkpt lat="46.06845" lon="6.47625">
        <ele>457.540009</ele>
        <time>2016-03-26T13:36:00Z</time>
      </trkpt>
      <trkpt lat="46.06864" lon="6.47626">
        <ele>457.105011</ele>
        <time>2016-03-26T13:36:04Z</time>
      </trkpt>
      <trkpt lat="46.06882" lon="6.4763">
        <ele>457</ele>
        <time>2016-03-26T13:36:08Z</time>
      </trkpt>
      <trkpt lat="46.06904" lon="6.47635">
        <ele>457</ele>
        <time>2016-03-26T13:36:13Z</time>
      </trkpt>
      <trkpt lat="46.06925" lon="6.47643">
        <ele>457.147827</ele>
        <time>2016-03-26T13:36:18Z</time>
      </trkpt>
      <trkpt lat="46.06945" lon="6.47651">
        <ele>457.499512</ele>
        <time>2016-03-26T13:36:23Z</time>
      </trkpt>
      <trkpt lat="46.06966" lon="6.4766">
        <ele>457.952454</ele>
        <time>2016-03-26T13:36:28Z</time>
      </trkpt>
      <trkpt lat="46.06986" lon="6.4767">
        <ele>458.522003</ele>
        <time>2016-03-26T13:36:32Z</time>
      </trkpt>
      <trkpt lat="46.07006" lon="6.4768">
        <ele>459.006104</ele>
        <time>2016-03-26T13:36:36Z</time>
      </trkpt>
      <trkpt lat="46.07027" lon="6.47692">
        <ele>459.125824</ele>
        <time>2016-03-26T13:36:40Z</time>
      </trkpt>
      <trkpt lat="46.07049" lon="6.47695">
        <ele>459.160339</ele>
        <time>2016-03-26T13:36:44Z</time>
      </trkpt>
      <trkpt lat="46.07061" lon="6.47674">
        <ele>458.177765</ele>
        <time>2016-03-26T13:36:47Z</time>
      </trkpt>
      <trkpt lat="46.07068" lon="6.47648">
        <ele>456.84848</ele>
        <time>2016-03-26T13:36:50Z</time>
      </trkpt>
      <trkpt lat="46.07072" lon="6.4762">
        <ele>455.659363</ele>
        <time>2016-03-26T13:36:53Z</time>
      </trkpt>
      <trkpt lat="46.07075" lon="6.47592">
        <ele>455.294128</ele>
        <time>2016-03-26T13:36:56Z</time>
      </trkpt>
      <trkpt lat="46.07078" lon="6.47557">
        <ele>455.035889</ele>
        <time>2016-03-26T13:37:00Z</time>
      </trkpt>
      <trkpt lat="46.07081" lon="6.47526">
        <ele>455</ele>
        <time>2016-03-26T13:37:04Z</time>
      </trkpt>
      <trkpt lat="46.07082" lon="6.47496">
        <ele>455</ele>
        <time>2016-03-26T13:37:09Z</time>
      </trkpt>
      <trkpt lat="46.07085" lon="6.47467">
        <ele>455</ele>
        <time>2016-03-26T13:37:14Z</time>
      </trkpt>
      <trkpt lat="46.07087" lon="6.47437">
        <ele>455</ele>
        <time>2016-03-26T13:37:19Z</time>
      </trkpt>
      <trkpt lat="46.0709" lon="6.47405">
        <ele>454.802002</ele>
        <time>2016-03-26T13:37:24Z</time>
      </trkpt>
      <trkpt lat="46.07093" lon="6.47374">
        <ele>454.414886</ele>
        <time>2016-03-26T13:37:29Z</time>
      </trkpt>
      <trkpt lat="46.07097" lon="6.47342">
        <ele>454.174988</ele>
        <time>2016-03-26T13:37:34Z</time>
      </trkpt>
      <trkpt lat="46.07099" lon="6.47315">
        <ele>454.13501</ele>
        <time>2016-03-26T13:37:38Z</time>
      </trkpt>
      <trkpt lat="46.07103" lon="6.47283">
        <ele>454.079987</ele>
        <time>2016-03-26T13:37:43Z</time>
      </trkpt>
      <trkpt lat="46.07107" lon="6.47251">
        <ele>454.024994</ele>
        <time>2016-03-26T13:37:48Z</time>
      </trkpt>
      <trkpt lat="46.0711" lon="6.47224">
        <ele>454.096283</ele>
        <time>2016-03-26T13:37:52Z</time>
      </trkpt>
      <trkpt lat="46.07113" lon="6.47196">
        <ele>454.485291</ele>
        <time>2016-03-26T13:37:56Z</time>
      </trkpt>
      <trkpt lat="46.07115" lon="6.4717">
        <ele>454.849365</ele>
        <time>2016-03-26T13:38:00Z</time>
      </trkpt>
      <trkpt lat="46.07118" lon="6.47143">
        <ele>454.869995</ele>
        <time>2016-03-26T13:38:04Z</time>
      </trkpt>
      <trkpt lat="46.07121" lon="6.47115">
        <ele>454.825012</ele>
        <time>2016-03-26T13:38:08Z</time>
      </trkpt>
      <trkpt lat="46.07124" lon="6.47087">
        <ele>454.765015</ele>
        <time>2016-03-26T13:38:12Z</time>
      </trkpt>
      <trkpt lat="46.07128" lon="6.4706">
        <ele>454.704987</ele>
        <time>2016-03-26T13:38:16Z</time>
      </trkpt>
      <trkpt lat="46.07132" lon="6.47032">
        <ele>454.649994</ele>
        <time>2016-03-26T13:38:20Z</time>
      </trkpt>
      <trkpt lat="46.07134" lon="6.47004">
        <ele>454.625</ele>
        <time>2016-03-26T13:38:24Z</time>
      </trkpt>
      <trkpt lat="46.07135" lon="6.46976">
        <ele>454.61499</ele>
        <time>2016-03-26T13:38:28Z</time>
      </trkpt>
      <trkpt lat="46.07138" lon="6.46948">
        <ele>454.584991</ele>
        <time>2016-03-26T13:38:32Z</time>
      </trkpt>
      <trkpt lat="46.0714" lon="6.46921">
        <ele>454.545013</ele>
        <time>2016-03-26T13:38:36Z</time>
      </trkpt>
      <trkpt lat="46.07144" lon="6.46892">
        <ele>454.358276</ele>
        <time>2016-03-26T13:38:40Z</time>
      </trkpt>
      <trkpt lat="46.07147" lon="6.46864">
        <ele>454.133636</ele>
        <time>2016-03-26T13:38:44Z</time>
      </trkpt>
      <trkpt lat="46.07151" lon="6.46836">
        <ele>453.867493</ele>
        <time>2016-03-26T13:38:48Z</time>
      </trkpt>
      <trkpt lat="46.07153" lon="6.46809">
        <ele>453.438751</ele>
        <time>2016-03-26T13:38:52Z</time>
      </trkpt>
      <trkpt lat="46.07157" lon="6.46781">
        <ele>453.006256</ele>
        <time>2016-03-26T13:38:56Z</time>
      </trkpt>
      <trkpt lat="46.0716" lon="6.46753">
        <ele>453</ele>
        <time>2016-03-26T13:39:00Z</time>
      </trkpt>
      <trkpt lat="46.07162" lon="6.46725">
        <ele>453</ele>
        <time>2016-03-26T13:39:04Z</time>
      </trkpt>
      <trkpt lat="46.07165" lon="6.46697">
        <ele>453</ele>
        <time>2016-03-26T13:39:08Z</time>
      </trkpt>
      <trkpt lat="46.07168" lon="6.46669">
        <ele>453</ele>
        <time>2016-03-26T13:39:12Z</time>
      </trkpt>
      <trkpt lat="46.07171" lon="6.4664">
        <ele>453</ele>
        <time>2016-03-26T13:39:16Z</time>
      </trkpt>
      <trkpt lat="46.07173" lon="6.46612">
        <ele>453</ele>
        <time>2016-03-26T13:39:20Z</time>
      </trkpt>
      <trkpt lat="46.07176" lon="6.46584">
        <ele>453</ele>
        <time>2016-03-26T13:39:24Z</time>
      </trkpt>
      <trkpt lat="46.07179" lon="6.46555">
        <ele>453.009888</ele>
        <time>2016-03-26T13:39:28Z</time>
      </trkpt>
      <trkpt lat="46.07182" lon="6.46526">
        <ele>453.002563</ele>
        <time>2016-03-26T13:39:32Z</time>
      </trkpt>
      <trkpt lat="46.07186" lon="6.46497">
        <ele>452.625</ele>
        <time>2016-03-26T13:39:36Z</time>
      </trkpt>
      <trkpt lat="46.07189" lon="6.46467">
        <ele>452.251343</ele>
        <time>2016-03-26T13:39:40Z</time>
      </trkpt>
      <trkpt lat="46.07192" lon="6.46439">
        <ele>452.200012</ele>
        <time>2016-03-26T13:39:44Z</time>
      </trkpt>
      <trkpt lat="46.07195" lon="6.46407">
        <ele>452.23999</ele>
        <time>2016-03-26T13:39:49Z</time>
      </trkpt>
      <trkpt lat="46.07197" lon="6.4638">
        <ele>452.212799</ele>
        <time>2016-03-26T13:39:53Z</time>
      </trkpt>
      <trkpt lat="46.072" lon="6.46352">
        <ele>452.100403</ele>
        <time>2016-03-26T13:39:57Z</time>
      </trkpt>
      <trkpt lat="46.07203" lon="6.46324">
        <ele>451.931458</ele>
        <time>2016-03-26T13:40:01Z</time>
      </trkpt>
      <trkpt lat="46.07206" lon="6.46297">
        <ele>451.676697</ele>
        <time>2016-03-26T13:40:05Z</time>
      </trkpt>
      <trkpt lat="46.07208" lon="6.4627">
        <ele>451.461823</ele>
        <time>2016-03-26T13:40:09Z</time>
      </trkpt>
      <trkpt lat="46.07211" lon="6.46243">
        <ele>451.475006</ele>
        <time>2016-03-26T13:40:13Z</time>
      </trkpt>
      <trkpt lat="46.07214" lon="6.46216">
        <ele>451.515015</ele>
        <time>2016-03-26T13:40:17Z</time>
      </trkpt>
      <trkpt lat="46.07217" lon="6.46187">
        <ele>451.416931</ele>
        <time>2016-03-26T13:40:21Z</time>
      </trkpt>
      <trkpt lat="46.0722" lon="6.46158">
        <ele>451.182953</ele>
        <time>2016-03-26T13:40:25Z</time>
      </trkpt>
      <trkpt lat="46.07222" lon="6.4613">
        <ele>451</ele>
        <time>2016-03-26T13:40:29Z</time>
      </trkpt>
      <trkpt lat="46.07226" lon="6.461">
        <ele>451</ele>
        <time>2016-03-26T13:40:33Z</time>
      </trkpt>
      <trkpt lat="46.07229" lon="6.46072">
        <ele>450.973724</ele>
        <time>2016-03-26T13:40:37Z</time>
      </trkpt>
      <trkpt lat="46.07232" lon="6.46043">
        <ele>450.623657</ele>
        <time>2016-03-26T13:40:41Z</time>
      </trkpt>
      <trkpt lat="46.07235" lon="6.46014">
        <ele>450.235565</ele>
        <time>2016-03-26T13:40:45Z</time>
      </trkpt>
      <trkpt lat="46.07238" lon="6.45983">
        <ele>450.144989</ele>
        <time>2016-03-26T13:40:49Z</time>
      </trkpt>
      <trkpt lat="46.07241" lon="6.45954">
        <ele>450.109985</ele>
        <time>2016-03-26T13:40:53Z</time>
      </trkpt>
      <trkpt lat="46.07244" lon="6.45925">
        <ele>450.040802</ele>
        <time>2016-03-26T13:40:57Z</time>
      </trkpt>
      <trkpt lat="46.07246" lon="6.45896">
        <ele>450.006744</ele>
        <time>2016-03-26T13:41:01Z</time>
      </trkpt>
      <trkpt lat="46.07249" lon="6.45868">
        <ele>450</ele>
        <time>2016-03-26T13:41:05Z</time>
      </trkpt>
      <trkpt lat="46.07252" lon="6.4584">
        <ele>450</ele>
        <time>2016-03-26T13:41:09Z</time>
      </trkpt>
      <trkpt lat="46.07256" lon="6.45811">
        <ele>449.911011</ele>
        <time>2016-03-26T13:41:13Z</time>
      </trkpt>
      <trkpt lat="46.07259" lon="6.45782">
        <ele>449.529968</ele>
        <time>2016-03-26T13:41:17Z</time>
      </trkpt>
      <trkpt lat="46.07261" lon="6.45752">
        <ele>449.19809</ele>
        <time>2016-03-26T13:41:21Z</time>
      </trkpt>
      <trkpt lat="46.07264" lon="6.45724">
        <ele>449.576843</ele>
        <time>2016-03-26T13:41:25Z</time>
      </trkpt>
      <trkpt lat="46.07266" lon="6.45696">
        <ele>449.914886</ele>
        <time>2016-03-26T13:41:29Z</time>
      </trkpt>
      <trkpt lat="46.07267" lon="6.45666">
        <ele>449.9151</ele>
        <time>2016-03-26T13:41:33Z</time>
      </trkpt>
      <trkpt lat="46.07271" lon="6.45638">
        <ele>449.746002</ele>
        <time>2016-03-26T13:41:37Z</time>
      </trkpt>
      <trkpt lat="46.07276" lon="6.4561">
        <ele>449.609985</ele>
        <time>2016-03-26T13:41:41Z</time>
      </trkpt>
      <trkpt lat="46.07278" lon="6.45584">
        <ele>449.584991</ele>
        <time>2016-03-26T13:41:45Z</time>
      </trkpt>
      <trkpt lat="46.07281" lon="6.45557">
        <ele>449.545013</ele>
        <time>2016-03-26T13:41:49Z</time>
      </trkpt>
      <trkpt lat="46.07283" lon="6.4553">
        <ele>449.51001</ele>
        <time>2016-03-26T13:41:53Z</time>
      </trkpt>
      <trkpt lat="46.07286" lon="6.45498">
        <ele>449.470001</ele>
        <time>2016-03-26T13:41:58Z</time>
      </trkpt>
      <trkpt lat="46.07289" lon="6.45472">
        <ele>449.6409</ele>
        <time>2016-03-26T13:42:02Z</time>
      </trkpt>
      <trkpt lat="46.07291" lon="6.45445">
        <ele>449.87326</ele>
        <time>2016-03-26T13:42:06Z</time>
      </trkpt>
      <trkpt lat="46.07294" lon="6.45418">
        <ele>450</ele>
        <time>2016-03-26T13:42:10Z</time>
      </trkpt>
      <trkpt lat="46.07297" lon="6.45391">
        <ele>450</ele>
        <time>2016-03-26T13:42:14Z</time>
      </trkpt>
      <trkpt lat="46.073" lon="6.45364">
        <ele>449.954681</ele>
        <time>2016-03-26T13:42:18Z</time>
      </trkpt>
      <trkpt lat="46.07303" lon="6.45337">
        <ele>449.63089</ele>
        <time>2016-03-26T13:42:22Z</time>
      </trkpt>
      <trkpt lat="46.07304" lon="6.4531">
        <ele>449.311798</ele>
        <time>2016-03-26T13:42:26Z</time>
      </trkpt>
      <trkpt lat="46.07301" lon="6.45282">
        <ele>449.309998</ele>
        <time>2016-03-26T13:42:30Z</time>
      </trkpt>
      <trkpt lat="46.073" lon="6.45252">
        <ele>449.350006</ele>
        <time>2016-03-26T13:42:34Z</time>
      </trkpt>
      <trkpt lat="46.07304" lon="6.4522">
        <ele>449.59375</ele>
        <time>2016-03-26T13:42:38Z</time>
      </trkpt>
      <trkpt lat="46.07308" lon="6.45188">
        <ele>450.02124</ele>
        <time>2016-03-26T13:42:42Z</time>
      </trkpt>
      <trkpt lat="46.07311" lon="6.45155">
        <ele>450.134674</ele>
        <time>2016-03-26T13:42:46Z</time>
      </trkpt>
      <trkpt lat="46.07313" lon="6.45124">
        <ele>450.038025</ele>
        <time>2016-03-26T13:42:50Z</time>
      </trkpt>
      <trkpt lat="46.07315" lon="6.45094">
        <ele>450.210205</ele>
        <time>2016-03-26T13:42:54Z</time>
      </trkpt>
      <trkpt lat="46.07317" lon="6.45064">
        <ele>450.611328</ele>
        <time>2016-03-26T13:42:58Z</time>
      </trkpt>
      <trkpt lat="46.07318" lon="6.45034">
        <ele>450.888794</ele>
        <time>2016-03-26T13:43:02Z</time>
      </trkpt>
      <trkpt lat="46.07319" lon="6.45006">
        <ele>450.951416</ele>
        <time>2016-03-26T13:43:06Z</time>
      </trkpt>
      <trkpt lat="46.0732" lon="6.44979">
        <ele>451</ele>
        <time>2016-03-26T13:43:10Z</time>
      </trkpt>
      <trkpt lat="46.07322" lon="6.44952">
        <ele>451</ele>
        <time>2016-03-26T13:43:14Z</time>
      </trkpt>
      <trkpt lat="46.07323" lon="6.44925">
        <ele>451</ele>
        <time>2016-03-26T13:43:18Z</time>
      </trkpt>
      <trkpt lat="46.07323" lon="6.44898">
        <ele>451</ele>
        <time>2016-03-26T13:43:22Z</time>
      </trkpt>
      <trkpt lat="46.07326" lon="6.4487">
        <ele>451</ele>
        <time>2016-03-26T13:43:26Z</time>
      </trkpt>
      <trkpt lat="46.07325" lon="6.4484">
        <ele>451</ele>
        <time>2016-03-26T13:43:30Z</time>
      </trkpt>
      <trkpt lat="46.07325" lon="6.4481">
        <ele>451</ele>
        <time>2016-03-26T13:43:34Z</time>
      </trkpt>
      <trkpt lat="46.07326" lon="6.44781">
        <ele>451</ele>
        <time>2016-03-26T13:43:38Z</time>
      </trkpt>
      <trkpt lat="46.07327" lon="6.44751">
        <ele>451</ele>
        <time>2016-03-26T13:43:42Z</time>
      </trkpt>
      <trkpt lat="46.07328" lon="6.44719">
        <ele>451</ele>
        <time>2016-03-26T13:43:46Z</time>
      </trkpt>
      <trkpt lat="46.07326" lon="6.44687">
        <ele>451</ele>
        <time>2016-03-26T13:43:50Z</time>
      </trkpt>
      <trkpt lat="46.07324" lon="6.44656">
        <ele>451</ele>
        <time>2016-03-26T13:43:54Z</time>
      </trkpt>
      <trkpt lat="46.07321" lon="6.44626">
        <ele>451</ele>
        <time>2016-03-26T13:43:58Z</time>
      </trkpt>
      <trkpt lat="46.07319" lon="6.44597">
        <ele>451</ele>
        <time>2016-03-26T13:44:02Z</time>
      </trkpt>
      <trkpt lat="46.07317" lon="6.44566">
        <ele>451</ele>
        <time>2016-03-26T13:44:06Z</time>
      </trkpt>
      <trkpt lat="46.07314" lon="6.44534">
        <ele>451</ele>
        <time>2016-03-26T13:44:10Z</time>
      </trkpt>
      <trkpt lat="46.07313" lon="6.44501">
        <ele>451.132019</ele>
        <time>2016-03-26T13:44:14Z</time>
      </trkpt>
      <trkpt lat="46.07311" lon="6.44466">
        <ele>451.240662</ele>
        <time>2016-03-26T13:44:18Z</time>
      </trkpt>
      <trkpt lat="46.07309" lon="6.44439">
        <ele>451.184998</ele>
        <time>2016-03-26T13:44:21Z</time>
      </trkpt>
      <trkpt lat="46.07306" lon="6.44405">
        <ele>451.095001</ele>
        <time>2016-03-26T13:44:25Z</time>
      </trkpt>
      <trkpt lat="46.07306" lon="6.44374">
        <ele>451.070007</ele>
        <time>2016-03-26T13:44:29Z</time>
      </trkpt>
      <trkpt lat="46.07311" lon="6.44344">
        <ele>451.144989</ele>
        <time>2016-03-26T13:44:34Z</time>
      </trkpt>
      <trkpt lat="46.07316" lon="6.44315">
        <ele>451.171295</ele>
        <time>2016-03-26T13:44:40Z</time>
      </trkpt>
      <trkpt lat="46.07321" lon="6.44287">
        <ele>451.091156</ele>
        <time>2016-03-26T13:44:45Z</time>
      </trkpt>
      <trkpt lat="46.07327" lon="6.44258">
        <ele>451.099731</ele>
        <time>2016-03-26T13:44:50Z</time>
      </trkpt>
      <trkpt lat="46.07332" lon="6.44228">
        <ele>451.302551</ele>
        <time>2016-03-26T13:44:55Z</time>
      </trkpt>
      <trkpt lat="46.07338" lon="6.44197">
        <ele>451.369995</ele>
        <time>2016-03-26T13:45:00Z</time>
      </trkpt>
      <trkpt lat="46.07342" lon="6.44172">
        <ele>451.290009</ele>
        <time>2016-03-26T13:45:04Z</time>
      </trkpt>
      <trkpt lat="46.07347" lon="6.44145">
        <ele>451.204987</ele>
        <time>2016-03-26T13:45:08Z</time>
      </trkpt>
      <trkpt lat="46.07353" lon="6.44117">
        <ele>451.067505</ele>
        <time>2016-03-26T13:45:12Z</time>
      </trkpt>
      <trkpt lat="46.07358" lon="6.44088">
        <ele>451.002502</ele>
        <time>2016-03-26T13:45:16Z</time>
      </trkpt>
      <trkpt lat="46.07363" lon="6.44059">
        <ele>450.681671</ele>
        <time>2016-03-26T13:45:20Z</time>
      </trkpt>
      <trkpt lat="46.07368" lon="6.4403">
        <ele>450.336792</ele>
        <time>2016-03-26T13:45:24Z</time>
      </trkpt>
      <trkpt lat="46.07373" lon="6.44002">
        <ele>450.202179</ele>
        <time>2016-03-26T13:45:28Z</time>
      </trkpt>
      <trkpt lat="46.07378" lon="6.43973">
        <ele>450.118927</ele>
        <time>2016-03-26T13:45:32Z</time>
      </trkpt>
      <trkpt lat="46.07383" lon="6.43942">
        <ele>449.882507</ele>
        <time>2016-03-26T13:45:36Z</time>
      </trkpt>
      <trkpt lat="46.07388" lon="6.43911">
        <ele>449.39624</ele>
        <time>2016-03-26T13:45:40Z</time>
      </trkpt>
      <trkpt lat="46.07393" lon="6.43881">
        <ele>448.967316</ele>
        <time>2016-03-26T13:45:44Z</time>
      </trkpt>
      <trkpt lat="46.07397" lon="6.43852">
        <ele>448.818939</ele>
        <time>2016-03-26T13:45:48Z</time>
      </trkpt>
      <trkpt lat="46.07401" lon="6.43824">
        <ele>448.747467</ele>
        <time>2016-03-26T13:45:52Z</time>
      </trkpt>
      <trkpt lat="46.07406" lon="6.43795">
        <ele>448.897858</ele>
        <time>2016-03-26T13:45:56Z</time>
      </trkpt>
      <trkpt lat="46.07411" lon="6.43767">
        <ele>448.987854</ele>
        <time>2016-03-26T13:46:00Z</time>
      </trkpt>
      <trkpt lat="46.07416" lon="6.43738">
        <ele>449</ele>
        <time>2016-03-26T13:46:04Z</time>
      </trkpt>
      <trkpt lat="46.07421" lon="6.43711">
        <ele>448.920013</ele>
        <time>2016-03-26T13:46:08Z</time>
      </trkpt>
      <trkpt lat="46.07425" lon="6.43682">
        <ele>448.845001</ele>
        <time>2016-03-26T13:46:12Z</time>
      </trkpt>
      <trkpt lat="46.0743" lon="6.43655">
        <ele>448.769989</ele>
        <time>2016-03-26T13:46:16Z</time>
      </trkpt>
      <trkpt lat="46.07434" lon="6.43627">
        <ele>448.661499</ele>
        <time>2016-03-26T13:46:20Z</time>
      </trkpt>
      <trkpt lat="46.07438" lon="6.43598">
        <ele>448.31015</ele>
        <time>2016-03-26T13:46:24Z</time>
      </trkpt>
      <trkpt lat="46.07443" lon="6.43568">
        <ele>448.015137</ele>
        <time>2016-03-26T13:46:28Z</time>
      </trkpt>
      <trkpt lat="46.07448" lon="6.43538">
        <ele>448</ele>
        <time>2016-03-26T13:46:32Z</time>
      </trkpt>
      <trkpt lat="46.07452" lon="6.43509">
        <ele>448</ele>
        <time>2016-03-26T13:46:36Z</time>
      </trkpt>
      <trkpt lat="46.07458" lon="6.43481">
        <ele>448</ele>
        <time>2016-03-26T13:46:40Z</time>
      </trkpt>
      <trkpt lat="46.07462" lon="6.43454">
        <ele>448</ele>
        <time>2016-03-26T13:46:44Z</time>
      </trkpt>
      <trkpt lat="46.07467" lon="6.43426">
        <ele>448</ele>
        <time>2016-03-26T13:46:48Z</time>
      </trkpt>
      <trkpt lat="46.07471" lon="6.43398">
        <ele>448</ele>
        <time>2016-03-26T13:46:52Z</time>
      </trkpt>
      <trkpt lat="46.07475" lon="6.4337">
        <ele>447.924408</ele>
        <time>2016-03-26T13:46:56Z</time>
      </trkpt>
      <trkpt lat="46.07479" lon="6.43342">
        <ele>447.457703</ele>
        <time>2016-03-26T13:47:00Z</time>
      </trkpt>
      <trkpt lat="46.07483" lon="6.43315">
        <ele>447.056641</ele>
        <time>2016-03-26T13:47:04Z</time>
      </trkpt>
      <trkpt lat="46.07488" lon="6.43287">
        <ele>447</ele>
        <time>2016-03-26T13:47:08Z</time>
      </trkpt>
      <trkpt lat="46.07492" lon="6.43261">
        <ele>447</ele>
        <time>2016-03-26T13:47:12Z</time>
      </trkpt>
      <trkpt lat="46.07496" lon="6.43234">
        <ele>447</ele>
        <time>2016-03-26T13:47:16Z</time>
      </trkpt>
      <trkpt lat="46.07501" lon="6.43206">
        <ele>447</ele>
        <time>2016-03-26T13:47:20Z</time>
      </trkpt>
      <trkpt lat="46.07505" lon="6.43178">
        <ele>447</ele>
        <time>2016-03-26T13:47:24Z</time>
      </trkpt>
      <trkpt lat="46.07511" lon="6.43148">
        <ele>447</ele>
        <time>2016-03-26T13:47:28Z</time>
      </trkpt>
      <trkpt lat="46.07516" lon="6.4312">
        <ele>447</ele>
        <time>2016-03-26T13:47:32Z</time>
      </trkpt>
      <trkpt lat="46.07524" lon="6.43092">
        <ele>447</ele>
        <time>2016-03-26T13:47:36Z</time>
      </trkpt>
      <trkpt lat="46.07532" lon="6.43062">
        <ele>447</ele>
        <time>2016-03-26T13:47:40Z</time>
      </trkpt>
      <trkpt lat="46.07534" lon="6.43031">
        <ele>446.619995</ele>
        <time>2016-03-26T13:47:44Z</time>
      </trkpt>
      <trkpt lat="46.07533" lon="6.43002">
        <ele>446.189423</ele>
        <time>2016-03-26T13:47:48Z</time>
      </trkpt>
      <trkpt lat="46.07531" lon="6.42973">
        <ele>446.070007</ele>
        <time>2016-03-26T13:47:52Z</time>
      </trkpt>
      <trkpt lat="46.07529" lon="6.42943">
        <ele>446.13501</ele>
        <time>2016-03-26T13:47:56Z</time>
      </trkpt>
      <trkpt lat="46.07526" lon="6.42912">
        <ele>446.173798</ele>
        <time>2016-03-26T13:48:00Z</time>
      </trkpt>
      <trkpt lat="46.07524" lon="6.42882">
        <ele>446.100311</ele>
        <time>2016-03-26T13:48:04Z</time>
      </trkpt>
      <trkpt lat="46.07522" lon="6.42855">
        <ele>446</ele>
        <time>2016-03-26T13:48:08Z</time>
      </trkpt>
      <trkpt lat="46.0752" lon="6.42828">
        <ele>446</ele>
        <time>2016-03-26T13:48:12Z</time>
      </trkpt>
      <trkpt lat="46.07519" lon="6.42798">
        <ele>446</ele>
        <time>2016-03-26T13:48:17Z</time>
      </trkpt>
      <trkpt lat="46.07517" lon="6.42767">
        <ele>446</ele>
        <time>2016-03-26T13:48:22Z</time>
      </trkpt>
      <trkpt lat="46.07514" lon="6.42742">
        <ele>446</ele>
        <time>2016-03-26T13:48:26Z</time>
      </trkpt>
      <trkpt lat="46.07514" lon="6.42715">
        <ele>446</ele>
        <time>2016-03-26T13:48:31Z</time>
      </trkpt>
      <trkpt lat="46.07513" lon="6.42687">
        <ele>446</ele>
        <time>2016-03-26T13:48:36Z</time>
      </trkpt>
      <trkpt lat="46.07511" lon="6.42655">
        <ele>446</ele>
        <time>2016-03-26T13:48:41Z</time>
      </trkpt>
      <trkpt lat="46.07508" lon="6.42623">
        <ele>446</ele>
        <time>2016-03-26T13:48:46Z</time>
      </trkpt>
      <trkpt lat="46.07507" lon="6.42596">
        <ele>446</ele>
        <time>2016-03-26T13:48:50Z</time>
      </trkpt>
      <trkpt lat="46.07506" lon="6.42568">
        <ele>446</ele>
        <time>2016-03-26T13:48:54Z</time>
      </trkpt>
      <trkpt lat="46.07504" lon="6.42538">
        <ele>446</ele>
        <time>2016-03-26T13:48:58Z</time>
      </trkpt>
      <trkpt lat="46.07502" lon="6.42508">
        <ele>446</ele>
        <time>2016-03-26T13:49:02Z</time>
      </trkpt>
      <trkpt lat="46.075" lon="6.42478">
        <ele>446</ele>
        <time>2016-03-26T13:49:06Z</time>
      </trkpt>
      <trkpt lat="46.07499" lon="6.42449">
        <ele>445.681244</ele>
        <time>2016-03-26T13:49:10Z</time>
      </trkpt>
      <trkpt lat="46.07501" lon="6.4242">
        <ele>445.222504</ele>
        <time>2016-03-26T13:49:14Z</time>
      </trkpt>
      <trkpt lat="46.075" lon="6.42391">
        <ele>444.827576</ele>
        <time>2016-03-26T13:49:18Z</time>
      </trkpt>
      <trkpt lat="46.07498" lon="6.42363">
        <ele>444.535583</ele>
        <time>2016-03-26T13:49:22Z</time>
      </trkpt>
      <trkpt lat="46.07496" lon="6.42333">
        <ele>444.434052</ele>
        <time>2016-03-26T13:49:26Z</time>
      </trkpt>
      <trkpt lat="46.07493" lon="6.42304">
        <ele>444.755798</ele>
        <time>2016-03-26T13:49:30Z</time>
      </trkpt>
      <trkpt lat="46.07492" lon="6.42275">
        <ele>445</ele>
        <time>2016-03-26T13:49:34Z</time>
      </trkpt>
      <trkpt lat="46.0749" lon="6.42246">
        <ele>445</ele>
        <time>2016-03-26T13:49:38Z</time>
      </trkpt>
      <trkpt lat="46.07489" lon="6.42217">
        <ele>445</ele>
        <time>2016-03-26T13:49:42Z</time>
      </trkpt>
      <trkpt lat="46.07487" lon="6.4219">
        <ele>444.788116</ele>
        <time>2016-03-26T13:49:46Z</time>
      </trkpt>
      <trkpt lat="46.07486" lon="6.42162">
        <ele>444.461792</ele>
        <time>2016-03-26T13:49:50Z</time>
      </trkpt>
      <trkpt lat="46.07485" lon="6.42135">
        <ele>444.225006</ele>
        <time>2016-03-26T13:49:54Z</time>
      </trkpt>
      <trkpt lat="46.07483" lon="6.42108">
        <ele>444.170013</ele>
        <time>2016-03-26T13:49:58Z</time>
      </trkpt>
      <trkpt lat="46.07483" lon="6.4208">
        <ele>444.13501</ele>
        <time>2016-03-26T13:50:02Z</time>
      </trkpt>
      <trkpt lat="46.07482" lon="6.42051">
        <ele>444.095001</ele>
        <time>2016-03-26T13:50:06Z</time>
      </trkpt>
      <trkpt lat="46.07481" lon="6.42022">
        <ele>444.054993</ele>
        <time>2016-03-26T13:50:10Z</time>
      </trkpt>
      <trkpt lat="46.07479" lon="6.41993">
        <ele>444.005005</ele>
        <time>2016-03-26T13:50:14Z</time>
      </trkpt>
      <trkpt lat="46.07478" lon="6.41964">
        <ele>444.054993</ele>
        <time>2016-03-26T13:50:18Z</time>
      </trkpt>
      <trkpt lat="46.07475" lon="6.41936">
        <ele>444.140015</ele>
        <time>2016-03-26T13:50:22Z</time>
      </trkpt>
      <trkpt lat="46.0747" lon="6.41903">
        <ele>444.279999</ele>
        <time>2016-03-26T13:50:26Z</time>
      </trkpt>
      <trkpt lat="46.07467" lon="6.4187">
        <ele>444.38501</ele>
        <time>2016-03-26T13:50:30Z</time>
      </trkpt>
      <trkpt lat="46.07465" lon="6.4184">
        <ele>444.454987</ele>
        <time>2016-03-26T13:50:34Z</time>
      </trkpt>
      <trkpt lat="46.07463" lon="6.41809">
        <ele>444.602783</ele>
        <time>2016-03-26T13:50:38Z</time>
      </trkpt>
      <trkpt lat="46.07462" lon="6.4178">
        <ele>444.83551</ele>
        <time>2016-03-26T13:50:42Z</time>
      </trkpt>
      <trkpt lat="46.0746" lon="6.41751">
        <ele>444.977936</ele>
        <time>2016-03-26T13:50:46Z</time>
      </trkpt>
      <trkpt lat="46.07457" lon="6.41723">
        <ele>444.858276</ele>
        <time>2016-03-26T13:50:50Z</time>
      </trkpt>
      <trkpt lat="46.07455" lon="6.41695">
        <ele>444.811157</ele>
        <time>2016-03-26T13:50:54Z</time>
      </trkpt>
      <trkpt lat="46.07453" lon="6.41667">
        <ele>444.845001</ele>
        <time>2016-03-26T13:50:58Z</time>
      </trkpt>
      <trkpt lat="46.07453" lon="6.41637">
        <ele>444.869995</ele>
        <time>2016-03-26T13:51:02Z</time>
      </trkpt>
      <trkpt lat="46.07452" lon="6.41608">
        <ele>444.929993</ele>
        <time>2016-03-26T13:51:06Z</time>
      </trkpt>
      <trkpt lat="46.0745" lon="6.41579">
        <ele>444.994995</ele>
        <time>2016-03-26T13:51:10Z</time>
      </trkpt>
      <trkpt lat="46.07448" lon="6.41549">
        <ele>445.059998</ele>
        <time>2016-03-26T13:51:14Z</time>
      </trkpt>
      <trkpt lat="46.07446" lon="6.41519">
        <ele>445.119995</ele>
        <time>2016-03-26T13:51:18Z</time>
      </trkpt>
      <trkpt lat="46.07445" lon="6.41488">
        <ele>445.174988</ele>
        <time>2016-03-26T13:51:22Z</time>
      </trkpt>
      <trkpt lat="46.07444" lon="6.41457">
        <ele>445.230011</ele>
        <time>2016-03-26T13:51:26Z</time>
      </trkpt>
      <trkpt lat="46.07443" lon="6.41426">
        <ele>445.274994</ele>
        <time>2016-03-26T13:51:30Z</time>
      </trkpt>
      <trkpt lat="46.07443" lon="6.41399">
        <ele>445.285004</ele>
        <time>2016-03-26T13:51:34Z</time>
      </trkpt>
      <trkpt lat="46.07446" lon="6.4137">
        <ele>445.244995</ele>
        <time>2016-03-26T13:51:39Z</time>
      </trkpt>
      <trkpt lat="46.07444" lon="6.4134">
        <ele>445.309998</ele>
        <time>2016-03-26T13:51:44Z</time>
      </trkpt>
      <trkpt lat="46.07441" lon="6.41308">
        <ele>445.410004</ele>
        <time>2016-03-26T13:51:49Z</time>
      </trkpt>
      <trkpt lat="46.0744" lon="6.41279">
        <ele>445.450012</ele>
        <time>2016-03-26T13:51:54Z</time>
      </trkpt>
      <trkpt lat="46.07441" lon="6.41248">
        <ele>445.459991</ele>
        <time>2016-03-26T13:52:00Z</time>
      </trkpt>
      <trkpt lat="46.0744" lon="6.4122">
        <ele>445.379364</ele>
        <time>2016-03-26T13:52:05Z</time>
      </trkpt>
      <trkpt lat="46.07438" lon="6.41191">
        <ele>445.169281</ele>
        <time>2016-03-26T13:52:10Z</time>
      </trkpt>
      <trkpt lat="46.07436" lon="6.41163">
        <ele>445</ele>
        <time>2016-03-26T13:52:15Z</time>
      </trkpt>
      <trkpt lat="46.07436" lon="6.41134">
        <ele>445</ele>
        <time>2016-03-26T13:52:19Z</time>
      </trkpt>
      <trkpt lat="46.0744" lon="6.41108">
        <ele>445</ele>
        <time>2016-03-26T13:52:23Z</time>
      </trkpt>
      <trkpt lat="46.07448" lon="6.41086">
        <ele>445</ele>
        <time>2016-03-26T13:52:28Z</time>
      </trkpt>
      <trkpt lat="46.07454" lon="6.41061">
        <ele>445</ele>
        <time>2016-03-26T13:52:34Z</time>
      </trkpt>
      <trkpt lat="46.07459" lon="6.41034">
        <ele>445</ele>
        <time>2016-03-26T13:52:41Z</time>
      </trkpt>
      <trkpt lat="46.07463" lon="6.41005">
        <ele>445</ele>
        <time>2016-03-26T13:52:48Z</time>
      </trkpt>
      <trkpt lat="46.07467" lon="6.40975">
        <ele>445.004944</ele>
        <time>2016-03-26T13:52:53Z</time>
      </trkpt>
      <trkpt lat="46.07472" lon="6.40946">
        <ele>445.005188</ele>
        <time>2016-03-26T13:52:58Z</time>
      </trkpt>
      <trkpt lat="46.07477" lon="6.40914">
        <ele>444.999146</ele>
        <time>2016-03-26T13:53:03Z</time>
      </trkpt>
      <trkpt lat="46.07482" lon="6.40885">
        <ele>444.925415</ele>
        <time>2016-03-26T13:53:08Z</time>
      </trkpt>
      <trkpt lat="46.07486" lon="6.40857">
        <ele>444.796936</ele>
        <time>2016-03-26T13:53:16Z</time>
      </trkpt>
      <trkpt lat="46.07491" lon="6.40826">
        <ele>444.674988</ele>
        <time>2016-03-26T13:53:22Z</time>
      </trkpt>
      <trkpt lat="46.07501" lon="6.408">
        <ele>444.48999</ele>
        <time>2016-03-26T13:53:26Z</time>
      </trkpt>
      <trkpt lat="46.07506" lon="6.40772">
        <ele>444.399994</ele>
        <time>2016-03-26T13:53:30Z</time>
      </trkpt>
      <trkpt lat="46.07497" lon="6.40744">
        <ele>444.619995</ele>
        <time>2016-03-26T13:53:35Z</time>
      </trkpt>
      <trkpt lat="46.07487" lon="6.40721">
        <ele>444.877502</ele>
        <time>2016-03-26T13:53:40Z</time>
      </trkpt>
      <trkpt lat="46.07469" lon="6.40718">
        <ele>445.275299</ele>
        <time>2016-03-26T13:53:47Z</time>
      </trkpt>
      <trkpt lat="46.07454" lon="6.40732">
        <ele>445.579987</ele>
        <time>2016-03-26T13:53:53Z</time>
      </trkpt>
      <trkpt lat="46.07437" lon="6.40736">
        <ele>445.959991</ele>
        <time>2016-03-26T13:54:00Z</time>
      </trkpt>
      <trkpt lat="46.0743" lon="6.40709">
        <ele>446.125</ele>
        <time>2016-03-26T13:54:06Z</time>
      </trkpt>
      <trkpt lat="46.07438" lon="6.40682">
        <ele>445.989044</ele>
        <time>2016-03-26T13:54:11Z</time>
      </trkpt>
      <trkpt lat="46.07453" lon="6.40662">
        <ele>445.96048</ele>
        <time>2016-03-26T13:54:16Z</time>
      </trkpt>
      <trkpt lat="46.07469" lon="6.40643">
        <ele>446.193756</ele>
        <time>2016-03-26T13:54:21Z</time>
      </trkpt>
      <trkpt lat="46.07483" lon="6.40625">
        <ele>446.482513</ele>
        <time>2016-03-26T13:54:26Z</time>
      </trkpt>
      <trkpt lat="46.07499" lon="6.40608">
        <ele>446.451233</ele>
        <time>2016-03-26T13:54:31Z</time>
      </trkpt>
      <trkpt lat="46.07514" lon="6.4059">
        <ele>446.396912</ele>
        <time>2016-03-26T13:54:36Z</time>
      </trkpt>
      <trkpt lat="46.0753" lon="6.40594">
        <ele>446.01001</ele>
        <time>2016-03-26T13:54:41Z</time>
      </trkpt>
      <trkpt lat="46.07547" lon="6.40592">
        <ele>445.686249</ele>
        <time>2016-03-26T13:54:47Z</time>
      </trkpt>
      <trkpt lat="46.07565" lon="6.40584">
        <ele>445.440002</ele>
        <time>2016-03-26T13:54:52Z</time>
      </trkpt>
      <trkpt lat="46.07577" lon="6.4056">
        <ele>445.584991</ele>
        <time>2016-03-26T13:54:57Z</time>
      </trkpt>
      <trkpt lat="46.07593" lon="6.40545">
        <ele>445.492493</ele>
        <time>2016-03-26T13:55:02Z</time>
      </trkpt>
      <trkpt lat="46.07614" lon="6.40537">
        <ele>445.174988</ele>
        <time>2016-03-26T13:55:07Z</time>
      </trkpt>
      <trkpt lat="46.07631" lon="6.4053">
        <ele>444.938751</ele>
        <time>2016-03-26T13:55:11Z</time>
      </trkpt>
      <trkpt lat="46.07651" lon="6.40514">
        <ele>444.768738</ele>
        <time>2016-03-26T13:55:16Z</time>
      </trkpt>
      <trkpt lat="46.07667" lon="6.40493">
        <ele>444.772491</ele>
        <time>2016-03-26T13:55:20Z</time>
      </trkpt>
      <trkpt lat="46.07677" lon="6.40465">
        <ele>445.33902</ele>
        <time>2016-03-26T13:55:24Z</time>
      </trkpt>
      <trkpt lat="46.07689" lon="6.40442">
        <ele>445.876007</ele>
        <time>2016-03-26T13:55:28Z</time>
      </trkpt>
      <trkpt lat="46.07701" lon="6.40423">
        <ele>446.144775</ele>
        <time>2016-03-26T13:55:32Z</time>
      </trkpt>
      <trkpt lat="46.07711" lon="6.40396">
        <ele>446.379364</ele>
        <time>2016-03-26T13:55:37Z</time>
      </trkpt>
      <trkpt lat="46.07727" lon="6.40384">
        <ele>446.278748</ele>
        <time>2016-03-26T13:55:41Z</time>
      </trkpt>
      <trkpt lat="46.07746" lon="6.40373">
        <ele>446.066254</ele>
        <time>2016-03-26T13:55:46Z</time>
      </trkpt>
      <trkpt lat="46.07765" lon="6.40362">
        <ele>445.865479</ele>
        <time>2016-03-26T13:55:51Z</time>
      </trkpt>
      <trkpt lat="46.07785" lon="6.40351">
        <ele>446.075012</ele>
        <time>2016-03-26T13:55:56Z</time>
      </trkpt>
      <trkpt lat="46.07806" lon="6.40343">
        <ele>446.216248</ele>
        <time>2016-03-26T13:56:01Z</time>
      </trkpt>
      <trkpt lat="46.07827" lon="6.40332">
        <ele>445.806519</ele>
        <time>2016-03-26T13:56:06Z</time>
      </trkpt>
      <trkpt lat="46.07845" lon="6.40322">
        <ele>445.498108</ele>
        <time>2016-03-26T13:56:10Z</time>
      </trkpt>
      <trkpt lat="46.07862" lon="6.40312">
        <ele>445.312378</ele>
        <time>2016-03-26T13:56:14Z</time>
      </trkpt>
      <trkpt lat="46.07878" lon="6.40296">
        <ele>445.563263</ele>
        <time>2016-03-26T13:56:18Z</time>
      </trkpt>
      <trkpt lat="46.07888" lon="6.40272">
        <ele>445.991119</ele>
        <time>2016-03-26T13:56:22Z</time>
      </trkpt>
      <trkpt lat="46.07892" lon="6.40246">
        <ele>446.673126</ele>
        <time>2016-03-26T13:56:26Z</time>
      </trkpt>
      <trkpt lat="46.07896" lon="6.4022">
        <ele>447</ele>
        <time>2016-03-26T13:56:32Z</time>
      </trkpt>
      <trkpt lat="46.07901" lon="6.4019">
        <ele>447</ele>
        <time>2016-03-26T13:56:42Z</time>
      </trkpt>
      <trkpt lat="46.07908" lon="6.4016">
        <ele>446.847504</ele>
        <time>2016-03-26T13:56:47Z</time>
      </trkpt>
      <trkpt lat="46.07913" lon="6.40128">
        <ele>446.346252</ele>
        <time>2016-03-26T13:56:52Z</time>
      </trkpt>
      <trkpt lat="46.07918" lon="6.40103">
        <ele>445.897491</ele>
        <time>2016-03-26T13:56:56Z</time>
      </trkpt>
      <trkpt lat="46.07923" lon="6.40078">
        <ele>445.100006</ele>
        <time>2016-03-26T13:57:00Z</time>
      </trkpt>
      <trkpt lat="46.07928" lon="6.40047">
        <ele>444.142487</ele>
        <time>2016-03-26T13:57:05Z</time>
      </trkpt>
      <trkpt lat="46.07931" lon="6.40016">
        <ele>444.829987</ele>
        <time>2016-03-26T13:57:10Z</time>
      </trkpt>
      <trkpt lat="46.07933" lon="6.39988">
        <ele>445.700012</ele>
        <time>2016-03-26T13:57:14Z</time>
      </trkpt>
      <trkpt lat="46.07936" lon="6.39961">
        <ele>446.137604</ele>
        <time>2016-03-26T13:57:18Z</time>
      </trkpt>
      <trkpt lat="46.07939" lon="6.39931">
        <ele>446.338684</ele>
        <time>2016-03-26T13:57:22Z</time>
      </trkpt>
      <trkpt lat="46.07948" lon="6.399">
        <ele>446.428772</ele>
        <time>2016-03-26T13:57:26Z</time>
      </trkpt>
      <trkpt lat="46.07951" lon="6.39868">
        <ele>446.784393</ele>
        <time>2016-03-26T13:57:30Z</time>
      </trkpt>
      <trkpt lat="46.07956" lon="6.39835">
        <ele>446.805756</ele>
        <time>2016-03-26T13:57:34Z</time>
      </trkpt>
      <trkpt lat="46.07959" lon="6.39802">
        <ele>446.330994</ele>
        <time>2016-03-26T13:57:38Z</time>
      </trkpt>
      <trkpt lat="46.07963" lon="6.39769">
        <ele>446.299255</ele>
        <time>2016-03-26T13:57:42Z</time>
      </trkpt>
      <trkpt lat="46.07967" lon="6.39738">
        <ele>446.744965</ele>
        <time>2016-03-26T13:57:46Z</time>
      </trkpt>
      <trkpt lat="46.07971" lon="6.39706">
        <ele>446.934998</ele>
        <time>2016-03-26T13:57:50Z</time>
      </trkpt>
      <trkpt lat="46.07974" lon="6.39675">
        <ele>446.875</ele>
        <time>2016-03-26T13:57:54Z</time>
      </trkpt>
      <trkpt lat="46.07978" lon="6.39645">
        <ele>446.664185</ele>
        <time>2016-03-26T13:57:58Z</time>
      </trkpt>
      <trkpt lat="46.07982" lon="6.39617">
        <ele>446.279297</ele>
        <time>2016-03-26T13:58:03Z</time>
      </trkpt>
      <trkpt lat="46.07985" lon="6.39591">
        <ele>445.989838</ele>
        <time>2016-03-26T13:58:07Z</time>
      </trkpt>
      <trkpt lat="46.07988" lon="6.39566">
        <ele>445.847321</ele>
        <time>2016-03-26T13:58:11Z</time>
      </trkpt>
      <trkpt lat="46.08006" lon="6.39563">
        <ele>445.628754</ele>
        <time>2016-03-26T13:58:16Z</time>
      </trkpt>
      <trkpt lat="46.08026" lon="6.39569">
        <ele>445.473724</ele>
        <time>2016-03-26T13:58:20Z</time>
      </trkpt>
      <trkpt lat="46.08046" lon="6.39575">
        <ele>445.232697</ele>
        <time>2016-03-26T13:58:24Z</time>
      </trkpt>
      <trkpt lat="46.08065" lon="6.39583">
        <ele>444.917938</ele>
        <time>2016-03-26T13:58:28Z</time>
      </trkpt>
      <trkpt lat="46.08085" lon="6.3959">
        <ele>444.400024</ele>
        <time>2016-03-26T13:58:32Z</time>
      </trkpt>
      <trkpt lat="46.08107" lon="6.39598">
        <ele>443.926239</ele>
        <time>2016-03-26T13:58:36Z</time>
      </trkpt>
      <trkpt lat="46.0813" lon="6.39606">
        <ele>442.413116</ele>
        <time>2016-03-26T13:58:40Z</time>
      </trkpt>
      <trkpt lat="46.08153" lon="6.39611">
        <ele>440.964996</ele>
        <time>2016-03-26T13:58:44Z</time>
      </trkpt>
      <trkpt lat="46.08174" lon="6.39617">
        <ele>440.484985</ele>
        <time>2016-03-26T13:58:48Z</time>
      </trkpt>
      <trkpt lat="46.08196" lon="6.39623">
        <ele>439.992126</ele>
        <time>2016-03-26T13:58:52Z</time>
      </trkpt>
      <trkpt lat="46.08218" lon="6.39632">
        <ele>439.663391</ele>
        <time>2016-03-26T13:58:56Z</time>
      </trkpt>
      <trkpt lat="46.08236" lon="6.39624">
        <ele>439.267639</ele>
        <time>2016-03-26T13:59:00Z</time>
      </trkpt>
      <trkpt lat="46.08245" lon="6.39598">
        <ele>439.057739</ele>
        <time>2016-03-26T13:59:04Z</time>
      </trkpt>
      <trkpt lat="46.08253" lon="6.39572">
        <ele>439.08017</ele>
        <time>2016-03-26T13:59:08Z</time>
      </trkpt>
      <trkpt lat="46.0826" lon="6.39546">
        <ele>439.035187</ele>
        <time>2016-03-26T13:59:12Z</time>
      </trkpt>
      <trkpt lat="46.08267" lon="6.39519">
        <ele>439.238617</ele>
        <time>2016-03-26T13:59:16Z</time>
      </trkpt>
      <trkpt lat="46.08273" lon="6.39492">
        <ele>439.354523</ele>
        <time>2016-03-26T13:59:20Z</time>
      </trkpt>
      <trkpt lat="46.08278" lon="6.39465">
        <ele>439.51709</ele>
        <time>2016-03-26T13:59:24Z</time>
      </trkpt>
      <trkpt lat="46.08282" lon="6.39439">
        <ele>439.793671</ele>
        <time>2016-03-26T13:59:28Z</time>
      </trkpt>
      <trkpt lat="46.08286" lon="6.39412">
        <ele>440</ele>
        <time>2016-03-26T13:59:32Z</time>
      </trkpt>
      <trkpt lat="46.0829" lon="6.39385">
        <ele>440</ele>
        <time>2016-03-26T13:59:36Z</time>
      </trkpt>
      <trkpt lat="46.08298" lon="6.39361">
        <ele>440</ele>
        <time>2016-03-26T13:59:40Z</time>
      </trkpt>
      <trkpt lat="46.0831" lon="6.39338">
        <ele>440</ele>
        <time>2016-03-26T13:59:44Z</time>
      </trkpt>
      <trkpt lat="46.08324" lon="6.39317">
        <ele>440</ele>
        <time>2016-03-26T13:59:48Z</time>
      </trkpt>
      <trkpt lat="46.08333" lon="6.39291">
        <ele>440</ele>
        <time>2016-03-26T13:59:52Z</time>
      </trkpt>
      <trkpt lat="46.08334" lon="6.39263">
        <ele>440</ele>
        <time>2016-03-26T13:59:56Z</time>
      </trkpt>
      <trkpt lat="46.0833" lon="6.39231">
        <ele>440</ele>
        <time>2016-03-26T14:00:01Z</time>
      </trkpt>
      <trkpt lat="46.08321" lon="6.39203">
        <ele>440</ele>
        <time>2016-03-26T14:00:06Z</time>
      </trkpt>
      <trkpt lat="46.08311" lon="6.3918">
        <ele>440</ele>
        <time>2016-03-26T14:00:10Z</time>
      </trkpt>
      <trkpt lat="46.08301" lon="6.39153">
        <ele>439.793762</ele>
        <time>2016-03-26T14:00:15Z</time>
      </trkpt>
      <trkpt lat="46.08292" lon="6.39128">
        <ele>439.209991</ele>
        <time>2016-03-26T14:00:20Z</time>
      </trkpt>
      <trkpt lat="46.08301" lon="6.39102">
        <ele>438.954987</ele>
        <time>2016-03-26T14:00:25Z</time>
      </trkpt>
      <trkpt lat="46.08309" lon="6.39073">
        <ele>438.584991</ele>
        <time>2016-03-26T14:00:30Z</time>
      </trkpt>
      <trkpt lat="46.08317" lon="6.39047">
        <ele>438.178741</ele>
        <time>2016-03-26T14:00:34Z</time>
      </trkpt>
      <trkpt lat="46.08326" lon="6.39022">
        <ele>437.690887</ele>
        <time>2016-03-26T14:00:38Z</time>
      </trkpt>
      <trkpt lat="46.08331" lon="6.38993">
        <ele>436.974731</ele>
        <time>2016-03-26T14:00:43Z</time>
      </trkpt>
      <trkpt lat="46.08328" lon="6.38965">
        <ele>436.600006</ele>
        <time>2016-03-26T14:00:48Z</time>
      </trkpt>
      <trkpt lat="46.08326" lon="6.38939">
        <ele>436.644989</ele>
        <time>2016-03-26T14:00:53Z</time>
      </trkpt>
      <trkpt lat="46.08315" lon="6.38916">
        <ele>436.924988</ele>
        <time>2016-03-26T14:00:58Z</time>
      </trkpt>
      <trkpt lat="46.08307" lon="6.38887">
        <ele>437.125</ele>
        <time>2016-03-26T14:01:04Z</time>
      </trkpt>
      <trkpt lat="46.08306" lon="6.38855">
        <ele>437.154999</ele>
        <time>2016-03-26T14:01:10Z</time>
      </trkpt>
      <trkpt lat="46.08309" lon="6.38821">
        <ele>437.083557</ele>
        <time>2016-03-26T14:01:16Z</time>
      </trkpt>
      <trkpt lat="46.08312" lon="6.38792">
        <ele>437.022552</ele>
        <time>2016-03-26T14:01:21Z</time>
      </trkpt>
      <trkpt lat="46.08309" lon="6.38759">
        <ele>437</ele>
        <time>2016-03-26T14:01:28Z</time>
      </trkpt>
      <trkpt lat="46.08304" lon="6.38726">
        <ele>437</ele>
        <time>2016-03-26T14:01:33Z</time>
      </trkpt>
      <trkpt lat="46.08304" lon="6.38693">
        <ele>436.816284</ele>
        <time>2016-03-26T14:01:39Z</time>
      </trkpt>
      <trkpt lat="46.08303" lon="6.38655">
        <ele>436.475922</ele>
        <time>2016-03-26T14:01:45Z</time>
      </trkpt>
      <trkpt lat="46.08299" lon="6.3862">
        <ele>436.51001</ele>
        <time>2016-03-26T14:01:50Z</time>
      </trkpt>
      <trkpt lat="46.08302" lon="6.38589">
        <ele>436.470001</ele>
        <time>2016-03-26T14:01:55Z</time>
      </trkpt>
      <trkpt lat="46.08319" lon="6.38579">
        <ele>436.084991</ele>
        <time>2016-03-26T14:02:02Z</time>
      </trkpt>
      <trkpt lat="46.08345" lon="6.38579">
        <ele>435.529999</ele>
        <time>2016-03-26T14:02:09Z</time>
      </trkpt>
      <trkpt lat="46.08369" lon="6.38578">
        <ele>435</ele>
        <time>2016-03-26T14:02:15Z</time>
      </trkpt>
      <trkpt lat="46.0839" lon="6.38582">
        <ele>435</ele>
        <time>2016-03-26T14:02:20Z</time>
      </trkpt>
      <trkpt lat="46.08404" lon="6.38558">
        <ele>435</ele>
        <time>2016-03-26T14:02:26Z</time>
      </trkpt>
      <trkpt lat="46.08406" lon="6.38527">
        <ele>435</ele>
        <time>2016-03-26T14:02:31Z</time>
      </trkpt>
      <trkpt lat="46.08404" lon="6.38499">
        <ele>435</ele>
        <time>2016-03-26T14:02:35Z</time>
      </trkpt>
      <trkpt lat="46.08402" lon="6.38472">
        <ele>435</ele>
        <time>2016-03-26T14:02:39Z</time>
      </trkpt>
      <trkpt lat="46.08397" lon="6.38443">
        <ele>435</ele>
        <time>2016-03-26T14:02:44Z</time>
      </trkpt>
      <trkpt lat="46.08394" lon="6.38409">
        <ele>435</ele>
        <time>2016-03-26T14:02:49Z</time>
      </trkpt>
      <trkpt lat="46.08391" lon="6.38376">
        <ele>434.909668</ele>
        <time>2016-03-26T14:02:54Z</time>
      </trkpt>
      <trkpt lat="46.08388" lon="6.38347">
        <ele>434.823914</ele>
        <time>2016-03-26T14:02:59Z</time>
      </trkpt>
      <trkpt lat="46.08392" lon="6.3832">
        <ele>434.718262</ele>
        <time>2016-03-26T14:03:04Z</time>
      </trkpt>
      <trkpt lat="46.08397" lon="6.38286">
        <ele>434.865326</ele>
        <time>2016-03-26T14:03:09Z</time>
      </trkpt>
      <trkpt lat="46.08397" lon="6.38256">
        <ele>435</ele>
        <time>2016-03-26T14:03:14Z</time>
      </trkpt>
      <trkpt lat="46.08396" lon="6.38227">
        <ele>435</ele>
        <time>2016-03-26T14:03:19Z</time>
      </trkpt>
      <trkpt lat="46.08397" lon="6.38197">
        <ele>435</ele>
        <time>2016-03-26T14:03:24Z</time>
      </trkpt>
      <trkpt lat="46.08398" lon="6.38166">
        <ele>435</ele>
        <time>2016-03-26T14:03:29Z</time>
      </trkpt>
      <trkpt lat="46.08402" lon="6.38135">
        <ele>434.998566</ele>
        <time>2016-03-26T14:03:34Z</time>
      </trkpt>
      <trkpt lat="46.08399" lon="6.38105">
        <ele>434.852356</ele>
        <time>2016-03-26T14:03:39Z</time>
      </trkpt>
      <trkpt lat="46.084" lon="6.38075">
        <ele>434.709747</ele>
        <time>2016-03-26T14:03:44Z</time>
      </trkpt>
      <trkpt lat="46.08408" lon="6.38045">
        <ele>434.95874</ele>
        <time>2016-03-26T14:03:49Z</time>
      </trkpt>
      <trkpt lat="46.08416" lon="6.38015">
        <ele>435.274994</ele>
        <time>2016-03-26T14:03:54Z</time>
      </trkpt>
      <trkpt lat="46.0842" lon="6.37987">
        <ele>435.218414</ele>
        <time>2016-03-26T14:03:59Z</time>
      </trkpt>
      <trkpt lat="46.0843" lon="6.37963">
        <ele>435.036713</ele>
        <time>2016-03-26T14:04:04Z</time>
      </trkpt>
      <trkpt lat="46.08438" lon="6.37931">
        <ele>434.970001</ele>
        <time>2016-03-26T14:04:10Z</time>
      </trkpt>
      <trkpt lat="46.08441" lon="6.379">
        <ele>434.924988</ele>
        <time>2016-03-26T14:04:15Z</time>
      </trkpt>
      <trkpt lat="46.08444" lon="6.3787">
        <ele>434.880005</ele>
        <time>2016-03-26T14:04:20Z</time>
      </trkpt>
      <trkpt lat="46.08448" lon="6.37841">
        <ele>434.815002</ele>
        <time>2016-03-26T14:04:25Z</time>
      </trkpt>
      <trkpt lat="46.08452" lon="6.37812">
        <ele>434.75</ele>
        <time>2016-03-26T14:04:30Z</time>
      </trkpt>
      <trkpt lat="46.08456" lon="6.37782">
        <ele>434.684998</ele>
        <time>2016-03-26T14:04:35Z</time>
      </trkpt>
      <trkpt lat="46.08462" lon="6.37751">
        <ele>434.584991</ele>
        <time>2016-03-26T14:04:41Z</time>
      </trkpt>
      <trkpt lat="46.08467" lon="6.3772">
        <ele>434.494995</ele>
        <time>2016-03-26T14:04:46Z</time>
      </trkpt>
      <trkpt lat="46.08472" lon="6.37692">
        <ele>434.394989</ele>
        <time>2016-03-26T14:04:50Z</time>
      </trkpt>
      <trkpt lat="46.08478" lon="6.37661">
        <ele>434.304993</ele>
        <time>2016-03-26T14:04:56Z</time>
      </trkpt>
      <trkpt lat="46.08482" lon="6.37632">
        <ele>434.230011</ele>
        <time>2016-03-26T14:05:00Z</time>
      </trkpt>
      <trkpt lat="46.08487" lon="6.37605">
        <ele>434.393433</ele>
        <time>2016-03-26T14:05:06Z</time>
      </trkpt>
      <trkpt lat="46.08493" lon="6.37577">
        <ele>434.746429</ele>
        <time>2016-03-26T14:05:11Z</time>
      </trkpt>
      <trkpt lat="46.08499" lon="6.37545">
        <ele>434.934998</ele>
        <time>2016-03-26T14:05:16Z</time>
      </trkpt>
      <trkpt lat="46.08503" lon="6.37519">
        <ele>434.855011</ele>
        <time>2016-03-26T14:05:20Z</time>
      </trkpt>
      <trkpt lat="46.08508" lon="6.37488">
        <ele>434.76001</ele>
        <time>2016-03-26T14:05:25Z</time>
      </trkpt>
      <trkpt lat="46.08516" lon="6.37458">
        <ele>434.625</ele>
        <time>2016-03-26T14:05:30Z</time>
      </trkpt>
      <trkpt lat="46.08521" lon="6.37433">
        <ele>434.515015</ele>
        <time>2016-03-26T14:05:34Z</time>
      </trkpt>
      <trkpt lat="46.08528" lon="6.37403">
        <ele>434.38501</ele>
        <time>2016-03-26T14:05:39Z</time>
      </trkpt>
      <trkpt lat="46.08534" lon="6.37372">
        <ele>434.290009</ele>
        <time>2016-03-26T14:05:44Z</time>
      </trkpt>
      <trkpt lat="46.08539" lon="6.37341">
        <ele>434.541138</ele>
        <time>2016-03-26T14:05:49Z</time>
      </trkpt>
      <trkpt lat="46.08554" lon="6.37339">
        <ele>434.408264</ele>
        <time>2016-03-26T14:05:57Z</time>
      </trkpt>
      <trkpt lat="46.08573" lon="6.37352">
        <ele>434.131226</ele>
        <time>2016-03-26T14:06:03Z</time>
      </trkpt>
      <trkpt lat="46.08594" lon="6.37364">
        <ele>434.045013</ele>
        <time>2016-03-26T14:06:08Z</time>
      </trkpt>
      <trkpt lat="46.08611" lon="6.37375">
        <ele>434.440002</ele>
        <time>2016-03-26T14:06:12Z</time>
      </trkpt>
      <trkpt lat="46.08629" lon="6.37385">
        <ele>434.829987</ele>
        <time>2016-03-26T14:06:17Z</time>
      </trkpt>
      <trkpt lat="46.08647" lon="6.37395">
        <ele>435.23999</ele>
        <time>2016-03-26T14:06:22Z</time>
      </trkpt>
      <trkpt lat="46.08656" lon="6.37413">
        <ele>435.445007</ele>
        <time>2016-03-26T14:06:27Z</time>
      </trkpt>
      <trkpt lat="46.08648" lon="6.37438">
        <ele>435.299988</ele>
        <time>2016-03-26T14:06:32Z</time>
      </trkpt>
      <trkpt lat="46.08643" lon="6.37468">
        <ele>435.220001</ele>
        <time>2016-03-26T14:06:37Z</time>
      </trkpt>
      <trkpt lat="46.08638" lon="6.37493">
        <ele>435.109985</ele>
        <time>2016-03-26T14:06:42Z</time>
      </trkpt>
      <trkpt lat="46.08629" lon="6.37518">
        <ele>435</ele>
        <time>2016-03-26T14:06:47Z</time>
      </trkpt>
      <trkpt lat="46.08621" lon="6.37544">
        <ele>435</ele>
        <time>2016-03-26T14:06:52Z</time>
      </trkpt>
      <trkpt lat="46.08613" lon="6.37574">
        <ele>435.053589</ele>
        <time>2016-03-26T14:06:57Z</time>
      </trkpt>
      <trkpt lat="46.08607" lon="6.37601">
        <ele>435.270294</ele>
        <time>2016-03-26T14:07:01Z</time>
      </trkpt>
      <trkpt lat="46.08602" lon="6.37632">
        <ele>435.437256</ele>
        <time>2016-03-26T14:07:06Z</time>
      </trkpt>
      <trkpt lat="46.08614" lon="6.37659">
        <ele>435.714996</ele>
        <time>2016-03-26T14:07:11Z</time>
      </trkpt>
      <trkpt lat="46.08631" lon="6.37674">
        <ele>436.069855</ele>
        <time>2016-03-26T14:07:17Z</time>
      </trkpt>
      <trkpt lat="46.08652" lon="6.37669">
        <ele>436.292542</ele>
        <time>2016-03-26T14:07:23Z</time>
      </trkpt>
      <trkpt lat="46.08669" lon="6.37662">
        <ele>436.364563</ele>
        <time>2016-03-26T14:07:28Z</time>
      </trkpt>
      <trkpt lat="46.08691" lon="6.37672">
        <ele>436.722443</ele>
        <time>2016-03-26T14:07:34Z</time>
      </trkpt>
      <trkpt lat="46.08711" lon="6.37687">
        <ele>436.968781</ele>
        <time>2016-03-26T14:07:39Z</time>
      </trkpt>
      <trkpt lat="46.08732" lon="6.37703">
        <ele>437.380005</ele>
        <time>2016-03-26T14:07:44Z</time>
      </trkpt>
      <trkpt lat="46.0875" lon="6.37715">
        <ele>437.806244</ele>
        <time>2016-03-26T14:07:48Z</time>
      </trkpt>
      <trkpt lat="46.08767" lon="6.37727">
        <ele>437.953857</ele>
        <time>2016-03-26T14:07:52Z</time>
      </trkpt>
      <trkpt lat="46.08783" lon="6.3774">
        <ele>437.759705</ele>
        <time>2016-03-26T14:07:56Z</time>
      </trkpt>
      <trkpt lat="46.088" lon="6.37752">
        <ele>437.420715</ele>
        <time>2016-03-26T14:08:00Z</time>
      </trkpt>
      <trkpt lat="46.08817" lon="6.37765">
        <ele>437.133453</ele>
        <time>2016-03-26T14:08:04Z</time>
      </trkpt>
      <trkpt lat="46.08837" lon="6.3778">
        <ele>436.999023</ele>
        <time>2016-03-26T14:08:09Z</time>
      </trkpt>
      <trkpt lat="46.08856" lon="6.37791">
        <ele>437.049988</ele>
        <time>2016-03-26T14:08:14Z</time>
      </trkpt>
      <trkpt lat="46.08874" lon="6.37802">
        <ele>437.303741</ele>
        <time>2016-03-26T14:08:19Z</time>
      </trkpt>
      <trkpt lat="46.0889" lon="6.37815">
        <ele>437.486237</ele>
        <time>2016-03-26T14:08:24Z</time>
      </trkpt>
      <trkpt lat="46.08907" lon="6.37825">
        <ele>439.292938</ele>
        <time>2016-03-26T14:08:30Z</time>
      </trkpt>
      <trkpt lat="46.08928" lon="6.37834">
        <ele>441.780182</ele>
        <time>2016-03-26T14:08:37Z</time>
      </trkpt>
      <trkpt lat="46.08948" lon="6.37841">
        <ele>445.629944</ele>
        <time>2016-03-26T14:08:44Z</time>
      </trkpt>
      <trkpt lat="46.08967" lon="6.37846">
        <ele>449.757202</ele>
        <time>2016-03-26T14:08:52Z</time>
      </trkpt>
      <trkpt lat="46.08986" lon="6.3785">
        <ele>454.137512</ele>
        <time>2016-03-26T14:09:01Z</time>
      </trkpt>
      <trkpt lat="46.09004" lon="6.37858">
        <ele>458.39267</ele>
        <time>2016-03-26T14:09:13Z</time>
      </trkpt>
      <trkpt lat="46.09006" lon="6.37882">
        <ele>460.512421</ele>
        <time>2016-03-26T14:09:34Z</time>
      </trkpt>
      <trkpt lat="46.08999" lon="6.3791">
        <ele>460.629913</ele>
        <time>2016-03-26T14:09:41Z</time>
      </trkpt>
      <trkpt lat="46.08987" lon="6.37934">
        <ele>459.524994</ele>
        <time>2016-03-26T14:09:47Z</time>
      </trkpt>
      <trkpt lat="46.08975" lon="6.37957">
        <ele>458.649994</ele>
        <time>2016-03-26T14:09:54Z</time>
      </trkpt>
      <trkpt lat="46.08963" lon="6.37979">
        <ele>457.700012</ele>
        <time>2016-03-26T14:10:01Z</time>
      </trkpt>
      <trkpt lat="46.08952" lon="6.38001">
        <ele>456.883759</ele>
        <time>2016-03-26T14:10:07Z</time>
      </trkpt>
      <trkpt lat="46.0894" lon="6.38024">
        <ele>456.024994</ele>
        <time>2016-03-26T14:10:13Z</time>
      </trkpt>
      <trkpt lat="46.08928" lon="6.38046">
        <ele>455.13623</ele>
        <time>2016-03-26T14:10:19Z</time>
      </trkpt>
      <trkpt lat="46.08916" lon="6.38069">
        <ele>454.339081</ele>
        <time>2016-03-26T14:10:25Z</time>
      </trkpt>
      <trkpt lat="46.08905" lon="6.38091">
        <ele>453.457245</ele>
        <time>2016-03-26T14:10:31Z</time>
      </trkpt>
      <trkpt lat="46.08892" lon="6.38116">
        <ele>452.415009</ele>
        <time>2016-03-26T14:10:37Z</time>
      </trkpt>
      <trkpt lat="46.0888" lon="6.38142">
        <ele>451.360016</ele>
        <time>2016-03-26T14:10:43Z</time>
      </trkpt>
      <trkpt lat="46.0887" lon="6.38166">
        <ele>451.234985</ele>
        <time>2016-03-26T14:10:48Z</time>
      </trkpt>
      <trkpt lat="46.08862" lon="6.38194">
        <ele>451.41687</ele>
        <time>2016-03-26T14:10:53Z</time>
      </trkpt>
      <trkpt lat="46.08856" lon="6.3822">
        <ele>451.766327</ele>
        <time>2016-03-26T14:10:57Z</time>
      </trkpt>
      <trkpt lat="46.0885" lon="6.38248">
        <ele>452.122864</ele>
        <time>2016-03-26T14:11:01Z</time>
      </trkpt>
      <trkpt lat="46.08844" lon="6.38277">
        <ele>452.481903</ele>
        <time>2016-03-26T14:11:05Z</time>
      </trkpt>
      <trkpt lat="46.08838" lon="6.38304">
        <ele>452.720398</ele>
        <time>2016-03-26T14:11:09Z</time>
      </trkpt>
      <trkpt lat="46.08832" lon="6.38332">
        <ele>452.79837</ele>
        <time>2016-03-26T14:11:13Z</time>
      </trkpt>
      <trkpt lat="46.08825" lon="6.38363">
        <ele>452.716797</ele>
        <time>2016-03-26T14:11:17Z</time>
      </trkpt>
      <trkpt lat="46.08821" lon="6.38389">
        <ele>452.71701</ele>
        <time>2016-03-26T14:11:20Z</time>
      </trkpt>
      <trkpt lat="46.08818" lon="6.38417">
        <ele>452.900146</ele>
        <time>2016-03-26T14:11:23Z</time>
      </trkpt>
      <trkpt lat="46.08814" lon="6.38447">
        <ele>452.751556</ele>
        <time>2016-03-26T14:11:26Z</time>
      </trkpt>
      <trkpt lat="46.08811" lon="6.38476">
        <ele>452.470154</ele>
        <time>2016-03-26T14:11:29Z</time>
      </trkpt>
      <trkpt lat="46.08807" lon="6.38502">
        <ele>452.101807</ele>
        <time>2016-03-26T14:11:32Z</time>
      </trkpt>
      <trkpt lat="46.08803" lon="6.38532">
        <ele>451.889252</ele>
        <time>2016-03-26T14:11:36Z</time>
      </trkpt>
      <trkpt lat="46.088" lon="6.38563">
        <ele>451.771759</ele>
        <time>2016-03-26T14:11:40Z</time>
      </trkpt>
      <trkpt lat="46.08806" lon="6.38577">
        <ele>454.252777</ele>
        <time>2016-03-26T14:11:46Z</time>
      </trkpt>
      <trkpt lat="46.08816" lon="6.38552">
        <ele>456.581757</ele>
        <time>2016-03-26T14:13:09Z</time>
      </trkpt>
      <trkpt lat="46.08824" lon="6.38524">
        <ele>458.353607</ele>
        <time>2016-03-26T14:13:19Z</time>
      </trkpt>
      <trkpt lat="46.08829" lon="6.38496">
        <ele>459.043274</ele>
        <time>2016-03-26T14:13:29Z</time>
      </trkpt>
      <trkpt lat="46.08837" lon="6.38471">
        <ele>460.857361</ele>
        <time>2016-03-26T14:13:38Z</time>
      </trkpt>
      <trkpt lat="46.08845" lon="6.38447">
        <ele>463.035126</ele>
        <time>2016-03-26T14:13:47Z</time>
      </trkpt>
      <trkpt lat="46.08857" lon="6.38427">
        <ele>466.664581</ele>
        <time>2016-03-26T14:13:57Z</time>
      </trkpt>
      <trkpt lat="46.08865" lon="6.38404">
        <ele>467.808319</ele>
        <time>2016-03-26T14:14:08Z</time>
      </trkpt>
      <trkpt lat="46.08878" lon="6.38378">
        <ele>469.911591</ele>
        <time>2016-03-26T14:14:18Z</time>
      </trkpt>
      <trkpt lat="46.08889" lon="6.38351">
        <ele>470.633362</ele>
        <time>2016-03-26T14:14:28Z</time>
      </trkpt>
      <trkpt lat="46.08901" lon="6.38329">
        <ele>472.103058</ele>
        <time>2016-03-26T14:14:38Z</time>
      </trkpt>
      <trkpt lat="46.08918" lon="6.38312">
        <ele>475.372589</ele>
        <time>2016-03-26T14:15:00Z</time>
      </trkpt>
      <trkpt lat="46.08935" lon="6.38301">
        <ele>479.034851</ele>
        <time>2016-03-26T14:15:11Z</time>
      </trkpt>
      <trkpt lat="46.08952" lon="6.38293">
        <ele>482.625214</ele>
        <time>2016-03-26T14:15:19Z</time>
      </trkpt>
      <trkpt lat="46.08969" lon="6.38279">
        <ele>485.936249</ele>
        <time>2016-03-26T14:15:28Z</time>
      </trkpt>
      <trkpt lat="46.08984" lon="6.38264">
        <ele>489.022491</ele>
        <time>2016-03-26T14:15:39Z</time>
      </trkpt>
      <trkpt lat="46.09001" lon="6.38251">
        <ele>492.776245</ele>
        <time>2016-03-26T14:15:52Z</time>
      </trkpt>
      <trkpt lat="46.09016" lon="6.38233">
        <ele>495.200134</ele>
        <time>2016-03-26T14:16:06Z</time>
      </trkpt>
      <trkpt lat="46.0903" lon="6.38214">
        <ele>496.965759</ele>
        <time>2016-03-26T14:16:21Z</time>
      </trkpt>
      <trkpt lat="46.09045" lon="6.38196">
        <ele>499.787994</ele>
        <time>2016-03-26T14:16:36Z</time>
      </trkpt>
      <trkpt lat="46.09061" lon="6.38176">
        <ele>502.908173</ele>
        <time>2016-03-26T14:16:51Z</time>
      </trkpt>
      <trkpt lat="46.09078" lon="6.38163">
        <ele>505.721771</ele>
        <time>2016-03-26T14:17:05Z</time>
      </trkpt>
      <trkpt lat="46.09093" lon="6.38148">
        <ele>508.386871</ele>
        <time>2016-03-26T14:17:19Z</time>
      </trkpt>
      <trkpt lat="46.09108" lon="6.38131">
        <ele>511.170166</ele>
        <time>2016-03-26T14:17:33Z</time>
      </trkpt>
      <trkpt lat="46.09122" lon="6.38113">
        <ele>514.049988</ele>
        <time>2016-03-26T14:17:47Z</time>
      </trkpt>
      <trkpt lat="46.09135" lon="6.38092">
        <ele>516.205017</ele>
        <time>2016-03-26T14:18:00Z</time>
      </trkpt>
      <trkpt lat="46.09147" lon="6.38069">
        <ele>517.914978</ele>
        <time>2016-03-26T14:18:11Z</time>
      </trkpt>
      <trkpt lat="46.0916" lon="6.38048">
        <ele>520.048767</ele>
        <time>2016-03-26T14:18:21Z</time>
      </trkpt>
      <trkpt lat="46.09167" lon="6.3806">
        <ele>523.107666</ele>
        <time>2016-03-26T14:18:35Z</time>
      </trkpt>
      <trkpt lat="46.09165" lon="6.38086">
        <ele>524.846802</ele>
        <time>2016-03-26T14:18:47Z</time>
      </trkpt>
      <trkpt lat="46.09168" lon="6.38113">
        <ele>528.427002</ele>
        <time>2016-03-26T14:19:00Z</time>
      </trkpt>
      <trkpt lat="46.09168" lon="6.3814">
        <ele>531.053101</ele>
        <time>2016-03-26T14:19:11Z</time>
      </trkpt>
      <trkpt lat="46.09165" lon="6.38166">
        <ele>531.659485</ele>
        <time>2016-03-26T14:19:21Z</time>
      </trkpt>
      <trkpt lat="46.09163" lon="6.38194">
        <ele>532.767334</ele>
        <time>2016-03-26T14:19:31Z</time>
      </trkpt>
      <trkpt lat="46.09155" lon="6.3822">
        <ele>532.136414</ele>
        <time>2016-03-26T14:19:40Z</time>
      </trkpt>
      <trkpt lat="46.09148" lon="6.38247">
        <ele>531.859436</ele>
        <time>2016-03-26T14:19:49Z</time>
      </trkpt>
      <trkpt lat="46.09141" lon="6.38273">
        <ele>531.956726</ele>
        <time>2016-03-26T14:19:57Z</time>
      </trkpt>
      <trkpt lat="46.09132" lon="6.38297">
        <ele>531.360168</ele>
        <time>2016-03-26T14:20:05Z</time>
      </trkpt>
      <trkpt lat="46.09122" lon="6.38319">
        <ele>530.335266</ele>
        <time>2016-03-26T14:20:13Z</time>
      </trkpt>
      <trkpt lat="46.09117" lon="6.38345">
        <ele>530.666992</ele>
        <time>2016-03-26T14:20:21Z</time>
      </trkpt>
      <trkpt lat="46.09125" lon="6.38372">
        <ele>534.486084</ele>
        <time>2016-03-26T14:20:29Z</time>
      </trkpt>
      <trkpt lat="46.09125" lon="6.38399">
        <ele>538.52124</ele>
        <time>2016-03-26T14:20:37Z</time>
      </trkpt>
      <trkpt lat="46.09111" lon="6.38416">
        <ele>537.65741</ele>
        <time>2016-03-26T14:20:45Z</time>
      </trkpt>
      <trkpt lat="46.09103" lon="6.38442">
        <ele>539.436462</ele>
        <time>2016-03-26T14:20:54Z</time>
      </trkpt>
      <trkpt lat="46.09096" lon="6.38469">
        <ele>541.293152</ele>
        <time>2016-03-26T14:21:02Z</time>
      </trkpt>
      <trkpt lat="46.09088" lon="6.38498">
        <ele>542.658325</ele>
        <time>2016-03-26T14:21:11Z</time>
      </trkpt>
      <trkpt lat="46.09079" lon="6.38525">
        <ele>541.108459</ele>
        <time>2016-03-26T14:21:20Z</time>
      </trkpt>
      <trkpt lat="46.09072" lon="6.38552">
        <ele>539.722534</ele>
        <time>2016-03-26T14:21:29Z</time>
      </trkpt>
      <trkpt lat="46.09081" lon="6.38578">
        <ele>544.171265</ele>
        <time>2016-03-26T14:21:37Z</time>
      </trkpt>
      <trkpt lat="46.09086" lon="6.38606">
        <ele>549.617493</ele>
        <time>2016-03-26T14:21:46Z</time>
      </trkpt>
      <trkpt lat="46.09078" lon="6.38632">
        <ele>551.162476</ele>
        <time>2016-03-26T14:21:54Z</time>
      </trkpt>
      <trkpt lat="46.09065" lon="6.38657">
        <ele>551.216675</ele>
        <time>2016-03-26T14:22:01Z</time>
      </trkpt>
      <trkpt lat="46.09053" lon="6.3868">
        <ele>551.454651</ele>
        <time>2016-03-26T14:22:08Z</time>
      </trkpt>
      <trkpt lat="46.09042" lon="6.38706">
        <ele>550.964966</ele>
        <time>2016-03-26T14:22:16Z</time>
      </trkpt>
      <trkpt lat="46.09041" lon="6.38732">
        <ele>551.762512</ele>
        <time>2016-03-26T14:22:22Z</time>
      </trkpt>
      <trkpt lat="46.0904" lon="6.38756">
        <ele>552.595032</ele>
        <time>2016-03-26T14:22:30Z</time>
      </trkpt>
      <trkpt lat="46.09036" lon="6.3879">
        <ele>551.525024</ele>
        <time>2016-03-26T14:22:38Z</time>
      </trkpt>
      <trkpt lat="46.09039" lon="6.38822">
        <ele>552.652832</ele>
        <time>2016-03-26T14:22:46Z</time>
      </trkpt>
      <trkpt lat="46.09046" lon="6.38848">
        <ele>555.590027</ele>
        <time>2016-03-26T14:22:54Z</time>
      </trkpt>
      <trkpt lat="46.09053" lon="6.38873">
        <ele>558.309998</ele>
        <time>2016-03-26T14:23:02Z</time>
      </trkpt>
      <trkpt lat="46.0906" lon="6.38901">
        <ele>561.180664</ele>
        <time>2016-03-26T14:23:12Z</time>
      </trkpt>
      <trkpt lat="46.09062" lon="6.38931">
        <ele>561.494446</ele>
        <time>2016-03-26T14:23:21Z</time>
      </trkpt>
      <trkpt lat="46.09062" lon="6.3896">
        <ele>561.160278</ele>
        <time>2016-03-26T14:23:29Z</time>
      </trkpt>
      <trkpt lat="46.09069" lon="6.38987">
        <ele>564.822571</ele>
        <time>2016-03-26T14:23:38Z</time>
      </trkpt>
      <trkpt lat="46.09075" lon="6.39017">
        <ele>568.499634</ele>
        <time>2016-03-26T14:23:47Z</time>
      </trkpt>
      <trkpt lat="46.09076" lon="6.39043">
        <ele>570.030457</ele>
        <time>2016-03-26T14:23:56Z</time>
      </trkpt>
      <trkpt lat="46.09084" lon="6.39071">
        <ele>574.761108</ele>
        <time>2016-03-26T14:24:04Z</time>
      </trkpt>
      <trkpt lat="46.09086" lon="6.39102">
        <ele>576.974304</ele>
        <time>2016-03-26T14:24:11Z</time>
      </trkpt>
      <trkpt lat="46.09086" lon="6.39133">
        <ele>578.720764</ele>
        <time>2016-03-26T14:24:19Z</time>
      </trkpt>
      <trkpt lat="46.09085" lon="6.39164">
        <ele>579.708923</ele>
        <time>2016-03-26T14:24:28Z</time>
      </trkpt>
      <trkpt lat="46.09089" lon="6.39191">
        <ele>581.996094</ele>
        <time>2016-03-26T14:24:36Z</time>
      </trkpt>
      <trkpt lat="46.09094" lon="6.39223">
        <ele>584.676147</ele>
        <time>2016-03-26T14:24:44Z</time>
      </trkpt>
      <trkpt lat="46.09098" lon="6.39253">
        <ele>586.083557</ele>
        <time>2016-03-26T14:24:52Z</time>
      </trkpt>
      <trkpt lat="46.09098" lon="6.39282">
        <ele>585.954102</ele>
        <time>2016-03-26T14:25:00Z</time>
      </trkpt>
      <trkpt lat="46.09098" lon="6.39314">
        <ele>586.29071</ele>
        <time>2016-03-26T14:25:08Z</time>
      </trkpt>
      <trkpt lat="46.09095" lon="6.39341">
        <ele>585.714417</ele>
        <time>2016-03-26T14:25:15Z</time>
      </trkpt>
      <trkpt lat="46.09089" lon="6.39368">
        <ele>584.651123</ele>
        <time>2016-03-26T14:25:22Z</time>
      </trkpt>
      <trkpt lat="46.09088" lon="6.39399">
        <ele>584.886902</ele>
        <time>2016-03-26T14:25:30Z</time>
      </trkpt>
      <trkpt lat="46.09093" lon="6.3943">
        <ele>586.160278</ele>
        <time>2016-03-26T14:25:38Z</time>
      </trkpt>
      <trkpt lat="46.09099" lon="6.39461">
        <ele>587.514465</ele>
        <time>2016-03-26T14:25:46Z</time>
      </trkpt>
      <trkpt lat="46.09102" lon="6.39492">
        <ele>588.160339</ele>
        <time>2016-03-26T14:25:54Z</time>
      </trkpt>
      <trkpt lat="46.091" lon="6.3952">
        <ele>587.270996</ele>
        <time>2016-03-26T14:26:02Z</time>
      </trkpt>
      <trkpt lat="46.09105" lon="6.39547">
        <ele>589.163208</ele>
        <time>2016-03-26T14:26:10Z</time>
      </trkpt>
      <trkpt lat="46.09117" lon="6.39574">
        <ele>594.143188</ele>
        <time>2016-03-26T14:26:19Z</time>
      </trkpt>
      <trkpt lat="46.09119" lon="6.39604">
        <ele>595.589355</ele>
        <time>2016-03-26T14:26:27Z</time>
      </trkpt>
      <trkpt lat="46.09122" lon="6.39633">
        <ele>597.838257</ele>
        <time>2016-03-26T14:26:36Z</time>
      </trkpt>
      <trkpt lat="46.09124" lon="6.39663">
        <ele>599.870483</ele>
        <time>2016-03-26T14:26:44Z</time>
      </trkpt>
      <trkpt lat="46.09117" lon="6.39694">
        <ele>598.041199</ele>
        <time>2016-03-26T14:26:52Z</time>
      </trkpt>
      <trkpt lat="46.09112" lon="6.39724">
        <ele>596.693359</ele>
        <time>2016-03-26T14:26:59Z</time>
      </trkpt>
      <trkpt lat="46.09114" lon="6.39752">
        <ele>598.212219</ele>
        <time>2016-03-26T14:27:05Z</time>
      </trkpt>
      <trkpt lat="46.09119" lon="6.39782">
        <ele>600.84491</ele>
        <time>2016-03-26T14:27:12Z</time>
      </trkpt>
      <trkpt lat="46.09124" lon="6.39811">
        <ele>603.222778</ele>
        <time>2016-03-26T14:27:19Z</time>
      </trkpt>
      <trkpt lat="46.09125" lon="6.39838">
        <ele>603.258423</ele>
        <time>2016-03-26T14:27:26Z</time>
      </trkpt>
      <trkpt lat="46.09132" lon="6.39863">
        <ele>605.838501</ele>
        <time>2016-03-26T14:27:34Z</time>
      </trkpt>
      <trkpt lat="46.09144" lon="6.39888">
        <ele>609.755127</ele>
        <time>2016-03-26T14:27:42Z</time>
      </trkpt>
      <trkpt lat="46.0915" lon="6.39914">
        <ele>611.373901</ele>
        <time>2016-03-26T14:27:49Z</time>
      </trkpt>
      <trkpt lat="46.09153" lon="6.39945">
        <ele>611.870239</ele>
        <time>2016-03-26T14:27:58Z</time>
      </trkpt>
      <trkpt lat="46.09163" lon="6.39977">
        <ele>614.546509</ele>
        <time>2016-03-26T14:28:06Z</time>
      </trkpt>
      <trkpt lat="46.09173" lon="6.40005">
        <ele>617.942566</ele>
        <time>2016-03-26T14:28:13Z</time>
      </trkpt>
      <trkpt lat="46.09182" lon="6.4003">
        <ele>621.044067</ele>
        <time>2016-03-26T14:28:20Z</time>
      </trkpt>
      <trkpt lat="46.09181" lon="6.40059">
        <ele>620.109009</ele>
        <time>2016-03-26T14:28:27Z</time>
      </trkpt>
      <trkpt lat="46.09179" lon="6.40088">
        <ele>617.992981</ele>
        <time>2016-03-26T14:28:33Z</time>
      </trkpt>
      <trkpt lat="46.09177" lon="6.40116">
        <ele>615.812927</ele>
        <time>2016-03-26T14:28:38Z</time>
      </trkpt>
      <trkpt lat="46.09184" lon="6.40145">
        <ele>618.371704</ele>
        <time>2016-03-26T14:28:44Z</time>
      </trkpt>
      <trkpt lat="46.09201" lon="6.40165">
        <ele>625.241821</ele>
        <time>2016-03-26T14:28:53Z</time>
      </trkpt>
      <trkpt lat="46.09202" lon="6.40167">
        <ele>625.668091</ele>
        <time>2016-03-26T14:29:36Z</time>
      </trkpt>
      <trkpt lat="46.09187" lon="6.40134">
        <ele>619.635315</ele>
        <time>2016-03-26T14:29:50Z</time>
      </trkpt>
      <trkpt lat="46.09185" lon="6.40127">
        <ele>619.151184</ele>
        <time>2016-03-26T14:30:07Z</time>
      </trkpt>
      <trkpt lat="46.09198" lon="6.40156">
        <ele>624.387024</ele>
        <time>2016-03-26T14:30:16Z</time>
      </trkpt>
      <trkpt lat="46.09208" lon="6.40184">
        <ele>627.527954</ele>
        <time>2016-03-26T14:30:23Z</time>
      </trkpt>
      <trkpt lat="46.09218" lon="6.4021">
        <ele>630.127075</ele>
        <time>2016-03-26T14:30:30Z</time>
      </trkpt>
      <trkpt lat="46.09221" lon="6.40241">
        <ele>629.641602</ele>
        <time>2016-03-26T14:30:36Z</time>
      </trkpt>
      <trkpt lat="46.09218" lon="6.40272">
        <ele>626.401917</ele>
        <time>2016-03-26T14:30:41Z</time>
      </trkpt>
      <trkpt lat="46.09208" lon="6.403">
        <ele>618.977661</ele>
        <time>2016-03-26T14:30:46Z</time>
      </trkpt>
      <trkpt lat="46.09197" lon="6.40328">
        <ele>611.275024</ele>
        <time>2016-03-26T14:30:51Z</time>
      </trkpt>
      <trkpt lat="46.09204" lon="6.40359">
        <ele>612.76001</ele>
        <time>2016-03-26T14:30:56Z</time>
      </trkpt>
      <trkpt lat="46.09214" lon="6.40386">
        <ele>615.83313</ele>
        <time>2016-03-26T14:31:00Z</time>
      </trkpt>
      <trkpt lat="46.09212" lon="6.40419">
        <ele>614.867249</ele>
        <time>2016-03-26T14:31:04Z</time>
      </trkpt>
      <trkpt lat="46.09214" lon="6.40451">
        <ele>615.027344</ele>
        <time>2016-03-26T14:31:08Z</time>
      </trkpt>
      <trkpt lat="46.09222" lon="6.40483">
        <ele>617.811279</ele>
        <time>2016-03-26T14:31:12Z</time>
      </trkpt>
      <trkpt lat="46.09224" lon="6.40509">
        <ele>618.155029</ele>
        <time>2016-03-26T14:31:15Z</time>
      </trkpt>
      <trkpt lat="46.09224" lon="6.40541">
        <ele>619.609314</ele>
        <time>2016-03-26T14:31:19Z</time>
      </trkpt>
      <trkpt lat="46.09226" lon="6.40569">
        <ele>623.138428</ele>
        <time>2016-03-26T14:31:23Z</time>
      </trkpt>
      <trkpt lat="46.09215" lon="6.40595">
        <ele>621.738281</ele>
        <time>2016-03-26T14:31:28Z</time>
      </trkpt>
      <trkpt lat="46.092" lon="6.40615">
        <ele>618.92688</ele>
        <time>2016-03-26T14:31:33Z</time>
      </trkpt>
      <trkpt lat="46.09189" lon="6.4064">
        <ele>618.271118</ele>
        <time>2016-03-26T14:31:38Z</time>
      </trkpt>
      <trkpt lat="46.09182" lon="6.40666">
        <ele>618.884216</ele>
        <time>2016-03-26T14:31:44Z</time>
      </trkpt>
      <trkpt lat="46.09176" lon="6.40694">
        <ele>619.693726</ele>
        <time>2016-03-26T14:31:51Z</time>
      </trkpt>
      <trkpt lat="46.09166" lon="6.40721">
        <ele>619.407532</ele>
        <time>2016-03-26T14:32:00Z</time>
      </trkpt>
      <trkpt lat="46.09167" lon="6.4075">
        <ele>619.467468</ele>
        <time>2016-03-26T14:32:07Z</time>
      </trkpt>
      <trkpt lat="46.09174" lon="6.40779">
        <ele>621.433777</ele>
        <time>2016-03-26T14:32:14Z</time>
      </trkpt>
      <trkpt lat="46.09182" lon="6.40807">
        <ele>622.473633</ele>
        <time>2016-03-26T14:32:21Z</time>
      </trkpt>
      <trkpt lat="46.09191" lon="6.40831">
        <ele>623.859802</ele>
        <time>2016-03-26T14:32:28Z</time>
      </trkpt>
      <trkpt lat="46.092" lon="6.40855">
        <ele>625.965393</ele>
        <time>2016-03-26T14:32:35Z</time>
      </trkpt>
      <trkpt lat="46.0921" lon="6.40881">
        <ele>629.220642</ele>
        <time>2016-03-26T14:32:43Z</time>
      </trkpt>
      <trkpt lat="46.0922" lon="6.40907">
        <ele>632.88501</ele>
        <time>2016-03-26T14:32:50Z</time>
      </trkpt>
      <trkpt lat="46.09226" lon="6.40936">
        <ele>636.685913</ele>
        <time>2016-03-26T14:32:57Z</time>
      </trkpt>
      <trkpt lat="46.09228" lon="6.40967">
        <ele>639.196594</ele>
        <time>2016-03-26T14:33:04Z</time>
      </trkpt>
      <trkpt lat="46.09227" lon="6.40995">
        <ele>640.513489</ele>
        <time>2016-03-26T14:33:10Z</time>
      </trkpt>
      <trkpt lat="46.09222" lon="6.41022">
        <ele>640.564636</ele>
        <time>2016-03-26T14:33:16Z</time>
      </trkpt>
      <trkpt lat="46.09214" lon="6.41047">
        <ele>639.331543</ele>
        <time>2016-03-26T14:33:22Z</time>
      </trkpt>
      <trkpt lat="46.09207" lon="6.41071">
        <ele>638.02002</ele>
        <time>2016-03-26T14:33:29Z</time>
      </trkpt>
      <trkpt lat="46.09202" lon="6.41102">
        <ele>638.179199</ele>
        <time>2016-03-26T14:33:36Z</time>
      </trkpt>
      <trkpt lat="46.09207" lon="6.41128">
        <ele>640.63501</ele>
        <time>2016-03-26T14:33:42Z</time>
      </trkpt>
      <trkpt lat="46.09214" lon="6.41154">
        <ele>644.155029</ele>
        <time>2016-03-26T14:33:48Z</time>
      </trkpt>
      <trkpt lat="46.09218" lon="6.41183">
        <ele>646.584412</ele>
        <time>2016-03-26T14:33:55Z</time>
      </trkpt>
      <trkpt lat="46.09211" lon="6.41209">
        <ele>645.539001</ele>
        <time>2016-03-26T14:34:02Z</time>
      </trkpt>
      <trkpt lat="46.09209" lon="6.41236">
        <ele>645.997131</ele>
        <time>2016-03-26T14:34:09Z</time>
      </trkpt>
      <trkpt lat="46.09228" lon="6.41233">
        <ele>651.215942</ele>
        <time>2016-03-26T14:34:21Z</time>
      </trkpt>
      <trkpt lat="46.09248" lon="6.41245">
        <ele>656.359985</ele>
        <time>2016-03-26T14:34:32Z</time>
      </trkpt>
      <trkpt lat="46.09246" lon="6.41271">
        <ele>657.880005</ele>
        <time>2016-03-26T14:34:43Z</time>
      </trkpt>
      <trkpt lat="46.09235" lon="6.41296">
        <ele>656.835022</ele>
        <time>2016-03-26T14:34:52Z</time>
      </trkpt>
      <trkpt lat="46.09224" lon="6.41324">
        <ele>658.020813</ele>
        <time>2016-03-26T14:35:02Z</time>
      </trkpt>
      <trkpt lat="46.09228" lon="6.41351">
        <ele>663.35376</ele>
        <time>2016-03-26T14:35:12Z</time>
      </trkpt>
      <trkpt lat="46.09247" lon="6.4135">
        <ele>668.322754</ele>
        <time>2016-03-26T14:35:22Z</time>
      </trkpt>
      <trkpt lat="46.09263" lon="6.41336">
        <ele>670.108276</ele>
        <time>2016-03-26T14:35:32Z</time>
      </trkpt>
      <trkpt lat="46.0928" lon="6.41321">
        <ele>670.692749</ele>
        <time>2016-03-26T14:35:43Z</time>
      </trkpt>
      <trkpt lat="46.09297" lon="6.41299">
        <ele>671.524048</ele>
        <time>2016-03-26T14:35:54Z</time>
      </trkpt>
      <trkpt lat="46.09305" lon="6.41264">
        <ele>672.618469</ele>
        <time>2016-03-26T14:36:07Z</time>
      </trkpt>
      <trkpt lat="46.09308" lon="6.41227">
        <ele>673.458923</ele>
        <time>2016-03-26T14:36:20Z</time>
      </trkpt>
      <trkpt lat="46.09312" lon="6.41192">
        <ele>676.079407</ele>
        <time>2016-03-26T14:36:33Z</time>
      </trkpt>
      <trkpt lat="46.0932" lon="6.41165">
        <ele>678.82605</ele>
        <time>2016-03-26T14:36:43Z</time>
      </trkpt>
      <trkpt lat="46.09331" lon="6.41141">
        <ele>681.696899</ele>
        <time>2016-03-26T14:36:52Z</time>
      </trkpt>
      <trkpt lat="46.09343" lon="6.41117">
        <ele>684.530029</ele>
        <time>2016-03-26T14:37:02Z</time>
      </trkpt>
      <trkpt lat="46.09353" lon="6.41094">
        <ele>686.585022</ele>
        <time>2016-03-26T14:37:11Z</time>
      </trkpt>
      <trkpt lat="46.09361" lon="6.41069">
        <ele>687.687927</ele>
        <time>2016-03-26T14:37:20Z</time>
      </trkpt>
      <trkpt lat="46.09367" lon="6.41042">
        <ele>688.081238</ele>
        <time>2016-03-26T14:37:30Z</time>
      </trkpt>
      <trkpt lat="46.09373" lon="6.41016">
        <ele>688.931213</ele>
        <time>2016-03-26T14:37:39Z</time>
      </trkpt>
      <trkpt lat="46.09384" lon="6.40995">
        <ele>690.835022</ele>
        <time>2016-03-26T14:37:48Z</time>
      </trkpt>
      <trkpt lat="46.09402" lon="6.40984">
        <ele>694.025024</ele>
        <time>2016-03-26T14:37:59Z</time>
      </trkpt>
      <trkpt lat="46.09421" lon="6.40977">
        <ele>698.01001</ele>
        <time>2016-03-26T14:38:07Z</time>
      </trkpt>
      <trkpt lat="46.09439" lon="6.40966">
        <ele>701.409973</ele>
        <time>2016-03-26T14:38:14Z</time>
      </trkpt>
      <trkpt lat="46.09456" lon="6.40955">
        <ele>704.819824</ele>
        <time>2016-03-26T14:38:21Z</time>
      </trkpt>
      <trkpt lat="46.09465" lon="6.4093">
        <ele>705.942505</ele>
        <time>2016-03-26T14:38:28Z</time>
      </trkpt>
      <trkpt lat="46.0946" lon="6.40901">
        <ele>704.592529</ele>
        <time>2016-03-26T14:38:36Z</time>
      </trkpt>
      <trkpt lat="46.09454" lon="6.40872">
        <ele>703.229126</ele>
        <time>2016-03-26T14:38:44Z</time>
      </trkpt>
      <trkpt lat="46.09465" lon="6.40865">
        <ele>705.580017</ele>
        <time>2016-03-26T14:38:53Z</time>
      </trkpt>
      <trkpt lat="46.09475" lon="6.4089">
        <ele>708.28125</ele>
        <time>2016-03-26T14:39:07Z</time>
      </trkpt>
      <trkpt lat="46.09484" lon="6.40898">
        <ele>710.57196</ele>
        <time>2016-03-26T14:39:24Z</time>
      </trkpt>
      <trkpt lat="46.09471" lon="6.40879">
        <ele>707.194031</ele>
        <time>2016-03-26T14:39:39Z</time>
      </trkpt>
      <trkpt lat="46.09465" lon="6.40853">
        <ele>705.147522</ele>
        <time>2016-03-26T14:39:52Z</time>
      </trkpt>
      <trkpt lat="46.0947" lon="6.40867">
        <ele>706.742493</ele>
        <time>2016-03-26T14:40:03Z</time>
      </trkpt>
      <trkpt lat="46.0948" lon="6.4089">
        <ele>709.371521</ele>
        <time>2016-03-26T14:40:16Z</time>
      </trkpt>
      <trkpt lat="46.0949" lon="6.40912">
        <ele>712.420776</ele>
        <time>2016-03-26T14:40:28Z</time>
      </trkpt>
      <trkpt lat="46.09494" lon="6.40937">
        <ele>714.33606</ele>
        <time>2016-03-26T14:40:39Z</time>
      </trkpt>
      <trkpt lat="46.09487" lon="6.40962">
        <ele>713.186951</ele>
        <time>2016-03-26T14:40:49Z</time>
      </trkpt>
      <trkpt lat="46.09482" lon="6.40989">
        <ele>713.148926</ele>
        <time>2016-03-26T14:40:59Z</time>
      </trkpt>
      <trkpt lat="46.09485" lon="6.41018">
        <ele>714.803284</ele>
        <time>2016-03-26T14:41:08Z</time>
      </trkpt>
      <trkpt lat="46.09484" lon="6.41045">
        <ele>715.492981</ele>
        <time>2016-03-26T14:41:16Z</time>
      </trkpt>
      <trkpt lat="46.09483" lon="6.41074">
        <ele>716.278259</ele>
        <time>2016-03-26T14:41:24Z</time>
      </trkpt>
      <trkpt lat="46.09498" lon="6.41087">
        <ele>720.639282</ele>
        <time>2016-03-26T14:41:32Z</time>
      </trkpt>
      <trkpt lat="46.09508" lon="6.41067">
        <ele>722.802307</ele>
        <time>2016-03-26T14:41:40Z</time>
      </trkpt>
      <trkpt lat="46.09517" lon="6.41044">
        <ele>724.402466</ele>
        <time>2016-03-26T14:41:49Z</time>
      </trkpt>
      <trkpt lat="46.09532" lon="6.41027">
        <ele>728.0625</ele>
        <time>2016-03-26T14:41:58Z</time>
      </trkpt>
      <trkpt lat="46.09551" lon="6.41035">
        <ele>733.562317</ele>
        <time>2016-03-26T14:42:07Z</time>
      </trkpt>
      <trkpt lat="46.09553" lon="6.41061">
        <ele>735.119202</ele>
        <time>2016-03-26T14:42:15Z</time>
      </trkpt>
      <trkpt lat="46.09543" lon="6.41082">
        <ele>733.888489</ele>
        <time>2016-03-26T14:42:23Z</time>
      </trkpt>
      <trkpt lat="46.09532" lon="6.41103">
        <ele>732.529724</ele>
        <time>2016-03-26T14:42:31Z</time>
      </trkpt>
      <trkpt lat="46.0953" lon="6.41131">
        <ele>733.969482</ele>
        <time>2016-03-26T14:42:40Z</time>
      </trkpt>
      <trkpt lat="46.09529" lon="6.41158">
        <ele>736.97876</ele>
        <time>2016-03-26T14:42:50Z</time>
      </trkpt>
      <trkpt lat="46.09524" lon="6.41186">
        <ele>739.134521</ele>
        <time>2016-03-26T14:42:59Z</time>
      </trkpt>
      <trkpt lat="46.09514" lon="6.41213">
        <ele>738.27356</ele>
        <time>2016-03-26T14:43:10Z</time>
      </trkpt>
      <trkpt lat="46.09501" lon="6.41239">
        <ele>736.396606</ele>
        <time>2016-03-26T14:43:21Z</time>
      </trkpt>
      <trkpt lat="46.09511" lon="6.41253">
        <ele>739.744812</ele>
        <time>2016-03-26T14:43:30Z</time>
      </trkpt>
      <trkpt lat="46.09529" lon="6.41243">
        <ele>743.529297</ele>
        <time>2016-03-26T14:43:40Z</time>
      </trkpt>
      <trkpt lat="46.09548" lon="6.41252">
        <ele>748.081543</ele>
        <time>2016-03-26T14:43:52Z</time>
      </trkpt>
      <trkpt lat="46.09551" lon="6.41277">
        <ele>749.546021</ele>
        <time>2016-03-26T14:44:06Z</time>
      </trkpt>
      <trkpt lat="46.09556" lon="6.41304">
        <ele>752.06189</ele>
        <time>2016-03-26T14:44:19Z</time>
      </trkpt>
      <trkpt lat="46.09558" lon="6.41334">
        <ele>754.150024</ele>
        <time>2016-03-26T14:44:32Z</time>
      </trkpt>
      <trkpt lat="46.09562" lon="6.4136">
        <ele>758.981018</ele>
        <time>2016-03-26T14:44:46Z</time>
      </trkpt>
      <trkpt lat="46.09572" lon="6.41375">
        <ele>764.15387</ele>
        <time>2016-03-26T14:45:24Z</time>
      </trkpt>
      <trkpt lat="46.09569" lon="6.41391">
        <ele>765.979919</ele>
        <time>2016-03-26T14:46:14Z</time>
      </trkpt>
      <trkpt lat="46.09566" lon="6.41419">
        <ele>764.723022</ele>
        <time>2016-03-26T14:46:45Z</time>
      </trkpt>
      <trkpt lat="46.09575" lon="6.41444">
        <ele>767.113708</ele>
        <time>2016-03-26T14:46:57Z</time>
      </trkpt>
      <trkpt lat="46.09588" lon="6.41464">
        <ele>770.852478</ele>
        <time>2016-03-26T14:47:18Z</time>
      </trkpt>
      <trkpt lat="46.09594" lon="6.41491">
        <ele>770.682495</ele>
        <time>2016-03-26T14:47:38Z</time>
      </trkpt>
      <trkpt lat="46.09602" lon="6.41519">
        <ele>771.327515</ele>
        <time>2016-03-26T14:47:51Z</time>
      </trkpt>
      <trkpt lat="46.09608" lon="6.41545">
        <ele>771.587646</ele>
        <time>2016-03-26T14:47:58Z</time>
      </trkpt>
      <trkpt lat="46.09614" lon="6.41571">
        <ele>771.865112</ele>
        <time>2016-03-26T14:48:06Z</time>
      </trkpt>
      <trkpt lat="46.09624" lon="6.41595">
        <ele>774.65625</ele>
        <time>2016-03-26T14:48:13Z</time>
      </trkpt>
      <trkpt lat="46.09637" lon="6.41618">
        <ele>782.762512</ele>
        <time>2016-03-26T14:48:23Z</time>
      </trkpt>
      <trkpt lat="46.09635" lon="6.41653">
        <ele>785.293762</ele>
        <time>2016-03-26T14:48:39Z</time>
      </trkpt>
      <trkpt lat="46.09622" lon="6.41686">
        <ele>786.138733</ele>
        <time>2016-03-26T14:49:02Z</time>
      </trkpt>
      <trkpt lat="46.09614" lon="6.4172">
        <ele>790.01001</ele>
        <time>2016-03-26T14:49:19Z</time>
      </trkpt>
      <trkpt lat="46.09615" lon="6.41754">
        <ele>800.282227</ele>
        <time>2016-03-26T14:49:32Z</time>
      </trkpt>
      <trkpt lat="46.09602" lon="6.41782">
        <ele>803.266602</ele>
        <time>2016-03-26T14:49:46Z</time>
      </trkpt>
      <trkpt lat="46.09588" lon="6.41809">
        <ele>802.480408</ele>
        <time>2016-03-26T14:49:58Z</time>
      </trkpt>
      <trkpt lat="46.09578" lon="6.41836">
        <ele>801.956787</ele>
        <time>2016-03-26T14:50:08Z</time>
      </trkpt>
      <trkpt lat="46.09564" lon="6.4186">
        <ele>797.969971</ele>
        <time>2016-03-26T14:50:15Z</time>
      </trkpt>
      <trkpt lat="46.09554" lon="6.41885">
        <ele>794.441772</ele>
        <time>2016-03-26T14:50:22Z</time>
      </trkpt>
      <trkpt lat="46.09542" lon="6.41913">
        <ele>791.552307</ele>
        <time>2016-03-26T14:50:30Z</time>
      </trkpt>
      <trkpt lat="46.09536" lon="6.41944">
        <ele>790.119934</ele>
        <time>2016-03-26T14:50:40Z</time>
      </trkpt>
      <trkpt lat="46.09525" lon="6.41973">
        <ele>787.35144</ele>
        <time>2016-03-26T14:50:50Z</time>
      </trkpt>
      <trkpt lat="46.09503" lon="6.41977">
        <ele>782.198242</ele>
        <time>2016-03-26T14:54:23Z</time>
      </trkpt>
      <trkpt lat="46.09488" lon="6.41996">
        <ele>780.190735</ele>
        <time>2016-03-26T14:54:42Z</time>
      </trkpt>
      <trkpt lat="46.09475" lon="6.42017">
        <ele>778.039063</ele>
        <time>2016-03-26T14:54:49Z</time>
      </trkpt>
      <trkpt lat="46.09467" lon="6.42046">
        <ele>779.212708</ele>
        <time>2016-03-26T14:54:55Z</time>
      </trkpt>
      <trkpt lat="46.09458" lon="6.42073">
        <ele>781.222473</ele>
        <time>2016-03-26T14:55:00Z</time>
      </trkpt>
      <trkpt lat="46.09442" lon="6.42094">
        <ele>780.39624</ele>
        <time>2016-03-26T14:55:05Z</time>
      </trkpt>
      <trkpt lat="46.09425" lon="6.42109">
        <ele>777.589172</ele>
        <time>2016-03-26T14:55:10Z</time>
      </trkpt>
      <trkpt lat="46.09413" lon="6.42136">
        <ele>777.497803</ele>
        <time>2016-03-26T14:55:16Z</time>
      </trkpt>
      <trkpt lat="46.09401" lon="6.42161">
        <ele>776.325256</ele>
        <time>2016-03-26T14:55:22Z</time>
      </trkpt>
      <trkpt lat="46.0939" lon="6.42185">
        <ele>774.42218</ele>
        <time>2016-03-26T14:55:27Z</time>
      </trkpt>
      <trkpt lat="46.09374" lon="6.42203">
        <ele>769.640137</ele>
        <time>2016-03-26T14:55:41Z</time>
      </trkpt>
      <trkpt lat="46.0936" lon="6.42225">
        <ele>766.368286</ele>
        <time>2016-03-26T14:55:47Z</time>
      </trkpt>
      <trkpt lat="46.09345" lon="6.42246">
        <ele>763.258362</ele>
        <time>2016-03-26T14:55:54Z</time>
      </trkpt>
      <trkpt lat="46.0933" lon="6.42274">
        <ele>760.125366</ele>
        <time>2016-03-26T14:56:01Z</time>
      </trkpt>
      <trkpt lat="46.09315" lon="6.42299">
        <ele>755.783752</ele>
        <time>2016-03-26T14:56:07Z</time>
      </trkpt>
      <trkpt lat="46.09303" lon="6.42325">
        <ele>752.588318</ele>
        <time>2016-03-26T14:56:12Z</time>
      </trkpt>
      <trkpt lat="46.09294" lon="6.42351">
        <ele>750.385132</ele>
        <time>2016-03-26T14:56:16Z</time>
      </trkpt>
      <trkpt lat="46.09282" lon="6.42379">
        <ele>746.916626</ele>
        <time>2016-03-26T14:56:20Z</time>
      </trkpt>
      <trkpt lat="46.09272" lon="6.42405">
        <ele>744.118835</ele>
        <time>2016-03-26T14:56:24Z</time>
      </trkpt>
      <trkpt lat="46.0926" lon="6.42432">
        <ele>740.179993</ele>
        <time>2016-03-26T14:56:31Z</time>
      </trkpt>
      <trkpt lat="46.09253" lon="6.42463">
        <ele>738.359985</ele>
        <time>2016-03-26T14:56:39Z</time>
      </trkpt>
      <trkpt lat="46.09248" lon="6.42496">
        <ele>737.289368</ele>
        <time>2016-03-26T14:56:44Z</time>
      </trkpt>
      <trkpt lat="46.09245" lon="6.42529">
        <ele>736.972473</ele>
        <time>2016-03-26T14:56:49Z</time>
      </trkpt>
      <trkpt lat="46.09255" lon="6.42554">
        <ele>741.02832</ele>
        <time>2016-03-26T14:56:56Z</time>
      </trkpt>
      <trkpt lat="46.09246" lon="6.42573">
        <ele>738.680725</ele>
        <time>2016-03-26T14:57:06Z</time>
      </trkpt>
      <trkpt lat="46.09228" lon="6.42578">
        <ele>733.172913</ele>
        <time>2016-03-26T14:57:16Z</time>
      </trkpt>
      <trkpt lat="46.09206" lon="6.42568">
        <ele>725.847778</ele>
        <time>2016-03-26T14:57:26Z</time>
      </trkpt>
      <trkpt lat="46.09187" lon="6.42567">
        <ele>720.054626</ele>
        <time>2016-03-26T14:57:32Z</time>
      </trkpt>
      <trkpt lat="46.09166" lon="6.4256">
        <ele>713.543762</ele>
        <time>2016-03-26T14:57:38Z</time>
      </trkpt>
      <trkpt lat="46.09146" lon="6.42551">
        <ele>707.163879</ele>
        <time>2016-03-26T14:57:44Z</time>
      </trkpt>
      <trkpt lat="46.09132" lon="6.42532">
        <ele>702.509949</ele>
        <time>2016-03-26T14:57:52Z</time>
      </trkpt>
      <trkpt lat="46.09116" lon="6.42506">
        <ele>697.077515</ele>
        <time>2016-03-26T14:58:01Z</time>
      </trkpt>
      <trkpt lat="46.09103" lon="6.42487">
        <ele>692.525024</ele>
        <time>2016-03-26T14:58:10Z</time>
      </trkpt>
      <trkpt lat="46.09085" lon="6.42467">
        <ele>686.742493</ele>
        <time>2016-03-26T14:58:19Z</time>
      </trkpt>
      <trkpt lat="46.09063" lon="6.42458">
        <ele>678.906555</ele>
        <time>2016-03-26T14:58:31Z</time>
      </trkpt>
      <trkpt lat="46.09048" lon="6.42433">
        <ele>669.681396</ele>
        <time>2016-03-26T14:58:45Z</time>
      </trkpt>
      <trkpt lat="46.09029" lon="6.42437">
        <ele>664.520142</ele>
        <time>2016-03-26T14:58:53Z</time>
      </trkpt>
      <trkpt lat="46.09024" lon="6.42408">
        <ele>657.95282</ele>
        <time>2016-03-26T14:59:03Z</time>
      </trkpt>
      <trkpt lat="46.09006" lon="6.42411">
        <ele>653.197083</ele>
        <time>2016-03-26T14:59:12Z</time>
      </trkpt>
      <trkpt lat="46.08986" lon="6.42424">
        <ele>649.171997</ele>
        <time>2016-03-26T14:59:21Z</time>
      </trkpt>
      <trkpt lat="46.08968" lon="6.42436">
        <ele>644.855957</ele>
        <time>2016-03-26T14:59:28Z</time>
      </trkpt>
      <trkpt lat="46.08948" lon="6.42442">
        <ele>638.995422</ele>
        <time>2016-03-26T14:59:34Z</time>
      </trkpt>
      <trkpt lat="46.08926" lon="6.42441">
        <ele>633.253235</ele>
        <time>2016-03-26T14:59:39Z</time>
      </trkpt>
      <trkpt lat="46.08906" lon="6.42443">
        <ele>628.255493</ele>
        <time>2016-03-26T14:59:44Z</time>
      </trkpt>
      <trkpt lat="46.08885" lon="6.42442">
        <ele>624.4375</ele>
        <time>2016-03-26T14:59:51Z</time>
      </trkpt>
      <trkpt lat="46.08874" lon="6.42462">
        <ele>622.341431</ele>
        <time>2016-03-26T15:00:00Z</time>
      </trkpt>
      <trkpt lat="46.08853" lon="6.42454">
        <ele>619.270508</ele>
        <time>2016-03-26T15:00:45Z</time>
      </trkpt>
      <trkpt lat="46.08851" lon="6.42441">
        <ele>619.177246</ele>
        <time>2016-03-26T15:01:54Z</time>
      </trkpt>
      <trkpt lat="46.08832" lon="6.42424">
        <ele>616.526428</ele>
        <time>2016-03-26T15:02:00Z</time>
      </trkpt>
      <trkpt lat="46.08814" lon="6.42412">
        <ele>613.835815</ele>
        <time>2016-03-26T15:02:06Z</time>
      </trkpt>
      <trkpt lat="46.08793" lon="6.42406">
        <ele>612.28833</ele>
        <time>2016-03-26T15:02:40Z</time>
      </trkpt>
      <trkpt lat="46.08775" lon="6.42392">
        <ele>610.132996</ele>
        <time>2016-03-26T15:02:45Z</time>
      </trkpt>
      <trkpt lat="46.08756" lon="6.4238">
        <ele>608.003967</ele>
        <time>2016-03-26T15:02:51Z</time>
      </trkpt>
      <trkpt lat="46.08739" lon="6.42377">
        <ele>606.706787</ele>
        <time>2016-03-26T15:02:56Z</time>
      </trkpt>
      <trkpt lat="46.0872" lon="6.4238">
        <ele>605.901733</ele>
        <time>2016-03-26T15:03:17Z</time>
      </trkpt>
      <trkpt lat="46.08708" lon="6.42364">
        <ele>603.432373</ele>
        <time>2016-03-26T15:03:23Z</time>
      </trkpt>
      <trkpt lat="46.08697" lon="6.42339">
        <ele>600.306335</ele>
        <time>2016-03-26T15:03:34Z</time>
      </trkpt>
      <trkpt lat="46.08683" lon="6.42335">
        <ele>599.193604</ele>
        <time>2016-03-26T15:03:44Z</time>
      </trkpt>
      <trkpt lat="46.08664" lon="6.42332">
        <ele>596.507202</ele>
        <time>2016-03-26T15:04:00Z</time>
      </trkpt>
      <trkpt lat="46.08646" lon="6.42313">
        <ele>592.753967</ele>
        <time>2016-03-26T15:04:22Z</time>
      </trkpt>
      <trkpt lat="46.08626" lon="6.42322">
        <ele>590.630005</ele>
        <time>2016-03-26T15:04:29Z</time>
      </trkpt>
      <trkpt lat="46.08606" lon="6.42326">
        <ele>587.890015</ele>
        <time>2016-03-26T15:04:36Z</time>
      </trkpt>
      <trkpt lat="46.08584" lon="6.42333">
        <ele>584.152161</ele>
        <time>2016-03-26T15:04:42Z</time>
      </trkpt>
      <trkpt lat="46.08564" lon="6.42348">
        <ele>580.98584</ele>
        <time>2016-03-26T15:04:48Z</time>
      </trkpt>
      <trkpt lat="46.08546" lon="6.42369">
        <ele>578.503662</ele>
        <time>2016-03-26T15:05:05Z</time>
      </trkpt>
      <trkpt lat="46.08519" lon="6.42385">
        <ele>572.258484</ele>
        <time>2016-03-26T15:05:22Z</time>
      </trkpt>
      <trkpt lat="46.08498" lon="6.42393">
        <ele>566.955017</ele>
        <time>2016-03-26T15:05:29Z</time>
      </trkpt>
      <trkpt lat="46.08475" lon="6.42406">
        <ele>562.335022</ele>
        <time>2016-03-26T15:05:34Z</time>
      </trkpt>
      <trkpt lat="46.08452" lon="6.42422">
        <ele>558.186279</ele>
        <time>2016-03-26T15:05:42Z</time>
      </trkpt>
      <trkpt lat="46.08429" lon="6.42432">
        <ele>554.515381</ele>
        <time>2016-03-26T15:05:48Z</time>
      </trkpt>
      <trkpt lat="46.08407" lon="6.42438">
        <ele>550.582092</ele>
        <time>2016-03-26T15:05:53Z</time>
      </trkpt>
      <trkpt lat="46.08387" lon="6.42443">
        <ele>546.194946</ele>
        <time>2016-03-26T15:06:02Z</time>
      </trkpt>
      <trkpt lat="46.08387" lon="6.42476">
        <ele>545.30249</ele>
        <time>2016-03-26T15:06:16Z</time>
      </trkpt>
      <trkpt lat="46.08388" lon="6.42508">
        <ele>544.543701</ele>
        <time>2016-03-26T15:06:21Z</time>
      </trkpt>
      <trkpt lat="46.08391" lon="6.42535">
        <ele>544.627869</ele>
        <time>2016-03-26T15:06:25Z</time>
      </trkpt>
      <trkpt lat="46.08395" lon="6.42567">
        <ele>543.69751</ele>
        <time>2016-03-26T15:06:29Z</time>
      </trkpt>
      <trkpt lat="46.08402" lon="6.42592">
        <ele>544.16748</ele>
        <time>2016-03-26T15:06:32Z</time>
      </trkpt>
      <trkpt lat="46.08411" lon="6.42617">
        <ele>544.83429</ele>
        <time>2016-03-26T15:06:36Z</time>
      </trkpt>
      <trkpt lat="46.08421" lon="6.4264">
        <ele>545.449524</ele>
        <time>2016-03-26T15:06:40Z</time>
      </trkpt>
      <trkpt lat="46.08428" lon="6.42668">
        <ele>544.59906</ele>
        <time>2016-03-26T15:06:44Z</time>
      </trkpt>
      <trkpt lat="46.08436" lon="6.42699">
        <ele>542.824646</ele>
        <time>2016-03-26T15:06:48Z</time>
      </trkpt>
      <trkpt lat="46.08441" lon="6.4273">
        <ele>540.027405</ele>
        <time>2016-03-26T15:06:52Z</time>
      </trkpt>
      <trkpt lat="46.08445" lon="6.42759">
        <ele>537.51062</ele>
        <time>2016-03-26T15:06:56Z</time>
      </trkpt>
      <trkpt lat="46.08441" lon="6.42785">
        <ele>533.484985</ele>
        <time>2016-03-26T15:07:00Z</time>
      </trkpt>
      <trkpt lat="46.08434" lon="6.42817">
        <ele>527.627808</ele>
        <time>2016-03-26T15:07:05Z</time>
      </trkpt>
      <trkpt lat="46.08434" lon="6.42846">
        <ele>523.309692</ele>
        <time>2016-03-26T15:07:10Z</time>
      </trkpt>
      <trkpt lat="46.08433" lon="6.42874">
        <ele>518.262634</ele>
        <time>2016-03-26T15:07:16Z</time>
      </trkpt>
      <trkpt lat="46.08435" lon="6.42902">
        <ele>512.911255</ele>
        <time>2016-03-26T15:07:21Z</time>
      </trkpt>
      <trkpt lat="46.08441" lon="6.42929">
        <ele>508.834991</ele>
        <time>2016-03-26T15:07:26Z</time>
      </trkpt>
      <trkpt lat="46.08452" lon="6.42952">
        <ele>507.764984</ele>
        <time>2016-03-26T15:07:32Z</time>
      </trkpt>
      <trkpt lat="46.08456" lon="6.4298">
        <ele>504.529999</ele>
        <time>2016-03-26T15:07:37Z</time>
      </trkpt>
      <trkpt lat="46.08463" lon="6.43011">
        <ele>502.748901</ele>
        <time>2016-03-26T15:07:42Z</time>
      </trkpt>
      <trkpt lat="46.08466" lon="6.43038">
        <ele>501.757141</ele>
        <time>2016-03-26T15:07:45Z</time>
      </trkpt>
      <trkpt lat="46.08469" lon="6.43064">
        <ele>500.966248</ele>
        <time>2016-03-26T15:07:48Z</time>
      </trkpt>
      <trkpt lat="46.08471" lon="6.43092">
        <ele>500.533752</ele>
        <time>2016-03-26T15:07:51Z</time>
      </trkpt>
      <trkpt lat="46.08475" lon="6.43122">
        <ele>500.275665</ele>
        <time>2016-03-26T15:07:54Z</time>
      </trkpt>
      <trkpt lat="46.0848" lon="6.43149">
        <ele>500.295502</ele>
        <time>2016-03-26T15:07:57Z</time>
      </trkpt>
      <trkpt lat="46.08486" lon="6.43179">
        <ele>500.873779</ele>
        <time>2016-03-26T15:08:01Z</time>
      </trkpt>
      <trkpt lat="46.08481" lon="6.43192">
        <ele>499.172791</ele>
        <time>2016-03-26T15:08:07Z</time>
      </trkpt>
      <trkpt lat="46.08462" lon="6.43181">
        <ele>494.743073</ele>
        <time>2016-03-26T15:08:21Z</time>
      </trkpt>
      <trkpt lat="46.0844" lon="6.4318">
        <ele>489.458038</ele>
        <time>2016-03-26T15:08:29Z</time>
      </trkpt>
      <trkpt lat="46.0842" lon="6.43172">
        <ele>485.44693</ele>
        <time>2016-03-26T15:08:36Z</time>
      </trkpt>
      <trkpt lat="46.08402" lon="6.43169">
        <ele>481.917297</ele>
        <time>2016-03-26T15:08:45Z</time>
      </trkpt>
      <trkpt lat="46.08383" lon="6.43179">
        <ele>477.496399</ele>
        <time>2016-03-26T15:08:54Z</time>
      </trkpt>
      <trkpt lat="46.08366" lon="6.43194">
        <ele>474.39389</ele>
        <time>2016-03-26T15:09:00Z</time>
      </trkpt>
      <trkpt lat="46.0835" lon="6.43209">
        <ele>471.846497</ele>
        <time>2016-03-26T15:09:06Z</time>
      </trkpt>
      <trkpt lat="46.08355" lon="6.43237">
        <ele>471.461456</ele>
        <time>2016-03-26T15:09:13Z</time>
      </trkpt>
      <trkpt lat="46.08367" lon="6.4326">
        <ele>472.284302</ele>
        <time>2016-03-26T15:09:18Z</time>
      </trkpt>
      <trkpt lat="46.08378" lon="6.43285">
        <ele>472.796021</ele>
        <time>2016-03-26T15:09:23Z</time>
      </trkpt>
      <trkpt lat="46.08383" lon="6.4331">
        <ele>472.544861</ele>
        <time>2016-03-26T15:09:27Z</time>
      </trkpt>
      <trkpt lat="46.08385" lon="6.43341">
        <ele>472.360229</ele>
        <time>2016-03-26T15:09:31Z</time>
      </trkpt>
      <trkpt lat="46.08387" lon="6.43373">
        <ele>472.305328</ele>
        <time>2016-03-26T15:09:35Z</time>
      </trkpt>
      <trkpt lat="46.08389" lon="6.43398">
        <ele>472.673431</ele>
        <time>2016-03-26T15:09:38Z</time>
      </trkpt>
      <trkpt lat="46.08386" lon="6.43431">
        <ele>472.540985</ele>
        <time>2016-03-26T15:09:42Z</time>
      </trkpt>
      <trkpt lat="46.0838" lon="6.43461">
        <ele>472.741638</ele>
        <time>2016-03-26T15:09:46Z</time>
      </trkpt>
      <trkpt lat="46.08372" lon="6.43488">
        <ele>472.6492</ele>
        <time>2016-03-26T15:09:50Z</time>
      </trkpt>
      <trkpt lat="46.08356" lon="6.43498">
        <ele>472.13739</ele>
        <time>2016-03-26T15:09:55Z</time>
      </trkpt>
      <trkpt lat="46.08337" lon="6.43503">
        <ele>471.487488</ele>
        <time>2016-03-26T15:10:01Z</time>
      </trkpt>
      <trkpt lat="46.0832" lon="6.43524">
        <ele>472.329987</ele>
        <time>2016-03-26T15:10:06Z</time>
      </trkpt>
      <trkpt lat="46.08306" lon="6.43545">
        <ele>473.684998</ele>
        <time>2016-03-26T15:10:10Z</time>
      </trkpt>
      <trkpt lat="46.08293" lon="6.43566">
        <ele>475.042297</ele>
        <time>2016-03-26T15:10:14Z</time>
      </trkpt>
      <trkpt lat="46.08275" lon="6.43573">
        <ele>475.611237</ele>
        <time>2016-03-26T15:10:18Z</time>
      </trkpt>
      <trkpt lat="46.08259" lon="6.4356">
        <ele>474.408691</ele>
        <time>2016-03-26T15:10:22Z</time>
      </trkpt>
      <trkpt lat="46.08241" lon="6.43549">
        <ele>473.551697</ele>
        <time>2016-03-26T15:10:26Z</time>
      </trkpt>
      <trkpt lat="46.08223" lon="6.43539">
        <ele>472.455933</ele>
        <time>2016-03-26T15:10:30Z</time>
      </trkpt>
      <trkpt lat="46.08207" lon="6.43523">
        <ele>470.764465</ele>
        <time>2016-03-26T15:10:34Z</time>
      </trkpt>
      <trkpt lat="46.08191" lon="6.43497">
        <ele>468.314301</ele>
        <time>2016-03-26T15:10:38Z</time>
      </trkpt>
      <trkpt lat="46.08177" lon="6.43473">
        <ele>466.162506</ele>
        <time>2016-03-26T15:10:41Z</time>
      </trkpt>
      <trkpt lat="46.08161" lon="6.43447">
        <ele>463.852509</ele>
        <time>2016-03-26T15:10:44Z</time>
      </trkpt>
      <trkpt lat="46.08144" lon="6.4342">
        <ele>461.56311</ele>
        <time>2016-03-26T15:10:47Z</time>
      </trkpt>
      <trkpt lat="46.08124" lon="6.43394">
        <ele>459.177612</ele>
        <time>2016-03-26T15:10:50Z</time>
      </trkpt>
      <trkpt lat="46.08102" lon="6.43369">
        <ele>456.263062</ele>
        <time>2016-03-26T15:10:53Z</time>
      </trkpt>
      <trkpt lat="46.08086" lon="6.43354">
        <ele>454.12207</ele>
        <time>2016-03-26T15:10:55Z</time>
      </trkpt>
      <trkpt lat="46.08067" lon="6.43344">
        <ele>452.202332</ele>
        <time>2016-03-26T15:10:57Z</time>
      </trkpt>
      <trkpt lat="46.08048" lon="6.43338">
        <ele>450.793762</ele>
        <time>2016-03-26T15:10:59Z</time>
      </trkpt>
      <trkpt lat="46.08029" lon="6.43332">
        <ele>449.65271</ele>
        <time>2016-03-26T15:11:01Z</time>
      </trkpt>
      <trkpt lat="46.0801" lon="6.43327">
        <ele>448.845001</ele>
        <time>2016-03-26T15:11:03Z</time>
      </trkpt>
      <trkpt lat="46.07992" lon="6.43322">
        <ele>448.440002</ele>
        <time>2016-03-26T15:11:05Z</time>
      </trkpt>
      <trkpt lat="46.07967" lon="6.43316">
        <ele>448.119995</ele>
        <time>2016-03-26T15:11:08Z</time>
      </trkpt>
      <trkpt lat="46.07945" lon="6.4331">
        <ele>448.609985</ele>
        <time>2016-03-26T15:11:11Z</time>
      </trkpt>
      <trkpt lat="46.07928" lon="6.43314">
        <ele>448.984985</ele>
        <time>2016-03-26T15:11:15Z</time>
      </trkpt>
      <trkpt lat="46.07919" lon="6.43343">
        <ele>449</ele>
        <time>2016-03-26T15:11:20Z</time>
      </trkpt>
      <trkpt lat="46.07909" lon="6.43367">
        <ele>449</ele>
        <time>2016-03-26T15:11:24Z</time>
      </trkpt>
      <trkpt lat="46.07899" lon="6.43394">
        <ele>449</ele>
        <time>2016-03-26T15:11:28Z</time>
      </trkpt>
      <trkpt lat="46.07888" lon="6.43421">
        <ele>448.948944</ele>
        <time>2016-03-26T15:11:32Z</time>
      </trkpt>
      <trkpt lat="46.07875" lon="6.43445">
        <ele>449</ele>
        <time>2016-03-26T15:11:36Z</time>
      </trkpt>
      <trkpt lat="46.07864" lon="6.43469">
        <ele>449</ele>
        <time>2016-03-26T15:11:40Z</time>
      </trkpt>
      <trkpt lat="46.07852" lon="6.43497">
        <ele>449</ele>
        <time>2016-03-26T15:11:45Z</time>
      </trkpt>
      <trkpt lat="46.07847" lon="6.43522">
        <ele>449</ele>
        <time>2016-03-26T15:11:49Z</time>
      </trkpt>
      <trkpt lat="46.0784" lon="6.43548">
        <ele>448.938507</ele>
        <time>2016-03-26T15:11:53Z</time>
      </trkpt>
      <trkpt lat="46.07831" lon="6.43575">
        <ele>448.944885</ele>
        <time>2016-03-26T15:11:57Z</time>
      </trkpt>
      <trkpt lat="46.07817" lon="6.43589">
        <ele>449</ele>
        <time>2016-03-26T15:12:01Z</time>
      </trkpt>
      <trkpt lat="46.07795" lon="6.43583">
        <ele>449</ele>
        <time>2016-03-26T15:12:06Z</time>
      </trkpt>
      <trkpt lat="46.07775" lon="6.43577">
        <ele>449</ele>
        <time>2016-03-26T15:12:10Z</time>
      </trkpt>
      <trkpt lat="46.07759" lon="6.43589">
        <ele>449</ele>
        <time>2016-03-26T15:12:14Z</time>
      </trkpt>
      <trkpt lat="46.07753" lon="6.43615">
        <ele>449</ele>
        <time>2016-03-26T15:12:18Z</time>
      </trkpt>
      <trkpt lat="46.0775" lon="6.43644">
        <ele>449</ele>
        <time>2016-03-26T15:12:22Z</time>
      </trkpt>
      <trkpt lat="46.07747" lon="6.4367">
        <ele>449</ele>
        <time>2016-03-26T15:12:26Z</time>
      </trkpt>
      <trkpt lat="46.07744" lon="6.43703">
        <ele>449</ele>
        <time>2016-03-26T15:12:31Z</time>
      </trkpt>
      <trkpt lat="46.07742" lon="6.43732">
        <ele>449</ele>
        <time>2016-03-26T15:12:36Z</time>
      </trkpt>
      <trkpt lat="46.07738" lon="6.43761">
        <ele>449</ele>
        <time>2016-03-26T15:12:41Z</time>
      </trkpt>
      <trkpt lat="46.07735" lon="6.43791">
        <ele>449</ele>
        <time>2016-03-26T15:12:46Z</time>
      </trkpt>
      <trkpt lat="46.07732" lon="6.43817">
        <ele>449</ele>
        <time>2016-03-26T15:12:50Z</time>
      </trkpt>
      <trkpt lat="46.0773" lon="6.43844">
        <ele>449</ele>
        <time>2016-03-26T15:12:54Z</time>
      </trkpt>
      <trkpt lat="46.07727" lon="6.43872">
        <ele>449</ele>
        <time>2016-03-26T15:12:58Z</time>
      </trkpt>
      <trkpt lat="46.07724" lon="6.439">
        <ele>449</ele>
        <time>2016-03-26T15:13:02Z</time>
      </trkpt>
      <trkpt lat="46.07721" lon="6.43928">
        <ele>449</ele>
        <time>2016-03-26T15:13:06Z</time>
      </trkpt>
      <trkpt lat="46.07718" lon="6.43957">
        <ele>449</ele>
        <time>2016-03-26T15:13:10Z</time>
      </trkpt>
      <trkpt lat="46.07715" lon="6.43985">
        <ele>449</ele>
        <time>2016-03-26T15:13:14Z</time>
      </trkpt>
      <trkpt lat="46.07712" lon="6.44014">
        <ele>449</ele>
        <time>2016-03-26T15:13:18Z</time>
      </trkpt>
      <trkpt lat="46.07712" lon="6.44041">
        <ele>449</ele>
        <time>2016-03-26T15:13:22Z</time>
      </trkpt>
      <trkpt lat="46.07711" lon="6.44067">
        <ele>449</ele>
        <time>2016-03-26T15:13:28Z</time>
      </trkpt>
      <trkpt lat="46.07727" lon="6.44086">
        <ele>448.815002</ele>
        <time>2016-03-26T15:13:34Z</time>
      </trkpt>
      <trkpt lat="46.07746" lon="6.44097">
        <ele>448.390015</ele>
        <time>2016-03-26T15:13:39Z</time>
      </trkpt>
      <trkpt lat="46.07763" lon="6.44108">
        <ele>448.004974</ele>
        <time>2016-03-26T15:13:43Z</time>
      </trkpt>
      <trkpt lat="46.07781" lon="6.44122">
        <ele>448.079956</ele>
        <time>2016-03-26T15:13:47Z</time>
      </trkpt>
      <trkpt lat="46.078" lon="6.44135">
        <ele>448.312897</ele>
        <time>2016-03-26T15:13:51Z</time>
      </trkpt>
      <trkpt lat="46.07819" lon="6.44146">
        <ele>449.60376</ele>
        <time>2016-03-26T15:13:55Z</time>
      </trkpt>
      <trkpt lat="46.07839" lon="6.44155">
        <ele>451.512512</ele>
        <time>2016-03-26T15:13:59Z</time>
      </trkpt>
      <trkpt lat="46.07851" lon="6.44169">
        <ele>452.82251</ele>
        <time>2016-03-26T15:14:03Z</time>
      </trkpt>
      <trkpt lat="46.07842" lon="6.44194">
        <ele>452.542511</ele>
        <time>2016-03-26T15:14:07Z</time>
      </trkpt>
      <trkpt lat="46.07828" lon="6.4422">
        <ele>451.734985</ele>
        <time>2016-03-26T15:14:11Z</time>
      </trkpt>
      <trkpt lat="46.0781" lon="6.44243">
        <ele>450.625</ele>
        <time>2016-03-26T15:14:15Z</time>
      </trkpt>
      <trkpt lat="46.07793" lon="6.44267">
        <ele>450.317474</ele>
        <time>2016-03-26T15:14:19Z</time>
      </trkpt>
      <trkpt lat="46.07782" lon="6.44288">
        <ele>450.323395</ele>
        <time>2016-03-26T15:14:22Z</time>
      </trkpt>
      <trkpt lat="46.07768" lon="6.44315">
        <ele>450.439056</ele>
        <time>2016-03-26T15:14:26Z</time>
      </trkpt>
      <trkpt lat="46.07757" lon="6.44344">
        <ele>451.140106</ele>
        <time>2016-03-26T15:14:30Z</time>
      </trkpt>
      <trkpt lat="46.07747" lon="6.44373">
        <ele>452.041901</ele>
        <time>2016-03-26T15:14:34Z</time>
      </trkpt>
      <trkpt lat="46.07739" lon="6.44397">
        <ele>452.75235</ele>
        <time>2016-03-26T15:14:38Z</time>
      </trkpt>
      <trkpt lat="46.07731" lon="6.44425">
        <ele>453.470764</ele>
        <time>2016-03-26T15:14:43Z</time>
      </trkpt>
      <trkpt lat="46.07721" lon="6.44454">
        <ele>453.955994</ele>
        <time>2016-03-26T15:14:47Z</time>
      </trkpt>
      <trkpt lat="46.07712" lon="6.44479">
        <ele>454.224304</ele>
        <time>2016-03-26T15:14:51Z</time>
      </trkpt>
      <trkpt lat="46.077" lon="6.44507">
        <ele>454.065002</ele>
        <time>2016-03-26T15:14:56Z</time>
      </trkpt>
      <trkpt lat="46.07687" lon="6.4453">
        <ele>453.455017</ele>
        <time>2016-03-26T15:15:00Z</time>
      </trkpt>
      <trkpt lat="46.07674" lon="6.44554">
        <ele>452.88501</ele>
        <time>2016-03-26T15:15:04Z</time>
      </trkpt>
      <trkpt lat="46.07664" lon="6.44577">
        <ele>452.948761</ele>
        <time>2016-03-26T15:15:08Z</time>
      </trkpt>
      <trkpt lat="46.07654" lon="6.44604">
        <ele>453.285797</ele>
        <time>2016-03-26T15:15:12Z</time>
      </trkpt>
      <trkpt lat="46.07648" lon="6.4463">
        <ele>453.535126</ele>
        <time>2016-03-26T15:15:15Z</time>
      </trkpt>
      <trkpt lat="46.07645" lon="6.44657">
        <ele>453.833069</ele>
        <time>2016-03-26T15:15:18Z</time>
      </trkpt>
      <trkpt lat="46.07642" lon="6.44689">
        <ele>454.435547</ele>
        <time>2016-03-26T15:15:22Z</time>
      </trkpt>
      <trkpt lat="46.07639" lon="6.44719">
        <ele>455.327118</ele>
        <time>2016-03-26T15:15:26Z</time>
      </trkpt>
      <trkpt lat="46.07634" lon="6.44749">
        <ele>456.059479</ele>
        <time>2016-03-26T15:15:31Z</time>
      </trkpt>
      <trkpt lat="46.07634" lon="6.44777">
        <ele>457.699524</ele>
        <time>2016-03-26T15:15:36Z</time>
      </trkpt>
      <trkpt lat="46.07631" lon="6.44801">
        <ele>458.512634</ele>
        <time>2016-03-26T15:15:42Z</time>
      </trkpt>
      <trkpt lat="46.07628" lon="6.44829">
        <ele>458.833862</ele>
        <time>2016-03-26T15:15:46Z</time>
      </trkpt>
      <trkpt lat="46.07627" lon="6.44861">
        <ele>459.890503</ele>
        <time>2016-03-26T15:15:51Z</time>
      </trkpt>
      <trkpt lat="46.07627" lon="6.44891">
        <ele>460.248505</ele>
        <time>2016-03-26T15:15:56Z</time>
      </trkpt>
      <trkpt lat="46.07626" lon="6.44917">
        <ele>460.135864</ele>
        <time>2016-03-26T15:16:00Z</time>
      </trkpt>
      <trkpt lat="46.07626" lon="6.44948">
        <ele>459.759766</ele>
        <time>2016-03-26T15:16:04Z</time>
      </trkpt>
      <trkpt lat="46.07629" lon="6.44981">
        <ele>458.759247</ele>
        <time>2016-03-26T15:16:08Z</time>
      </trkpt>
      <trkpt lat="46.07631" lon="6.45008">
        <ele>457.575012</ele>
        <time>2016-03-26T15:16:11Z</time>
      </trkpt>
      <trkpt lat="46.07642" lon="6.45032">
        <ele>457.157501</ele>
        <time>2016-03-26T15:16:14Z</time>
      </trkpt>
      <trkpt lat="46.07659" lon="6.45048">
        <ele>457.52124</ele>
        <time>2016-03-26T15:16:17Z</time>
      </trkpt>
      <trkpt lat="46.0767" lon="6.4507">
        <ele>456.957489</ele>
        <time>2016-03-26T15:16:20Z</time>
      </trkpt>
      <trkpt lat="46.07675" lon="6.45098">
        <ele>456.294708</ele>
        <time>2016-03-26T15:16:23Z</time>
      </trkpt>
      <trkpt lat="46.07674" lon="6.45128">
        <ele>455.067871</ele>
        <time>2016-03-26T15:16:26Z</time>
      </trkpt>
      <trkpt lat="46.07671" lon="6.45161">
        <ele>454.238739</ele>
        <time>2016-03-26T15:16:29Z</time>
      </trkpt>
      <trkpt lat="46.07667" lon="6.45191">
        <ele>453.609985</ele>
        <time>2016-03-26T15:16:32Z</time>
      </trkpt>
      <trkpt lat="46.07655" lon="6.4521">
        <ele>452.883789</ele>
        <time>2016-03-26T15:16:35Z</time>
      </trkpt>
      <trkpt lat="46.0764" lon="6.45227">
        <ele>452.25946</ele>
        <time>2016-03-26T15:16:38Z</time>
      </trkpt>
      <trkpt lat="46.07624" lon="6.45245">
        <ele>452.165009</ele>
        <time>2016-03-26T15:16:41Z</time>
      </trkpt>
      <trkpt lat="46.07613" lon="6.45267">
        <ele>452.449493</ele>
        <time>2016-03-26T15:16:44Z</time>
      </trkpt>
      <trkpt lat="46.07604" lon="6.45298">
        <ele>452.813507</ele>
        <time>2016-03-26T15:16:48Z</time>
      </trkpt>
      <trkpt lat="46.07601" lon="6.45326">
        <ele>453</ele>
        <time>2016-03-26T15:16:52Z</time>
      </trkpt>
      <trkpt lat="46.07599" lon="6.45357">
        <ele>453</ele>
        <time>2016-03-26T15:16:56Z</time>
      </trkpt>
      <trkpt lat="46.07599" lon="6.45391">
        <ele>453</ele>
        <time>2016-03-26T15:17:00Z</time>
      </trkpt>
      <trkpt lat="46.07598" lon="6.45418">
        <ele>453</ele>
        <time>2016-03-26T15:17:03Z</time>
      </trkpt>
      <trkpt lat="46.07597" lon="6.45444">
        <ele>453</ele>
        <time>2016-03-26T15:17:06Z</time>
      </trkpt>
      <trkpt lat="46.07596" lon="6.45478">
        <ele>453</ele>
        <time>2016-03-26T15:17:10Z</time>
      </trkpt>
      <trkpt lat="46.0759" lon="6.45512">
        <ele>453</ele>
        <time>2016-03-26T15:17:14Z</time>
      </trkpt>
      <trkpt lat="46.0758" lon="6.45537">
        <ele>453</ele>
        <time>2016-03-26T15:17:18Z</time>
      </trkpt>
      <trkpt lat="46.07564" lon="6.45552">
        <ele>453</ele>
        <time>2016-03-26T15:17:23Z</time>
      </trkpt>
      <trkpt lat="46.07545" lon="6.45564">
        <ele>453</ele>
        <time>2016-03-26T15:17:28Z</time>
      </trkpt>
      <trkpt lat="46.07539" lon="6.45593">
        <ele>453</ele>
        <time>2016-03-26T15:17:32Z</time>
      </trkpt>
      <trkpt lat="46.07535" lon="6.45628">
        <ele>453</ele>
        <time>2016-03-26T15:17:36Z</time>
      </trkpt>
      <trkpt lat="46.07532" lon="6.45654">
        <ele>453</ele>
        <time>2016-03-26T15:17:39Z</time>
      </trkpt>
      <trkpt lat="46.07529" lon="6.45682">
        <ele>453</ele>
        <time>2016-03-26T15:17:42Z</time>
      </trkpt>
      <trkpt lat="46.07526" lon="6.4571">
        <ele>453</ele>
        <time>2016-03-26T15:17:45Z</time>
      </trkpt>
      <trkpt lat="46.07522" lon="6.45738">
        <ele>452.975006</ele>
        <time>2016-03-26T15:17:48Z</time>
      </trkpt>
      <trkpt lat="46.0752" lon="6.45765">
        <ele>452.929993</ele>
        <time>2016-03-26T15:17:51Z</time>
      </trkpt>
      <trkpt lat="46.07516" lon="6.45792">
        <ele>452.875</ele>
        <time>2016-03-26T15:17:54Z</time>
      </trkpt>
      <trkpt lat="46.07513" lon="6.4582">
        <ele>452.834991</ele>
        <time>2016-03-26T15:17:57Z</time>
      </trkpt>
      <trkpt lat="46.0751" lon="6.4585">
        <ele>452.8349</ele>
        <time>2016-03-26T15:18:00Z</time>
      </trkpt>
      <trkpt lat="46.07507" lon="6.4588">
        <ele>452.918396</ele>
        <time>2016-03-26T15:18:03Z</time>
      </trkpt>
      <trkpt lat="46.07504" lon="6.45911">
        <ele>453.153748</ele>
        <time>2016-03-26T15:18:06Z</time>
      </trkpt>
      <trkpt lat="46.07501" lon="6.4594">
        <ele>453.609985</ele>
        <time>2016-03-26T15:18:09Z</time>
      </trkpt>
      <trkpt lat="46.07498" lon="6.45968">
        <ele>454.070465</ele>
        <time>2016-03-26T15:18:12Z</time>
      </trkpt>
      <trkpt lat="46.07496" lon="6.45999">
        <ele>454.746399</ele>
        <time>2016-03-26T15:18:15Z</time>
      </trkpt>
      <trkpt lat="46.07492" lon="6.46028">
        <ele>455.435699</ele>
        <time>2016-03-26T15:18:18Z</time>
      </trkpt>
      <trkpt lat="46.07489" lon="6.46056">
        <ele>455.921265</ele>
        <time>2016-03-26T15:18:21Z</time>
      </trkpt>
      <trkpt lat="46.07486" lon="6.46086">
        <ele>456.429993</ele>
        <time>2016-03-26T15:18:24Z</time>
      </trkpt>
      <trkpt lat="46.07483" lon="6.46115">
        <ele>456.738312</ele>
        <time>2016-03-26T15:18:27Z</time>
      </trkpt>
      <trkpt lat="46.0748" lon="6.46143">
        <ele>456.922577</ele>
        <time>2016-03-26T15:18:30Z</time>
      </trkpt>
      <trkpt lat="46.07477" lon="6.46171">
        <ele>457</ele>
        <time>2016-03-26T15:18:33Z</time>
      </trkpt>
      <trkpt lat="46.07474" lon="6.46199">
        <ele>457</ele>
        <time>2016-03-26T15:18:36Z</time>
      </trkpt>
      <trkpt lat="46.0747" lon="6.46224">
        <ele>456.992218</ele>
        <time>2016-03-26T15:18:39Z</time>
      </trkpt>
      <trkpt lat="46.07467" lon="6.46252">
        <ele>456.920959</ele>
        <time>2016-03-26T15:18:42Z</time>
      </trkpt>
      <trkpt lat="46.07464" lon="6.4628">
        <ele>456.886414</ele>
        <time>2016-03-26T15:18:45Z</time>
      </trkpt>
      <trkpt lat="46.07461" lon="6.4631">
        <ele>457.327698</ele>
        <time>2016-03-26T15:18:48Z</time>
      </trkpt>
      <trkpt lat="46.07458" lon="6.4634">
        <ele>457.835205</ele>
        <time>2016-03-26T15:18:51Z</time>
      </trkpt>
      <trkpt lat="46.07455" lon="6.46369">
        <ele>457.99707</ele>
        <time>2016-03-26T15:18:54Z</time>
      </trkpt>
      <trkpt lat="46.07452" lon="6.46398">
        <ele>457.954987</ele>
        <time>2016-03-26T15:18:57Z</time>
      </trkpt>
      <trkpt lat="46.07449" lon="6.46426">
        <ele>457.899994</ele>
        <time>2016-03-26T15:19:00Z</time>
      </trkpt>
      <trkpt lat="46.07446" lon="6.46452">
        <ele>457.850006</ele>
        <time>2016-03-26T15:19:03Z</time>
      </trkpt>
      <trkpt lat="46.07443" lon="6.46484">
        <ele>457.809998</ele>
        <time>2016-03-26T15:19:07Z</time>
      </trkpt>
      <trkpt lat="46.0744" lon="6.46513">
        <ele>457.765015</ele>
        <time>2016-03-26T15:19:11Z</time>
      </trkpt>
      <trkpt lat="46.07438" lon="6.46542">
        <ele>457.73999</ele>
        <time>2016-03-26T15:19:15Z</time>
      </trkpt>
      <trkpt lat="46.07436" lon="6.4657">
        <ele>457.730011</ele>
        <time>2016-03-26T15:19:19Z</time>
      </trkpt>
      <trkpt lat="46.07434" lon="6.46599">
        <ele>457.709991</ele>
        <time>2016-03-26T15:19:26Z</time>
      </trkpt>
      <trkpt lat="46.07429" lon="6.46628">
        <ele>457.61499</ele>
        <time>2016-03-26T15:19:31Z</time>
      </trkpt>
      <trkpt lat="46.07426" lon="6.46655">
        <ele>457.575012</ele>
        <time>2016-03-26T15:19:34Z</time>
      </trkpt>
      <trkpt lat="46.07422" lon="6.46688">
        <ele>457.524994</ele>
        <time>2016-03-26T15:19:38Z</time>
      </trkpt>
      <trkpt lat="46.07419" lon="6.46717">
        <ele>457.480011</ele>
        <time>2016-03-26T15:19:42Z</time>
      </trkpt>
      <trkpt lat="46.07416" lon="6.46747">
        <ele>457.351166</ele>
        <time>2016-03-26T15:19:46Z</time>
      </trkpt>
      <trkpt lat="46.07412" lon="6.4678">
        <ele>457.118134</ele>
        <time>2016-03-26T15:19:50Z</time>
      </trkpt>
      <trkpt lat="46.07409" lon="6.46808">
        <ele>457</ele>
        <time>2016-03-26T15:19:53Z</time>
      </trkpt>
      <trkpt lat="46.07406" lon="6.4684">
        <ele>457</ele>
        <time>2016-03-26T15:19:56Z</time>
      </trkpt>
      <trkpt lat="46.07404" lon="6.46872">
        <ele>457</ele>
        <time>2016-03-26T15:19:59Z</time>
      </trkpt>
      <trkpt lat="46.07402" lon="6.46902">
        <ele>457</ele>
        <time>2016-03-26T15:20:02Z</time>
      </trkpt>
      <trkpt lat="46.07401" lon="6.46932">
        <ele>457</ele>
        <time>2016-03-26T15:20:05Z</time>
      </trkpt>
      <trkpt lat="46.074" lon="6.46961">
        <ele>457</ele>
        <time>2016-03-26T15:20:08Z</time>
      </trkpt>
      <trkpt lat="46.07399" lon="6.46992">
        <ele>457</ele>
        <time>2016-03-26T15:20:11Z</time>
      </trkpt>
      <trkpt lat="46.07398" lon="6.47022">
        <ele>457</ele>
        <time>2016-03-26T15:20:14Z</time>
      </trkpt>
      <trkpt lat="46.07398" lon="6.47052">
        <ele>457</ele>
        <time>2016-03-26T15:20:17Z</time>
      </trkpt>
      <trkpt lat="46.07398" lon="6.47083">
        <ele>457</ele>
        <time>2016-03-26T15:20:20Z</time>
      </trkpt>
      <trkpt lat="46.074" lon="6.47114">
        <ele>457</ele>
        <time>2016-03-26T15:20:23Z</time>
      </trkpt>
      <trkpt lat="46.07401" lon="6.47143">
        <ele>457</ele>
        <time>2016-03-26T15:20:26Z</time>
      </trkpt>
      <trkpt lat="46.07403" lon="6.47173">
        <ele>457</ele>
        <time>2016-03-26T15:20:29Z</time>
      </trkpt>
      <trkpt lat="46.07405" lon="6.472">
        <ele>457</ele>
        <time>2016-03-26T15:20:32Z</time>
      </trkpt>
      <trkpt lat="46.07408" lon="6.47229">
        <ele>457</ele>
        <time>2016-03-26T15:20:35Z</time>
      </trkpt>
      <trkpt lat="46.07412" lon="6.47262">
        <ele>457</ele>
        <time>2016-03-26T15:20:38Z</time>
      </trkpt>
      <trkpt lat="46.07416" lon="6.47295">
        <ele>457</ele>
        <time>2016-03-26T15:20:41Z</time>
      </trkpt>
      <trkpt lat="46.0742" lon="6.47326">
        <ele>457</ele>
        <time>2016-03-26T15:20:44Z</time>
      </trkpt>
      <trkpt lat="46.07423" lon="6.47355">
        <ele>457.030701</ele>
        <time>2016-03-26T15:20:47Z</time>
      </trkpt>
      <trkpt lat="46.07426" lon="6.47382">
        <ele>457.003387</ele>
        <time>2016-03-26T15:20:50Z</time>
      </trkpt>
      <trkpt lat="46.07429" lon="6.47414">
        <ele>457</ele>
        <time>2016-03-26T15:20:54Z</time>
      </trkpt>
      <trkpt lat="46.07433" lon="6.47444">
        <ele>457</ele>
        <time>2016-03-26T15:20:58Z</time>
      </trkpt>
      <trkpt lat="46.07437" lon="6.47472">
        <ele>457</ele>
        <time>2016-03-26T15:21:02Z</time>
      </trkpt>
      <trkpt lat="46.07442" lon="6.47502">
        <ele>457</ele>
        <time>2016-03-26T15:21:06Z</time>
      </trkpt>
      <trkpt lat="46.07447" lon="6.47528">
        <ele>456.948242</ele>
        <time>2016-03-26T15:21:09Z</time>
      </trkpt>
      <trkpt lat="46.07452" lon="6.47557">
        <ele>456.928925</ele>
        <time>2016-03-26T15:21:12Z</time>
      </trkpt>
      <trkpt lat="46.07458" lon="6.47584">
        <ele>456.951324</ele>
        <time>2016-03-26T15:21:15Z</time>
      </trkpt>
      <trkpt lat="46.07465" lon="6.47616">
        <ele>456.579559</ele>
        <time>2016-03-26T15:21:19Z</time>
      </trkpt>
      <trkpt lat="46.07471" lon="6.47641">
        <ele>456.418762</ele>
        <time>2016-03-26T15:21:22Z</time>
      </trkpt>
      <trkpt lat="46.07476" lon="6.4767">
        <ele>456.330841</ele>
        <time>2016-03-26T15:21:25Z</time>
      </trkpt>
      <trkpt lat="46.07483" lon="6.477">
        <ele>456.124237</ele>
        <time>2016-03-26T15:21:28Z</time>
      </trkpt>
      <trkpt lat="46.07492" lon="6.47729">
        <ele>456.24115</ele>
        <time>2016-03-26T15:21:31Z</time>
      </trkpt>
      <trkpt lat="46.075" lon="6.47758">
        <ele>456.727448</ele>
        <time>2016-03-26T15:21:34Z</time>
      </trkpt>
      <trkpt lat="46.07508" lon="6.47787">
        <ele>457</ele>
        <time>2016-03-26T15:21:37Z</time>
      </trkpt>
      <trkpt lat="46.07517" lon="6.47818">
        <ele>457</ele>
        <time>2016-03-26T15:21:40Z</time>
      </trkpt>
      <trkpt lat="46.07525" lon="6.47846">
        <ele>457.029999</ele>
        <time>2016-03-26T15:21:43Z</time>
      </trkpt>
      <trkpt lat="46.07536" lon="6.47873">
        <ele>457.444366</ele>
        <time>2016-03-26T15:21:46Z</time>
      </trkpt>
      <trkpt lat="46.07546" lon="6.47901">
        <ele>457.887329</ele>
        <time>2016-03-26T15:21:49Z</time>
      </trkpt>
      <trkpt lat="46.07556" lon="6.47928">
        <ele>458</ele>
        <time>2016-03-26T15:21:52Z</time>
      </trkpt>
      <trkpt lat="46.07565" lon="6.47954">
        <ele>458</ele>
        <time>2016-03-26T15:21:55Z</time>
      </trkpt>
      <trkpt lat="46.07575" lon="6.47978">
        <ele>458.007111</ele>
        <time>2016-03-26T15:21:58Z</time>
      </trkpt>
      <trkpt lat="46.07578" lon="6.48005">
        <ele>458.910004</ele>
        <time>2016-03-26T15:22:02Z</time>
      </trkpt>
      <trkpt lat="46.07559" lon="6.48022">
        <ele>458.909454</ele>
        <time>2016-03-26T15:22:06Z</time>
      </trkpt>
      <trkpt lat="46.07547" lon="6.48042">
        <ele>458.820221</ele>
        <time>2016-03-26T15:22:09Z</time>
      </trkpt>
      <trkpt lat="46.07541" lon="6.48069">
        <ele>459.130127</ele>
        <time>2016-03-26T15:22:12Z</time>
      </trkpt>
      <trkpt lat="46.07536" lon="6.48097">
        <ele>459.480011</ele>
        <time>2016-03-26T15:22:15Z</time>
      </trkpt>
      <trkpt lat="46.07532" lon="6.48126">
        <ele>459.962799</ele>
        <time>2016-03-26T15:22:18Z</time>
      </trkpt>
      <trkpt lat="46.07523" lon="6.48152">
        <ele>460.364868</ele>
        <time>2016-03-26T15:22:21Z</time>
      </trkpt>
      <trkpt lat="46.0751" lon="6.4817">
        <ele>460.125153</ele>
        <time>2016-03-26T15:22:24Z</time>
      </trkpt>
      <trkpt lat="46.07497" lon="6.48188">
        <ele>460.283997</ele>
        <time>2016-03-26T15:22:28Z</time>
      </trkpt>
      <trkpt lat="46.07512" lon="6.48186">
        <ele>460.918396</ele>
        <time>2016-03-26T15:22:33Z</time>
      </trkpt>
      <trkpt lat="46.07519" lon="6.4819">
        <ele>461.441925</ele>
        <time>2016-03-26T15:22:39Z</time>
      </trkpt>
      <trkpt lat="46.0751" lon="6.48214">
        <ele>462.029541</ele>
        <time>2016-03-26T15:22:45Z</time>
      </trkpt>
      <trkpt lat="46.07502" lon="6.48239">
        <ele>462.554993</ele>
        <time>2016-03-26T15:22:50Z</time>
      </trkpt>
      <trkpt lat="46.07493" lon="6.48264">
        <ele>462.36499</ele>
        <time>2016-03-26T15:22:55Z</time>
      </trkpt>
      <trkpt lat="46.07472" lon="6.48276">
        <ele>461.854645</ele>
        <time>2016-03-26T15:23:00Z</time>
      </trkpt>
      <trkpt lat="46.0746" lon="6.48297">
        <ele>461.694336</ele>
        <time>2016-03-26T15:23:04Z</time>
      </trkpt>
      <trkpt lat="46.07446" lon="6.48317">
        <ele>461.623566</ele>
        <time>2016-03-26T15:23:08Z</time>
      </trkpt>
      <trkpt lat="46.07442" lon="6.48344">
        <ele>461.875732</ele>
        <time>2016-03-26T15:23:12Z</time>
      </trkpt>
      <trkpt lat="46.07429" lon="6.48362">
        <ele>462</ele>
        <time>2016-03-26T15:23:16Z</time>
      </trkpt>
      <trkpt lat="46.0741" lon="6.48363">
        <ele>461.332123</ele>
        <time>2016-03-26T15:23:20Z</time>
      </trkpt>
      <trkpt lat="46.0739" lon="6.48362">
        <ele>460.607635</ele>
        <time>2016-03-26T15:23:25Z</time>
      </trkpt>
      <trkpt lat="46.07372" lon="6.48367">
        <ele>460.46817</ele>
        <time>2016-03-26T15:23:34Z</time>
      </trkpt>
      <trkpt lat="46.07354" lon="6.48363">
        <ele>460.295624</ele>
        <time>2016-03-26T15:23:54Z</time>
      </trkpt>
      <trkpt lat="46.07335" lon="6.48357">
        <ele>460.12973</ele>
        <time>2016-03-26T15:24:01Z</time>
      </trkpt>
      <trkpt lat="46.07317" lon="6.48348">
        <ele>460.0177</ele>
        <time>2016-03-26T15:24:05Z</time>
      </trkpt>
      <trkpt lat="46.07295" lon="6.48338">
        <ele>460</ele>
        <time>2016-03-26T15:24:10Z</time>
      </trkpt>
      <trkpt lat="46.07279" lon="6.48328">
        <ele>459.746307</ele>
        <time>2016-03-26T15:24:14Z</time>
      </trkpt>
      <trkpt lat="46.07264" lon="6.4834">
        <ele>459.361359</ele>
        <time>2016-03-26T15:24:19Z</time>
      </trkpt>
      <trkpt lat="46.07262" lon="6.48368">
        <ele>459.329987</ele>
        <time>2016-03-26T15:24:23Z</time>
      </trkpt>
      <trkpt lat="46.07264" lon="6.48394">
        <ele>459.390015</ele>
        <time>2016-03-26T15:24:27Z</time>
      </trkpt>
      <trkpt lat="46.07267" lon="6.48425">
        <ele>459.766663</ele>
        <time>2016-03-26T15:24:32Z</time>
      </trkpt>
      <trkpt lat="46.07275" lon="6.48452">
        <ele>460.111603</ele>
        <time>2016-03-26T15:24:37Z</time>
      </trkpt>
      <trkpt lat="46.07289" lon="6.48479">
        <ele>460.190399</ele>
        <time>2016-03-26T15:24:42Z</time>
      </trkpt>
      <trkpt lat="46.07301" lon="6.48506">
        <ele>461.128754</ele>
        <time>2016-03-26T15:24:46Z</time>
      </trkpt>
      <trkpt lat="46.07301" lon="6.48534">
        <ele>461.879639</ele>
        <time>2016-03-26T15:24:50Z</time>
      </trkpt>
      <trkpt lat="46.07305" lon="6.48563">
        <ele>462</ele>
        <time>2016-03-26T15:24:54Z</time>
      </trkpt>
      <trkpt lat="46.07311" lon="6.48589">
        <ele>462</ele>
        <time>2016-03-26T15:24:58Z</time>
      </trkpt>
      <trkpt lat="46.07315" lon="6.48619">
        <ele>462</ele>
        <time>2016-03-26T15:25:03Z</time>
      </trkpt>
      <trkpt lat="46.07317" lon="6.48647">
        <ele>462</ele>
        <time>2016-03-26T15:25:08Z</time>
      </trkpt>
      <trkpt lat="46.07318" lon="6.48676">
        <ele>461.90625</ele>
        <time>2016-03-26T15:25:14Z</time>
      </trkpt>
      <trkpt lat="46.07321" lon="6.48706">
        <ele>461.440002</ele>
        <time>2016-03-26T15:25:20Z</time>
      </trkpt>
      <trkpt lat="46.07327" lon="6.48733">
        <ele>461.11795</ele>
        <time>2016-03-26T15:25:25Z</time>
      </trkpt>
      <trkpt lat="46.0733" lon="6.48762">
        <ele>461.096741</ele>
        <time>2016-03-26T15:25:31Z</time>
      </trkpt>
      <trkpt lat="46.07318" lon="6.48783">
        <ele>460.932495</ele>
        <time>2016-03-26T15:25:37Z</time>
      </trkpt>
      <trkpt lat="46.07314" lon="6.48809">
        <ele>460.679993</ele>
        <time>2016-03-26T15:25:42Z</time>
      </trkpt>
      <trkpt lat="46.07326" lon="6.48834">
        <ele>460.542816</ele>
        <time>2016-03-26T15:25:48Z</time>
      </trkpt>
      <trkpt lat="46.07341" lon="6.48848">
        <ele>460.626617</ele>
        <time>2016-03-26T15:25:52Z</time>
      </trkpt>
      <trkpt lat="46.07356" lon="6.48871">
        <ele>460.773865</ele>
        <time>2016-03-26T15:25:56Z</time>
      </trkpt>
      <trkpt lat="46.07374" lon="6.48881">
        <ele>460.804993</ele>
        <time>2016-03-26T15:26:03Z</time>
      </trkpt>
      <trkpt lat="46.07393" lon="6.48876">
        <ele>460.910004</ele>
        <time>2016-03-26T15:26:10Z</time>
      </trkpt>
      <trkpt lat="46.07412" lon="6.48885">
        <ele>460.803223</ele>
        <time>2016-03-26T15:26:17Z</time>
      </trkpt>
      <trkpt lat="46.07433" lon="6.48895">
        <ele>460.846436</ele>
        <time>2016-03-26T15:26:24Z</time>
      </trkpt>
      <trkpt lat="46.07452" lon="6.48888">
        <ele>460.995697</ele>
        <time>2016-03-26T15:26:31Z</time>
      </trkpt>
      <trkpt lat="46.07469" lon="6.48886">
        <ele>461.28476</ele>
        <time>2016-03-26T15:26:38Z</time>
      </trkpt>
      <trkpt lat="46.0748" lon="6.4891">
        <ele>461.299805</ele>
        <time>2016-03-26T15:26:46Z</time>
      </trkpt>
      <trkpt lat="46.075" lon="6.48924">
        <ele>461.34436</ele>
        <time>2016-03-26T15:26:52Z</time>
      </trkpt>
      <trkpt lat="46.07523" lon="6.48919">
        <ele>461.739685</ele>
        <time>2016-03-26T15:26:58Z</time>
      </trkpt>
      <trkpt lat="46.07542" lon="6.4893">
        <ele>461.996185</ele>
        <time>2016-03-26T15:27:04Z</time>
      </trkpt>
      <trkpt lat="46.07561" lon="6.48942">
        <ele>462</ele>
        <time>2016-03-26T15:27:10Z</time>
      </trkpt>
      <trkpt lat="46.0758" lon="6.48924">
        <ele>462</ele>
        <time>2016-03-26T15:27:15Z</time>
      </trkpt>
      <trkpt lat="46.076" lon="6.48923">
        <ele>462.118286</ele>
        <time>2016-03-26T15:27:20Z</time>
      </trkpt>
      <trkpt lat="46.07622" lon="6.48938">
        <ele>462.162811</ele>
        <time>2016-03-26T15:27:26Z</time>
      </trkpt>
      <trkpt lat="46.07636" lon="6.48956">
        <ele>462.099884</ele>
        <time>2016-03-26T15:27:31Z</time>
      </trkpt>
      <trkpt lat="46.07649" lon="6.48978">
        <ele>462.267212</ele>
        <time>2016-03-26T15:27:37Z</time>
      </trkpt>
      <trkpt lat="46.0766" lon="6.49003">
        <ele>462.177246</ele>
        <time>2016-03-26T15:27:43Z</time>
      </trkpt>
      <trkpt lat="46.0766" lon="6.49032">
        <ele>462</ele>
        <time>2016-03-26T15:27:49Z</time>
      </trkpt>
      <trkpt lat="46.07668" lon="6.49057">
        <ele>462</ele>
        <time>2016-03-26T15:27:54Z</time>
      </trkpt>
      <trkpt lat="46.07672" lon="6.49085">
        <ele>462.015015</ele>
        <time>2016-03-26T15:27:58Z</time>
      </trkpt>
      <trkpt lat="46.07671" lon="6.49114">
        <ele>462.010925</ele>
        <time>2016-03-26T15:28:04Z</time>
      </trkpt>
      <trkpt lat="46.07676" lon="6.49145">
        <ele>462.010864</ele>
        <time>2016-03-26T15:28:10Z</time>
      </trkpt>
      <trkpt lat="46.0769" lon="6.49169">
        <ele>462</ele>
        <time>2016-03-26T15:28:15Z</time>
      </trkpt>
      <trkpt lat="46.07709" lon="6.49188">
        <ele>462</ele>
        <time>2016-03-26T15:28:22Z</time>
      </trkpt>
      <trkpt lat="46.07728" lon="6.49208">
        <ele>462.359985</ele>
        <time>2016-03-26T15:28:29Z</time>
      </trkpt>
      <trkpt lat="46.07747" lon="6.49221">
        <ele>462.799988</ele>
        <time>2016-03-26T15:28:34Z</time>
      </trkpt>
      <trkpt lat="46.07768" lon="6.49223">
        <ele>463</ele>
        <time>2016-03-26T15:28:39Z</time>
      </trkpt>
      <trkpt lat="46.07791" lon="6.49222">
        <ele>463</ele>
        <time>2016-03-26T15:28:44Z</time>
      </trkpt>
      <trkpt lat="46.07814" lon="6.49216">
        <ele>463.269989</ele>
        <time>2016-03-26T15:28:49Z</time>
      </trkpt>
      <trkpt lat="46.07836" lon="6.49204">
        <ele>463.76001</ele>
        <time>2016-03-26T15:28:54Z</time>
      </trkpt>
      <trkpt lat="46.07857" lon="6.49195">
        <ele>464</ele>
        <time>2016-03-26T15:28:59Z</time>
      </trkpt>
      <trkpt lat="46.07875" lon="6.49189">
        <ele>464</ele>
        <time>2016-03-26T15:29:03Z</time>
      </trkpt>
      <trkpt lat="46.07898" lon="6.49181">
        <ele>464.100006</ele>
        <time>2016-03-26T15:29:08Z</time>
      </trkpt>
      <trkpt lat="46.07918" lon="6.49176">
        <ele>464.559998</ele>
        <time>2016-03-26T15:29:13Z</time>
      </trkpt>
      <trkpt lat="46.07939" lon="6.49169">
        <ele>465</ele>
        <time>2016-03-26T15:29:19Z</time>
      </trkpt>
      <trkpt lat="46.07961" lon="6.49161">
        <ele>465</ele>
        <time>2016-03-26T15:29:24Z</time>
      </trkpt>
      <trkpt lat="46.07981" lon="6.49167">
        <ele>465</ele>
        <time>2016-03-26T15:31:24Z</time>
      </trkpt>
      <trkpt lat="46.08001" lon="6.49163">
        <ele>465.38501</ele>
        <time>2016-03-26T15:31:30Z</time>
      </trkpt>
      <trkpt lat="46.08024" lon="6.49159">
        <ele>465.88501</ele>
        <time>2016-03-26T15:31:34Z</time>
      </trkpt>
      <trkpt lat="46.08044" lon="6.49156">
        <ele>466</ele>
        <time>2016-03-26T15:31:39Z</time>
      </trkpt>
      <trkpt lat="46.08065" lon="6.49153">
        <ele>466</ele>
        <time>2016-03-26T15:31:45Z</time>
      </trkpt>
      <trkpt lat="46.08085" lon="6.49147">
        <ele>466.230011</ele>
        <time>2016-03-26T15:31:52Z</time>
      </trkpt>
      <trkpt lat="46.08103" lon="6.49134">
        <ele>466.630005</ele>
        <time>2016-03-26T15:31:58Z</time>
      </trkpt>
      <trkpt lat="46.08121" lon="6.49121">
        <ele>467</ele>
        <time>2016-03-26T15:32:05Z</time>
      </trkpt>
      <trkpt lat="46.0814" lon="6.49111">
        <ele>467</ele>
        <time>2016-03-26T15:32:12Z</time>
      </trkpt>
      <trkpt lat="46.08154" lon="6.49123">
        <ele>467</ele>
        <time>2016-03-26T15:32:19Z</time>
      </trkpt>
      <trkpt lat="46.08153" lon="6.49147">
        <ele>467</ele>
        <time>2016-03-26T15:32:25Z</time>
      </trkpt>
      <trkpt lat="46.0815" lon="6.49171">
        <ele>467</ele>
        <time>2016-03-26T15:32:31Z</time>
      </trkpt>
      <trkpt lat="46.08157" lon="6.49197">
        <ele>466.981415</ele>
        <time>2016-03-26T15:32:36Z</time>
      </trkpt>
      <trkpt lat="46.08149" lon="6.4922">
        <ele>466.853363</ele>
        <time>2016-03-26T15:32:42Z</time>
      </trkpt>
      <trkpt lat="46.08134" lon="6.49228">
        <ele>466.604004</ele>
        <time>2016-03-26T15:32:46Z</time>
      </trkpt>
      <trkpt lat="46.08116" lon="6.49234">
        <ele>466.223999</ele>
        <time>2016-03-26T15:32:50Z</time>
      </trkpt>
      <trkpt lat="46.081" lon="6.49249">
        <ele>466</ele>
        <time>2016-03-26T15:32:54Z</time>
      </trkpt>
      <trkpt lat="46.08091" lon="6.49272">
        <ele>466</ele>
        <time>2016-03-26T15:32:58Z</time>
      </trkpt>
      <trkpt lat="46.08075" lon="6.49294">
        <ele>466</ele>
        <time>2016-03-26T15:33:03Z</time>
      </trkpt>
      <trkpt lat="46.08059" lon="6.49314">
        <ele>465.785004</ele>
        <time>2016-03-26T15:33:08Z</time>
      </trkpt>
      <trkpt lat="46.08052" lon="6.49345">
        <ele>465.660004</ele>
        <time>2016-03-26T15:33:17Z</time>
      </trkpt>
      <trkpt lat="46.08056" lon="6.49375">
        <ele>465.763428</ele>
        <time>2016-03-26T15:33:22Z</time>
      </trkpt>
      <trkpt lat="46.08071" lon="6.49397">
        <ele>465.702667</ele>
        <time>2016-03-26T15:33:27Z</time>
      </trkpt>
      <trkpt lat="46.08084" lon="6.49423">
        <ele>465.580353</ele>
        <time>2016-03-26T15:33:32Z</time>
      </trkpt>
      <trkpt lat="46.08092" lon="6.49453">
        <ele>465.649994</ele>
        <time>2016-03-26T15:33:38Z</time>
      </trkpt>
      <trkpt lat="46.08099" lon="6.49479">
        <ele>465.820007</ele>
        <time>2016-03-26T15:33:43Z</time>
      </trkpt>
      <trkpt lat="46.08117" lon="6.49494">
        <ele>466</ele>
        <time>2016-03-26T15:33:48Z</time>
      </trkpt>
      <trkpt lat="46.08136" lon="6.49507">
        <ele>466</ele>
        <time>2016-03-26T15:33:53Z</time>
      </trkpt>
      <trkpt lat="46.08151" lon="6.49528">
        <ele>466.019989</ele>
        <time>2016-03-26T15:34:00Z</time>
      </trkpt>
      <trkpt lat="46.0817" lon="6.49537">
        <ele>466.429993</ele>
        <time>2016-03-26T15:34:07Z</time>
      </trkpt>
      <trkpt lat="46.08171" lon="6.49507">
        <ele>466.440002</ele>
        <time>2016-03-26T15:34:20Z</time>
      </trkpt>
      <trkpt lat="46.08192" lon="6.49492">
        <ele>466.890015</ele>
        <time>2016-03-26T15:34:30Z</time>
      </trkpt>
      <trkpt lat="46.08211" lon="6.49479">
        <ele>467</ele>
        <time>2016-03-26T15:34:37Z</time>
      </trkpt>
      <trkpt lat="46.0823" lon="6.4948">
        <ele>467</ele>
        <time>2016-03-26T15:34:43Z</time>
      </trkpt>
      <trkpt lat="46.08249" lon="6.49475">
        <ele>467</ele>
        <time>2016-03-26T15:34:51Z</time>
      </trkpt>
      <trkpt lat="46.08266" lon="6.49454">
        <ele>467</ele>
        <time>2016-03-26T15:34:58Z</time>
      </trkpt>
      <trkpt lat="46.08277" lon="6.49427">
        <ele>467.310547</ele>
        <time>2016-03-26T15:35:03Z</time>
      </trkpt>
      <trkpt lat="46.08298" lon="6.49418">
        <ele>467.679016</ele>
        <time>2016-03-26T15:35:09Z</time>
      </trkpt>
      <trkpt lat="46.08318" lon="6.49412">
        <ele>467.889313</ele>
        <time>2016-03-26T15:35:15Z</time>
      </trkpt>
      <trkpt lat="46.0833" lon="6.49388">
        <ele>468</ele>
        <time>2016-03-26T15:35:21Z</time>
      </trkpt>
      <trkpt lat="46.08348" lon="6.49368">
        <ele>468</ele>
        <time>2016-03-26T15:35:28Z</time>
      </trkpt>
      <trkpt lat="46.08367" lon="6.49362">
        <ele>468</ele>
        <time>2016-03-26T15:35:34Z</time>
      </trkpt>
      <trkpt lat="46.08385" lon="6.49355">
        <ele>468.049866</ele>
        <time>2016-03-26T15:35:39Z</time>
      </trkpt>
      <trkpt lat="46.08402" lon="6.4934">
        <ele>468.38797</ele>
        <time>2016-03-26T15:35:44Z</time>
      </trkpt>
      <trkpt lat="46.0842" lon="6.49324">
        <ele>468.809998</ele>
        <time>2016-03-26T15:35:49Z</time>
      </trkpt>
      <trkpt lat="46.08437" lon="6.49336">
        <ele>469.005371</ele>
        <time>2016-03-26T15:35:55Z</time>
      </trkpt>
      <trkpt lat="46.08455" lon="6.49327">
        <ele>469.106628</ele>
        <time>2016-03-26T15:36:02Z</time>
      </trkpt>
      <trkpt lat="46.08474" lon="6.49327">
        <ele>469.222504</ele>
        <time>2016-03-26T15:36:15Z</time>
      </trkpt>
      <trkpt lat="46.08491" lon="6.49346">
        <ele>469.3927</ele>
        <time>2016-03-26T15:36:24Z</time>
      </trkpt>
      <trkpt lat="46.08504" lon="6.49363">
        <ele>469.488708</ele>
        <time>2016-03-26T15:36:30Z</time>
      </trkpt>
      <trkpt lat="46.0852" lon="6.49384">
        <ele>469.476257</ele>
        <time>2016-03-26T15:36:36Z</time>
      </trkpt>
      <trkpt lat="46.08534" lon="6.49401">
        <ele>469.561249</ele>
        <time>2016-03-26T15:36:42Z</time>
      </trkpt>
      <trkpt lat="46.08549" lon="6.49421">
        <ele>469.643921</ele>
        <time>2016-03-26T15:36:49Z</time>
      </trkpt>
      <trkpt lat="46.08565" lon="6.49439">
        <ele>469.706268</ele>
        <time>2016-03-26T15:36:55Z</time>
      </trkpt>
      <trkpt lat="46.08582" lon="6.49459">
        <ele>469.804993</ele>
        <time>2016-03-26T15:37:01Z</time>
      </trkpt>
      <trkpt lat="46.08596" lon="6.49479">
        <ele>469.856781</ele>
        <time>2016-03-26T15:37:07Z</time>
      </trkpt>
      <trkpt lat="46.08611" lon="6.49497">
        <ele>470.003265</ele>
        <time>2016-03-26T15:37:12Z</time>
      </trkpt>
      <trkpt lat="46.08627" lon="6.49516">
        <ele>470.339935</ele>
        <time>2016-03-26T15:37:17Z</time>
      </trkpt>
      <trkpt lat="46.08641" lon="6.49534">
        <ele>470.820618</ele>
        <time>2016-03-26T15:37:22Z</time>
      </trkpt>
      <trkpt lat="46.08656" lon="6.49554">
        <ele>471.161255</ele>
        <time>2016-03-26T15:37:27Z</time>
      </trkpt>
      <trkpt lat="46.08672" lon="6.49575">
        <ele>471.238739</ele>
        <time>2016-03-26T15:37:32Z</time>
      </trkpt>
      <trkpt lat="46.08688" lon="6.49594">
        <ele>471.309998</ele>
        <time>2016-03-26T15:37:37Z</time>
      </trkpt>
      <trkpt lat="46.08704" lon="6.49614">
        <ele>471.767517</ele>
        <time>2016-03-26T15:37:42Z</time>
      </trkpt>
      <trkpt lat="46.0872" lon="6.49634">
        <ele>472.285339</ele>
        <time>2016-03-26T15:37:47Z</time>
      </trkpt>
      <trkpt lat="46.08734" lon="6.49651">
        <ele>472.626251</ele>
        <time>2016-03-26T15:37:52Z</time>
      </trkpt>
      <trkpt lat="46.08748" lon="6.4967">
        <ele>473.016235</ele>
        <time>2016-03-26T15:37:58Z</time>
      </trkpt>
      <trkpt lat="46.08764" lon="6.49687">
        <ele>473.493744</ele>
        <time>2016-03-26T15:38:06Z</time>
      </trkpt>
      <trkpt lat="46.08781" lon="6.49671">
        <ele>474.351257</ele>
        <time>2016-03-26T15:38:14Z</time>
      </trkpt>
      <trkpt lat="46.08798" lon="6.49656">
        <ele>474.976257</ele>
        <time>2016-03-26T15:38:20Z</time>
      </trkpt>
      <trkpt lat="46.08814" lon="6.49642">
        <ele>475.570007</ele>
        <time>2016-03-26T15:38:25Z</time>
      </trkpt>
      <trkpt lat="46.08832" lon="6.49627">
        <ele>475.991241</ele>
        <time>2016-03-26T15:38:30Z</time>
      </trkpt>
      <trkpt lat="46.08848" lon="6.49631">
        <ele>475.956238</ele>
        <time>2016-03-26T15:38:38Z</time>
      </trkpt>
      <trkpt lat="46.08859" lon="6.49655">
        <ele>475.592499</ele>
        <time>2016-03-26T15:38:44Z</time>
      </trkpt>
      <trkpt lat="46.08869" lon="6.4968">
        <ele>475.25882</ele>
        <time>2016-03-26T15:38:49Z</time>
      </trkpt>
      <trkpt lat="46.0888" lon="6.49707">
        <ele>475.339996</ele>
        <time>2016-03-26T15:38:54Z</time>
      </trkpt>
      <trkpt lat="46.08891" lon="6.49734">
        <ele>475.595001</ele>
        <time>2016-03-26T15:38:59Z</time>
      </trkpt>
      <trkpt lat="46.08902" lon="6.49761">
        <ele>475.86499</ele>
        <time>2016-03-26T15:39:04Z</time>
      </trkpt>
      <trkpt lat="46.08914" lon="6.49789">
        <ele>476.154999</ele>
        <time>2016-03-26T15:39:09Z</time>
      </trkpt>
      <trkpt lat="46.08924" lon="6.49813">
        <ele>476.394989</ele>
        <time>2016-03-26T15:39:13Z</time>
      </trkpt>
      <trkpt lat="46.08932" lon="6.49838">
        <ele>476.442505</ele>
        <time>2016-03-26T15:39:17Z</time>
      </trkpt>
      <trkpt lat="46.08941" lon="6.49863">
        <ele>476.30249</ele>
        <time>2016-03-26T15:39:21Z</time>
      </trkpt>
      <trkpt lat="46.0895" lon="6.49889">
        <ele>476.125</ele>
        <time>2016-03-26T15:39:25Z</time>
      </trkpt>
      <trkpt lat="46.08958" lon="6.49913">
        <ele>476.176086</ele>
        <time>2016-03-26T15:39:29Z</time>
      </trkpt>
      <trkpt lat="46.08968" lon="6.49939">
        <ele>476.160797</ele>
        <time>2016-03-26T15:39:33Z</time>
      </trkpt>
      <trkpt lat="46.08981" lon="6.49964">
        <ele>475.992462</ele>
        <time>2016-03-26T15:39:37Z</time>
      </trkpt>
      <trkpt lat="46.08993" lon="6.49988">
        <ele>476.075012</ele>
        <time>2016-03-26T15:39:41Z</time>
      </trkpt>
      <trkpt lat="46.09004" lon="6.50011">
        <ele>476.345001</ele>
        <time>2016-03-26T15:39:45Z</time>
      </trkpt>
      <trkpt lat="46.09003" lon="6.50036">
        <ele>476.350006</ele>
        <time>2016-03-26T15:39:50Z</time>
      </trkpt>
      <trkpt lat="46.08987" lon="6.50054">
        <ele>476.005005</ele>
        <time>2016-03-26T15:39:55Z</time>
      </trkpt>
      <trkpt lat="46.08968" lon="6.50068">
        <ele>475.584991</ele>
        <time>2016-03-26T15:39:59Z</time>
      </trkpt>
      <trkpt lat="46.08948" lon="6.50083">
        <ele>475.154999</ele>
        <time>2016-03-26T15:40:03Z</time>
      </trkpt>
      <trkpt lat="46.08929" lon="6.50099">
        <ele>474.924988</ele>
        <time>2016-03-26T15:40:07Z</time>
      </trkpt>
      <trkpt lat="46.08917" lon="6.50127">
        <ele>475.127502</ele>
        <time>2016-03-26T15:40:11Z</time>
      </trkpt>
      <trkpt lat="46.08915" lon="6.50153">
        <ele>475.480011</ele>
        <time>2016-03-26T15:40:14Z</time>
      </trkpt>
      <trkpt lat="46.08917" lon="6.5018">
        <ele>475.545013</ele>
        <time>2016-03-26T15:40:17Z</time>
      </trkpt>
      <trkpt lat="46.0892" lon="6.50214">
        <ele>475.63501</ele>
        <time>2016-03-26T15:40:21Z</time>
      </trkpt>
      <trkpt lat="46.08923" lon="6.50248">
        <ele>475.864319</ele>
        <time>2016-03-26T15:40:25Z</time>
      </trkpt>
      <trkpt lat="46.08925" lon="6.50274">
        <ele>475.979736</ele>
        <time>2016-03-26T15:40:28Z</time>
      </trkpt>
      <trkpt lat="46.08928" lon="6.5031">
        <ele>476</ele>
        <time>2016-03-26T15:40:32Z</time>
      </trkpt>
      <trkpt lat="46.0893" lon="6.50337">
        <ele>476</ele>
        <time>2016-03-26T15:40:35Z</time>
      </trkpt>
      <trkpt lat="46.08932" lon="6.50365">
        <ele>476.024719</ele>
        <time>2016-03-26T15:40:38Z</time>
      </trkpt>
      <trkpt lat="46.08934" lon="6.50394">
        <ele>476.029694</ele>
        <time>2016-03-26T15:40:41Z</time>
      </trkpt>
      <trkpt lat="46.08936" lon="6.50422">
        <ele>475.864899</ele>
        <time>2016-03-26T15:40:44Z</time>
      </trkpt>
      <trkpt lat="46.08938" lon="6.50451">
        <ele>475.5383</ele>
        <time>2016-03-26T15:40:47Z</time>
      </trkpt>
      <trkpt lat="46.08939" lon="6.50481">
        <ele>475.348755</ele>
        <time>2016-03-26T15:40:50Z</time>
      </trkpt>
      <trkpt lat="46.0894" lon="6.50513">
        <ele>475.710175</ele>
        <time>2016-03-26T15:40:53Z</time>
      </trkpt>
      <trkpt lat="46.08942" lon="6.50544">
        <ele>476.014801</ele>
        <time>2016-03-26T15:40:56Z</time>
      </trkpt>
      <trkpt lat="46.08941" lon="6.50573">
        <ele>476.191071</ele>
        <time>2016-03-26T15:40:59Z</time>
      </trkpt>
      <trkpt lat="46.08939" lon="6.50598">
        <ele>476.333435</ele>
        <time>2016-03-26T15:41:02Z</time>
      </trkpt>
      <trkpt lat="46.08938" lon="6.50628">
        <ele>476.601013</ele>
        <time>2016-03-26T15:41:06Z</time>
      </trkpt>
    </trkseg>
  </trk>
</gpx>